GFSSW_con_mucape_000.txt.gz
CAPE
5 9 16 23 30 47 62 59 77 63 62 49 45 25 9 10 25 28 0 0 0 102 130 0 0 0 0 0 0 0 0 0 0 0 0 0 0 0 0 0 0 0 0 0 0
3 7 26 48 55 90 106 83 67 77 81 75 51 33 31 39 10 0 0 0 0 294 15 0 0 0 0 0 0 0 0 0 0 0 0 0 0 0 0 0 0 0 0 0 0
5 3 6 49 74 79 106 110 83 79 90 99 59 38 62 50 0 0 0 0 0 220 140 1 5 23 0 0 0 0 0 0 0 0 0 0 0 0 0 0 0 0 0 0 0
2 0 1 21 82 68 114 111 109 82 89 112 73 53 84 65 0 0 0 0 0 51 94 31 11 6 0 0 0 0 0 0 0 0 0 0 0 0 0 0 0 0 0 0 0
12 26 30 35 31 82 206 180 157 159 112 106 95 111 58 0 0 0 0 0 0 107 96 19 13 7 0 0 0 0 0 0 0 0 0 0 0 0 0 0 0 0 0 0 0
54 81 58 45 41 47 146 195 263 235 174 152 126 177 53 0 0 1 0 0 0 68 112 30 10 6 0 0 0 0 0 0 0 0 0 0 0 0 0 0 0 0 0 0 0
47 58 65 53 35 75 171 207 268 298 241 195 188 95 56 0 0 12 4 7 7 51 71 25 29 29 11 0 1 0 0 0 0 0 0 0 0 0 0 0 0 0 0 0 0
52 58 59 32 46 94 168 318 319 302 272 259 246 75 6 0 0 11 12 14 40 66 109 61 66 13 19 0 0 0 0 0 0 0 0 0 0 0 0 0 0 0 0 0 0
58 52 43 0 0 43 102 156 269 344 353 329 126 41 0 92 0 9 6 0 12 49 122 58 55 36 34 5 15 5 0 0 0 0 0 0 0 0 0 0 0 0 0 0 0
47 63 80 12 4 56 130 158 185 295 231 180 80 41 7 4 0 17 13 2 52 27 107 90 33 43 45 23 0 1 0 0 0 0 0 0 0 0 0 0 0 0 0 0 0
0 41 24 74 71 86 62 82 0 0 92 17 3 20 26 3 49 29 29 17 76 68 50 55 6 22 13 5 0 3 0 0 0 0 0 0 0 0 0 0 0 0 0 0 0
2 2 4 53 50 79 59 77 1 0 5 0 5 17 149 36 10 57 89 75 59 0 48 63 18 1 10 2 0 3 0 0 0 0 0 0 0 0 0 0 0 0 0 0 0
2 2 4 11 0 66 0 0 12 3 7 88 77 0 113 76 101 29 66 55 2 10 45 15 0 0 8 3 14 2 0 0 0 0 0 0 0 0 0 0 0 0 0 0 0
4 0 0 1 0 28 56 0 31 55 84 42 60 52 93 127 56 37 27 9 59 0 27 0 0 0 24 4 3 0 0 0 0 0 0 0 0 0 0 0 0 0 0 0 0
8 2 1 1 0 0 0 0 0 19 2 0 17 61 76 67 12 22 0 38 20 2 29 2 2 0 3 0 0 0 0 0 0 0 0 0 0 0 0 0 0 0 0 0 0
2 4 0 0 0 0 1 0 0 2 0 0 0 0 0 4 14 37 5 9 29 21 41 9 0 18 0 0 0 0 0 0 0 0 0 0 0 0 0 0 0 0 0 0 0
0 0 4 0 0 1 0 0 0 0 0 0 0 0 0 10 7 7 0 2 6 0 0 10 4 2 0 0 0 0 0 0 0 0 0 0 0 0 0 0 0 0 0 0 0
1 1 1 0 4 1 0 0 0 0 0 0 0 0 0 0 6 8 0 17 12 0 0 0 2 12 0 0 0 0 0 0 0 0 0 0 0 0 0 0 0 0 0 0 0
0 0 0 2 20 8 4 0 0 0 0 0 0 0 0 0 0 0 0 1 0 0 0 0 0 0 0 0 0 0 0 0 0 0 0 0 0 0 0 0 0 0 0 0 0
0 0 0 9 25 12 0 0 0 0 0 0 0 0 0 0 0 0 0 4 0 0 0 0 0 0 0 0 0 0 0 0 0 0 0 0 0 0 0 0 0 0 0 0 0
0 0 18 7 38 12 1 0 0 0 0 0 0 0 0 0 0 0 0 0 3 0 0 0 0 0 0 0 0 0 0 0 0 0 0 0 0 0 0 0 0 0 0 0 0
0 0 8 15 12 6 0 0 0 0 3 0 0 0 0 0 0 13 4 0 8 0 0 0 0 0 0 0 0 0 0 0 0 0 0 0 0 0 0 0 0 0 0 0 0
0 7 11 22 8 0 0 0 0 0 0 0 0 0 26 0 0 0 0 0 0 2 0 0 0 0 0 0 0 0 0 0 0 0 0 0 0 0 0 0 0 0 0 0 0
0 0 0 0 0 2 0 0 0 0 0 0 0 0 0 0 0 0 0 5 17 6 4 6 0 0 0 0 0 0 0 0 0 0 0 0 0 0 0 0 0 0 0 0 0
0 0 0 0 0 0 0 0 0 0 0 0 1 0 0 0 0 0 10 8 14 9 0 0 0 0 0 0 0 0 0 0 0 0 0 0 0 0 0 0 0 0 0 0 0
0 0 0 0 0 0 0 0 0 0 0 0 0 0 26 0 11 5 3 1 0 0 0 0 0 0 0 0 0 0 0 0 0 0 0 0 0 0 0 0 0 0 0 0 0
0 0 0 0 0 0 0 0 0 0 0 0 0 0 0 0 0 1 1 0 0 0 0 1 0 0 1 0 0 0 0 0 0 0 0 0 0 0 0 0 0 0 0 0 0

GFSSW_con_mucape_003.txt.gz
CAPE
1 3 8 7 4 2 13 30 87 92 95 50 51 44 36 40 28 8 0 0 0 18 293 8 4 0 0 0 0 0 0 0 0 0 0 0 0 0 0 0 0 0 0 0 0
1 5 7 13 11 12 19 74 124 156 104 76 44 49 37 43 0 0 0 0 0 31 54 0 0 4 0 0 0 0 0 0 0 0 0 0 0 0 0 0 0 0 0 0 0
10 9 12 29 41 63 68 93 138 147 145 112 73 70 75 28 0 0 0 0 0 17 35 0 18 41 10 0 0 0 0 0 0 0 0 0 0 0 0 0 0 0 0 0 0
12 10 15 8 10 47 90 116 189 158 177 139 116 104 98 30 0 0 0 0 0 20 55 88 27 10 2 0 0 0 0 0 0 0 0 0 0 0 0 0 0 0 0 0 0
5 16 2 0 0 12 70 143 292 305 242 200 164 147 63 19 0 0 0 0 0 14 38 76 28 0 0 0 0 0 0 0 0 0 0 0 0 0 0 0 0 0 0 0 0
17 27 37 21 15 28 38 123 329 390 334 259 226 226 52 0 0 0 0 0 0 0 47 102 5 0 0 0 0 0 0 0 0 0 0 0 0 0 0 0 0 0 0 0 0
31 30 40 20 49 53 51 103 273 380 368 272 256 84 52 0 0 0 4 0 0 0 78 84 12 35 3 8 1 0 0 0 0 0 0 0 0 0 0 0 0 0 0 0 0
41 42 37 27 39 49 83 113 233 437 435 353 333 86 20 0 0 0 1 1 0 1 105 159 62 29 17 23 16 3 6 0 0 0 0 0 0 0 0 0 0 0 0 0 0
23 38 71 84 44 31 46 103 192 329 420 381 131 77 27 0 0 0 2 0 4 0 73 68 76 23 43 41 22 18 0 0 0 0 0 0 0 0 0 0 0 0 0 0 0
0 0 59 66 84 68 54 92 107 136 193 105 111 88 30 0 0 0 9 5 26 0 81 112 39 20 11 25 0 0 0 0 0 0 0 0 0 0 0 0 0 0 0 0 0
1 1 0 1 74 109 68 30 0 46 43 15 50 20 0 1 0 3 15 6 34 29 29 60 8 0 0 5 2 2 0 0 0 0 0 0 0 0 0 0 0 0 0 0 0
1 1 1 14 58 52 7 0 5 4 33 35 26 8 33 77 75 5 23 0 0 0 75 72 0 0 2 6 6 15 0 0 0 0 0 0 0 0 0 0 0 0 0 0 0
1 0 7 57 33 19 0 0 33 12 8 12 1 26 50 68 48 51 13 28 0 0 47 9 0 3 0 7 27 15 1 0 0 0 0 0 0 0 0 0 0 0 0 0 0
4 1 0 0 0 29 0 0 44 65 2 0 42 56 18 38 64 93 6 49 2 0 33 27 3 7 12 0 19 9 10 6 0 0 0 0 0 0 0 0 0 0 0 0 0
10 7 1 1 0 0 0 1 46 70 0 3 81 136 100 40 35 0 44 110 0 0 44 1 5 14 4 7 4 11 19 0 0 0 0 0 0 0 0 0 0 0 0 0 0
4 3 3 0 0 0 5 48 22 4 1 23 78 32 77 55 27 20 6 2 4 12 24 2 14 28 0 0 12 16 0 0 0 0 0 0 0 0 0 0 0 0 0 0 0
9 4 11 0 0 0 0 33 5 5 1 0 0 25 0 0 12 9 1 41 1 0 0 2 0 12 0 1 26 0 0 0 0 0 0 0 0 0 0 0 0 0 0 0 0
0 5 28 6 1 0 0 0 0 0 0 1 0 2 0 4 0 27 10 2 0 0 0 0 0 1 0 2 0 0 0 0 0 0 0 0 0 0 0 0 0 0 0 0 0
0 0 0 4 5 0 0 0 1 0 0 0 2 0 0 0 0 0 5 0 0 0 0 0 0 0 0 0 0 0 0 0 0 0 0 0 0 0 0 0 0 0 0 0 0
0 0 13 40 6 1 0 0 0 0 0 0 0 0 0 0 0 7 0 0 0 0 0 0 0 0 0 0 0 0 0 0 0 0 0 0 0 0 0 0 0 0 0 0 0
0 0 2 26 71 0 0 0 0 0 0 0 0 2 0 0 2 17 3 0 5 0 0 0 0 0 0 0 0 0 0 0 0 0 0 0 0 0 0 0 0 0 0 0 0
0 0 10 26 27 4 0 0 0 0 20 4 0 0 0 0 7 7 0 0 0 1 0 0 0 0 0 0 0 0 0 0 0 0 0 0 0 0 0 0 0 0 0 0 0
0 5 27 25 2 15 0 0 0 0 0 0 0 0 1 0 0 0 1 0 0 0 9 0 0 0 0 0 0 0 0 0 0 0 0 0 0 0 0 0 0 0 0 0 0
0 0 0 5 4 4 0 0 0 2 0 0 11 6 35 0 19 0 0 0 0 4 39 24 0 0 0 0 0 0 0 0 0 0 0 0 0 0 0 0 0 0 0 0 0
0 0 0 0 0 7 0 0 0 0 0 0 0 0 0 0 13 0 0 3 6 13 25 21 0 0 0 0 0 0 0 0 0 0 0 0 0 0 0 0 0 0 0 0 0
0 0 0 0 0 0 0 0 0 0 0 0 0 0 0 0 0 0 2 9 0 0 0 0 0 0 0 0 0 0 0 0 0 0 0 0 0 0 0 0 0 0 0 0 0
0 0 0 0 0 0 0 3 0 0 0 0 0 0 0 0 1 14 26 33 29 31 21 1 0 0 0 0 0 0 0 0 0 0 0 0 0 0 0 0 0 0 0 0 0

GFSSW_con_mucape_006.txt.gz
CAPE
0 0 5 10 10 5 3 12 41 92 107 104 68 84 78 58 28 0 0 0 0 16 152 56 31 2 0 0 0 0 0 0 0 0 0 0 0 0 0 0 0 0 0 0 0
0 1 8 8 10 23 30 19 31 67 78 121 86 60 92 40 8 0 0 0 0 6 4 9 21 30 0 0 0 0 0 0 0 0 0 0 0 0 0 0 0 0 7 0 0
0 10 6 8 11 17 39 43 45 61 74 109 121 124 131 20 1 0 0 0 0 0 36 30 15 68 0 0 0 0 0 0 0 0 0 0 0 0 0 0 0 0 2 1 0
0 24 12 7 2 3 20 48 60 68 71 95 140 235 157 21 0 21 0 0 0 0 30 53 51 50 3 0 0 0 0 0 0 0 0 0 0 0 0 0 0 0 0 0 0
0 14 19 7 7 2 0 18 31 82 99 151 203 231 75 19 0 0 0 0 0 0 32 40 32 18 0 0 0 0 0 0 0 0 0 0 0 0 0 0 0 0 0 0 0
0 31 13 17 19 4 6 0 9 66 89 270 384 334 41 0 0 0 3 0 1 0 7 59 14 0 7 1 0 0 0 0 0 0 0 0 0 0 0 0 0 0 0 0 0
0 2 1 13 6 24 28 14 6 73 138 268 427 142 31 0 0 0 0 1 0 2 0 36 49 19 9 17 0 9 0 0 0 0 0 0 0 0 0 0 0 0 0 0 0
0 44 33 29 16 19 16 40 32 103 127 317 398 80 0 0 0 0 0 0 0 1 0 84 156 24 33 22 20 21 10 0 0 0 0 0 0 0 0 0 0 0 0 0 0
9 4 1 53 57 65 34 45 79 79 131 274 117 17 22 0 0 0 0 0 7 0 20 82 71 36 38 25 5 20 0 0 0 0 0 0 0 0 0 0 0 0 0 0 0
5 4 5 0 40 60 67 24 62 45 59 49 81 12 0 0 0 0 0 9 30 1 3 134 58 41 26 43 0 0 0 0 0 0 0 0 0 0 0 0 0 0 0 0 0
13 6 1 0 0 73 62 0 0 0 20 1 0 1 1 0 2 0 0 23 28 0 0 89 74 7 0 0 0 15 0 0 0 0 0 0 0 0 0 0 0 0 0 0 0
16 3 1 0 21 72 0 0 0 4 0 0 28 23 27 51 77 7 4 12 0 0 0 144 0 0 9 3 4 26 21 1 0 0 0 0 0 0 0 0 0 0 0 0 0
5 3 1 0 63 49 3 0 32 35 0 0 0 37 19 38 45 10 10 18 0 0 0 20 12 4 0 0 2 1 12 0 0 0 0 0 0 0 0 0 0 0 0 0 0
3 5 0 0 0 0 0 0 45 4 0 0 6 3 35 33 30 30 5 21 0 0 0 38 4 6 0 2 5 7 1 14 12 6 0 0 0 0 0 0 0 0 0 0 0
20 3 1 0 0 0 0 0 0 1 0 0 7 7 34 1 28 61 1 12 0 0 0 11 11 9 5 5 0 0 4 33 28 7 0 0 0 0 0 0 0 0 0 0 0
3 3 3 0 0 6 1 2 0 0 0 0 44 7 13 1 60 71 71 67 22 0 0 8 13 23 9 12 0 0 20 8 20 1 0 0 0 0 0 0 0 0 0 0 0
0 0 9 0 0 13 0 0 0 2 0 0 11 17 28 0 65 18 0 0 1 0 0 0 8 5 0 6 25 14 5 4 0 0 0 0 0 0 0 0 0 0 0 0 0
2 15 0 0 28 0 0 0 0 0 0 0 33 0 0 29 0 0 1 0 6 0 0 0 0 24 14 0 0 38 0 0 0 0 0 0 0 0 0 0 0 0 0 0 0
9 0 0 0 1 0 0 0 4 0 0 0 20 0 0 8 24 36 0 0 0 0 0 0 0 0 0 0 1 6 0 0 0 0 0 0 0 0 0 0 0 0 0 0 0
0 0 0 2 5 0 0 0 18 15 0 0 0 0 0 0 3 0 0 0 3 0 0 0 0 0 0 4 5 0 0 0 0 0 0 0 0 0 0 0 0 0 0 0 0
0 0 0 10 0 0 0 0 5 0 0 0 12 0 0 0 0 0 0 0 2 0 0 0 0 0 17 0 0 0 0 0 0 0 0 0 0 0 0 0 0 0 0 0 0
0 0 5 7 0 0 0 0 0 0 32 19 0 0 0 0 0 2 0 0 0 0 0 0 0 0 0 0 0 0 0 0 0 0 0 0 0 0 0 0 0 0 0 0 0
0 18 4 3 3 0 0 0 0 0 1 22 0 0 0 0 0 0 0 0 0 0 0 0 0 0 0 0 0 0 0 0 0 0 0 0 0 0 0 0 0 0 0 0 0
4 7 8 13 2 0 0 0 0 0 0 0 0 0 0 0 0 4 0 1 0 0 13 0 0 0 0 0 0 0 0 0 0 0 0 0 0 0 0 0 0 0 0 0 0
0 1 17 0 0 1 0 0 0 0 0 0 0 0 0 17 0 0 0 0 0 0 2 13 0 2 0 0 0 0 0 0 0 0 0 0 0 0 0 0 0 0 0 0 0
0 0 3 0 0 0 0 0 0 0 0 0 0 0 24 8 0 0 0 0 0 0 28 9 7 0 0 0 0 0 0 0 0 0 0 0 0 0 0 0 0 0 0 0 0
0 0 0 0 0 0 0 0 0 0 0 0 0 2 3 7 1 6 0 0 0 0 0 4 0 0 0 0 0 0 0 0 0 0 0 0 0 0 0 0 0 0 0 0 0

GFSSW_con_mucape_009.txt.gz
CAPE
0 0 0 0 6 10 3 0 0 16 64 71 100 99 109 79 23 0 0 0 0 41 46 6 24 15 0 0 0 0 0 0 0 0 0 0 0 0 0 0 2 10 8 2 0
0 0 0 0 1 12 15 13 0 6 22 73 45 87 79 56 1 0 0 0 0 0 0 13 26 43 0 0 0 0 0 0 0 0 0 0 0 0 0 0 0 0 0 4 11
0 0 0 0 3 10 14 19 25 18 25 46 63 96 100 25 1 0 0 0 0 0 0 95 21 44 19 0 0 0 0 0 0 0 0 0 0 0 0 0 0 0 0 5 0
0 0 0 0 11 16 9 8 23 41 36 51 74 90 77 0 0 3 0 0 4 1 0 30 50 46 37 0 0 0 0 0 0 0 0 0 0 0 0 0 0 0 0 0 0
0 0 0 0 27 13 17 0 4 25 51 64 75 97 19 27 0 2 17 0 0 10 0 21 61 60 24 0 0 0 0 0 0 0 0 0 0 0 0 0 0 0 0 0 0
0 0 0 0 9 43 24 0 0 17 60 71 95 99 1 8 0 0 0 6 0 10 0 8 49 48 29 3 1 0 0 0 0 0 0 0 0 0 0 0 0 0 0 0 0
0 0 0 0 31 32 21 22 3 2 52 81 83 37 30 0 0 0 0 0 1 1 0 0 58 33 24 27 0 0 0 0 0 0 0 0 0 0 0 0 0 0 0 0 0
10 0 3 4 49 37 27 28 32 27 18 77 92 38 3 0 0 0 0 0 4 0 2 7 77 56 50 39 25 17 19 0 0 0 0 0 0 0 0 0 0 0 0 0 0
1 0 4 13 7 69 72 28 38 62 64 60 21 40 9 2 7 0 0 0 15 33 0 33 36 85 46 47 0 11 0 0 0 0 0 0 0 0 0 0 0 0 0 0 0
4 1 7 13 12 6 71 58 11 25 27 26 21 10 2 3 7 1 0 0 55 83 89 80 66 78 12 0 0 7 0 0 0 0 0 0 0 0 0 0 0 0 0 0 0
2 6 3 1 1 2 52 0 0 0 0 0 0 0 19 14 34 2 0 0 43 86 0 0 68 52 0 8 14 2 0 0 0 0 0 0 0 0 0 0 0 0 0 0 0
0 3 7 4 0 0 54 0 0 0 0 0 0 1 8 62 164 31 0 0 9 15 0 1 33 43 14 21 10 0 0 0 0 0 0 0 0 0 0 0 0 0 0 0 0
0 0 10 1 0 14 0 0 2 0 0 0 0 9 37 0 47 62 0 0 66 8 0 0 30 31 65 4 6 0 0 1 0 1 0 0 0 0 0 0 0 0 0 0 0
16 0 0 4 0 0 0 0 0 0 0 0 0 1 45 120 27 25 0 3 68 0 0 0 49 19 52 0 1 0 0 0 2 1 0 0 0 0 0 0 0 0 0 0 0
36 62 2 0 0 0 0 0 0 0 0 0 0 15 26 6 11 20 0 48 26 0 0 19 61 0 0 1 0 0 2 1 10 11 8 0 0 0 0 0 0 0 0 0 0
19 47 57 0 0 0 16 0 0 0 0 0 0 23 24 32 65 68 1 41 47 0 0 24 37 36 4 2 1 0 5 0 8 20 0 0 0 0 0 0 0 0 0 0 0
24 50 48 36 0 19 0 0 0 0 0 0 0 29 2 0 11 16 10 0 2 0 6 23 51 22 54 15 0 2 0 0 0 0 0 0 0 0 0 0 0 0 0 0 0
18 36 27 0 45 0 0 0 0 0 0 0 6 12 20 0 31 42 0 0 0 0 10 1 82 6 0 6 2 36 0 0 0 0 0 0 0 0 0 0 0 0 0 0 0
1 0 0 0 0 0 0 0 0 0 0 0 4 0 0 0 58 14 0 1 0 0 2 1 0 22 0 0 0 19 0 0 0 0 0 0 0 0 0 0 0 0 0 0 0
4 0 0 1 4 0 0 0 0 0 0 0 0 0 0 0 16 0 0 0 0 0 0 0 0 0 0 11 4 0 0 7 0 0 0 0 0 0 0 0 0 0 0 0 0
0 1 2 5 0 0 0 0 0 3 0 0 0 0 6 0 12 0 0 0 0 0 0 0 0 0 0 0 1 0 3 0 0 0 0 0 0 0 0 0 0 0 0 0 0
0 0 2 0 0 0 0 0 0 1 0 18 0 0 0 0 0 0 0 0 0 0 0 0 0 0 0 0 0 0 0 0 0 0 0 0 0 0 0 0 0 0 0 0 0
1 5 4 0 0 0 0 0 0 0 0 43 2 0 0 0 0 36 0 0 0 0 0 0 0 0 0 0 0 0 0 3 0 0 0 0 0 0 0 0 0 0 0 0 0
0 4 11 3 0 0 0 0 0 0 6 20 0 0 0 0 3 0 1 0 0 0 0 0 2 1 1 2 0 0 0 0 0 0 0 0 0 0 0 0 0 0 0 0 0
0 1 1 0 0 0 0 0 0 0 0 4 0 0 0 0 0 0 0 0 0 0 0 0 0 0 0 0 0 0 0 0 1 0 0 0 0 0 0 0 0 0 0 0 0
0 0 0 0 0 0 0 0 0 0 0 0 0 0 15 0 0 1 3 0 0 0 0 0 0 0 0 0 0 0 0 0 0 0 0 0 0 0 0 0 0 0 0 0 0
0 0 0 3 0 0 0 0 0 0 0 0 0 0 4 16 12 0 0 0 0 0 0 24 0 0 2 7 0 0 0 0 0 0 0 0 0 0 0 0 0 0 0 0 0

GFSSW_con_mucape_012.txt.gz
CAPE
0 0 0 0 0 0 0 0 1 4 23 36 76 58 72 66 39 16 3 0 0 0 6 0 78 186 80 1 0 0 0 0 0 0 0 0 0 0 0 0 0 0 1 1 0
0 0 0 0 0 0 0 1 2 1 2 12 7 35 57 52 38 4 0 0 0 0 4 6 106 214 101 0 0 0 0 0 0 0 0 0 0 0 0 0 0 0 3 4 0
0 0 0 0 0 0 11 7 14 13 7 0 18 29 70 41 4 0 0 15 40 17 0 1 103 140 110 12 3 0 0 0 0 0 0 0 0 0 0 0 0 0 0 1 0
0 0 0 0 0 0 0 6 9 29 34 33 38 47 82 18 0 47 4 0 8 26 18 0 26 52 120 53 4 0 0 0 0 0 0 0 0 0 0 0 0 0 0 0 0
0 0 0 0 0 0 0 0 0 22 33 38 53 63 56 23 5 22 11 1 0 5 12 0 66 52 87 84 34 0 0 0 0 0 0 0 0 0 0 0 0 0 0 0 0
0 0 0 0 0 0 0 0 5 0 38 56 59 75 20 0 1 0 0 0 0 1 17 5 50 38 98 141 67 2 1 0 0 0 0 0 0 0 0 0 0 0 0 0 0
18 0 0 0 0 1 0 7 24 28 32 55 65 52 33 0 0 0 0 0 0 0 3 9 28 113 41 114 77 39 15 7 0 0 0 0 0 0 0 0 0 0 0 0 0
13 0 0 0 0 8 2 5 41 74 27 52 51 46 0 0 0 0 0 0 0 0 0 3 22 58 55 80 70 64 61 57 0 1 0 0 0 0 0 0 0 0 0 0 0
12 0 0 0 1 2 1 59 59 79 71 57 32 34 0 0 0 0 0 0 0 0 0 0 33 47 150 40 67 100 46 34 11 1 0 0 0 0 0 0 0 0 0 0 0
17 0 0 0 0 2 7 39 71 29 14 40 44 4 0 0 0 0 0 0 0 175 47 104 10 125 217 41 35 16 37 15 22 0 0 0 0 0 0 0 0 0 0 0 0
27 49 0 0 3 1 0 0 0 0 0 0 0 0 0 0 0 3 4 6 21 171 89 105 39 1 53 69 0 0 0 18 7 0 0 0 0 0 0 0 0 0 0 0 0
21 55 0 0 11 8 0 0 0 2 0 0 0 0 19 2 56 35 42 1 14 1 5 50 9 0 27 46 9 26 0 3 10 0 0 0 0 0 0 0 0 0 0 0 0
18 48 52 22 4 2 0 0 7 0 0 0 0 0 0 5 31 115 81 2 0 0 8 11 0 3 19 40 24 0 0 1 5 0 3 0 0 0 0 0 0 0 0 0 0
35 56 65 58 0 0 0 0 0 0 0 0 0 0 7 65 28 19 76 2 78 2 0 1 8 2 19 24 32 4 10 1 5 31 28 0 0 0 0 0 0 0 0 0 0
0 70 69 50 33 6 0 0 0 0 0 0 0 1 0 21 68 39 131 2 32 1 0 1 2 48 18 57 2 11 22 13 25 9 0 2 0 0 0 0 0 0 0 0 0
0 49 62 56 62 10 1 0 0 0 0 0 0 0 0 35 8 135 154 20 76 64 0 0 17 3 60 1 12 23 1 0 3 0 0 1 0 0 0 0 0 0 0 0 0
1 17 38 23 2 50 6 0 0 0 0 0 0 0 0 13 28 54 59 15 0 31 0 5 2 33 78 16 0 31 12 32 0 0 1 0 0 0 0 0 0 0 0 0 0
4 0 4 22 44 78 0 0 0 0 0 0 0 0 18 29 3 81 37 0 0 0 0 1 39 64 56 5 1 0 32 13 0 0 0 0 0 0 0 0 0 0 0 0 0
4 6 8 1 50 0 0 0 0 0 0 0 0 20 0 17 0 55 0 5 0 0 0 27 39 63 12 1 1 7 0 0 0 0 0 0 0 0 0 0 0 0 0 0 0
0 1 0 0 1 0 0 0 0 0 0 0 0 0 0 0 0 12 0 3 0 0 0 31 75 6 45 3 4 4 1 0 0 0 0 0 0 0 0 0 0 0 0 0 0
0 0 0 8 0 0 0 0 0 0 0 0 0 0 0 0 0 0 1 0 0 0 0 0 6 2 5 3 8 1 0 0 0 0 0 0 0 0 0 0 0 0 0 0 0
0 0 12 13 0 0 0 0 0 0 0 0 9 0 0 0 0 0 0 0 0 0 0 0 3 28 0 2 0 0 0 0 0 0 0 0 0 0 0 0 0 0 0 0 0
0 10 13 5 0 0 0 0 0 0 0 0 14 5 0 1 0 0 1 0 0 0 0 0 0 0 7 0 0 3 1 0 0 0 0 0 0 0 0 0 0 0 0 0 0
0 0 6 1 0 0 0 0 0 0 0 9 23 30 0 0 4 0 28 0 0 0 0 0 0 0 0 0 0 0 1 1 0 0 0 0 0 0 0 0 0 0 0 0 0
0 0 15 0 0 0 0 0 0 0 0 30 17 0 0 0 4 22 13 0 0 0 0 0 0 0 0 0 0 0 0 0 0 0 0 0 0 0 0 0 0 0 0 0 0
0 0 0 0 0 0 0 0 0 0 0 0 0 0 0 0 0 4 4 0 0 0 0 0 1 1 0 0 0 0 0 0 0 0 0 0 0 0 0 0 0 0 0 0 0
0 0 0 0 0 0 0 0 0 0 0 0 0 0 0 9 0 2 1 0 0 0 0 0 0 1 1 1 0 0 0 0 0 0 0 0 0 0 0 0 0 0 0 0 0

GFSSW_con_mucape_015.txt.gz
CAPE
0 0 0 0 0 0 0 0 0 0 11 4 22 55 73 71 22 10 1 0 0 0 0 0 0 70 143 111 3 0 2 2 0 0 0 0 0 0 0 0 0 0 0 0 0
2 0 0 0 0 0 0 0 0 0 0 2 9 18 66 58 46 41 3 0 0 0 0 0 0 5 236 104 44 0 1 0 0 0 2 1 0 0 0 0 0 0 0 0 0
4 0 0 0 0 0 0 0 0 0 0 0 4 22 10 9 24 12 23 8 19 11 0 0 1 67 61 186 56 24 0 0 0 3 0 0 0 0 0 0 0 0 0 0 0
4 0 0 0 0 0 0 0 0 0 12 13 19 31 72 35 0 70 13 0 1 7 3 0 0 4 28 101 73 46 7 0 6 6 0 0 0 0 0 0 0 0 0 0 0
5 0 0 0 0 0 0 0 0 0 1 31 45 51 60 0 0 40 4 0 0 8 11 2 0 0 13 23 127 40 21 4 1 3 0 0 0 0 0 0 0 0 0 0 0
5 8 0 0 0 0 0 0 0 0 0 7 69 77 50 0 1 9 24 0 0 1 13 39 3 0 10 11 56 40 50 19 20 5 0 0 0 0 0 0 0 0 0 0 0
3 15 8 0 0 0 0 0 0 0 0 0 63 59 8 0 0 0 0 0 0 0 25 20 33 47 36 25 17 60 69 18 19 26 0 1 0 0 0 0 0 0 0 0 0
1 4 35 0 0 0 0 0 0 0 0 0 23 56 0 0 0 0 0 0 0 0 0 18 58 23 43 84 31 54 104 35 20 20 0 1 0 0 0 0 0 0 0 0 0
7 8 39 1 0 0 3 0 23 5 13 6 4 45 0 0 0 0 0 0 3 0 0 10 57 44 59 82 92 73 49 28 54 27 1 9 0 0 0 0 0 0 0 0 0
46 29 35 52 0 2 6 4 56 39 5 35 30 0 0 0 0 0 0 0 8 5 6 31 66 45 45 148 66 41 31 22 26 17 0 3 0 0 0 0 0 0 0 0 0
51 33 33 31 52 0 5 5 0 0 0 0 0 0 0 0 0 0 0 5 6 24 57 31 98 50 9 0 8 42 95 59 30 19 21 4 0 0 0 0 0 0 0 0 0
55 37 48 38 58 11 4 3 1 0 0 0 0 0 0 0 0 0 3 12 14 3 40 237 207 79 2 0 54 109 109 106 33 28 0 0 1 0 0 0 0 0 0 0 0
56 37 44 43 45 0 0 6 2 1 0 0 0 0 0 0 0 0 17 20 21 44 62 227 114 108 43 24 93 65 71 38 18 7 0 2 1 0 0 0 0 0 0 0 0
51 24 48 57 2 1 31 9 1 0 0 0 0 0 0 0 0 12 70 61 47 37 42 66 87 115 108 27 25 133 74 45 26 20 10 12 0 0 0 0 0 0 0 0 0
46 1 0 7 43 53 13 10 1 0 0 0 0 0 0 0 0 9 0 122 61 45 0 24 21 45 88 32 101 17 54 33 39 47 16 8 10 0 0 0 0 0 0 0 0
47 37 3 0 27 34 11 14 0 0 0 0 0 0 0 0 0 44 20 79 66 43 21 0 0 8 25 54 0 23 90 73 35 0 4 1 9 0 0 0 0 0 0 0 0
53 16 8 2 12 34 12 0 0 0 0 0 0 0 0 0 0 51 29 59 87 9 0 0 32 0 42 65 0 2 38 25 1 0 0 3 13 5 0 0 0 0 0 0 0
15 10 11 2 32 36 1 0 0 0 0 0 0 0 0 0 17 33 37 51 47 0 2 1 46 0 24 19 0 1 3 11 0 0 2 0 0 0 0 0 0 0 0 0 0
13 45 6 10 24 5 0 0 0 0 0 0 0 0 71 16 24 33 3 42 17 0 0 0 8 8 46 0 0 44 38 22 2 0 29 0 0 0 0 0 0 0 0 0 0
3 0 0 4 31 7 0 0 0 0 0 0 0 8 0 7 0 7 69 0 0 6 1 19 2 0 20 9 0 3 32 11 3 0 0 5 0 0 0 0 0 0 0 0 0
2 0 1 4 31 1 0 0 0 0 0 0 0 0 13 0 0 0 0 0 0 0 0 0 0 4 3 29 0 3 6 3 6 0 26 53 1 0 0 0 0 0 0 0 0
2 0 0 10 2 0 0 0 0 0 0 0 0 22 0 0 0 0 0 0 0 0 0 0 0 2 35 0 0 0 0 4 15 0 0 0 0 0 0 0 0 0 0 0 0
1 1 5 23 0 0 0 0 0 0 0 0 2 15 0 0 0 0 0 0 0 0 0 0 0 1 19 0 3 0 0 15 6 15 3 0 1 0 0 0 0 0 0 0 0
1 2 0 3 0 0 0 0 0 0 0 7 9 8 0 0 2 0 0 0 0 0 17 0 0 1 0 0 3 3 6 0 4 0 0 2 3 0 0 0 0 0 0 0 0
1 0 0 0 0 0 0 0 0 0 0 0 30 0 0 0 0 0 1 0 0 0 0 0 0 0 0 1 0 0 2 0 0 0 0 0 0 0 0 0 0 0 0 0 0
3 0 0 16 22 0 0 0 0 0 0 34 0 32 0 1 0 5 0 0 0 0 0 0 0 0 0 0 0 0 0 0 0 0 0 0 0 0 0 0 0 0 0 0 0
0 0 0 0 32 0 0 0 0 0 0 0 31 13 23 3 0 48 14 19 12 0 0 2 0 0 0 0 0 0 0 0 0 0 0 0 0 0 0 0 0 0 0 0 0

GFSSW_con_mucape_018.txt.gz
CAPE
1 1 4 0 0 0 0 0 0 0 0 23 11 11 26 28 30 1 0 0 0 0 0 0 0 0 8 81 108 21 0 0 0 0 0 0 0 0 0 0 0 0 0 0 0
2 5 0 0 0 0 0 0 0 1 0 0 22 12 9 7 9 28 0 13 13 0 0 0 0 0 0 93 71 5 0 0 0 0 0 0 0 0 0 0 0 0 0 0 0
1 5 0 0 0 0 0 0 0 0 4 0 0 1 12 6 7 0 16 10 43 22 0 0 0 0 15 31 51 16 0 0 0 0 0 3 0 0 0 0 0 0 0 0 0
3 1 0 0 0 0 0 0 0 0 5 10 7 6 45 5 0 15 5 0 0 17 9 0 0 0 28 12 25 38 15 0 0 0 10 1 0 0 0 0 0 0 0 0 0
2 4 3 0 0 0 0 0 0 0 9 33 25 19 0 0 0 11 0 0 0 0 5 3 6 0 1 11 23 36 34 13 1 0 1 4 0 0 0 0 0 0 0 0 0
1 5 7 0 0 0 0 0 0 0 0 28 50 52 1 0 0 4 18 2 0 9 37 48 24 3 1 7 4 27 35 37 20 2 2 0 0 0 0 0 0 0 0 0 0
1 6 25 1 1 0 0 0 0 0 0 22 57 21 0 0 0 0 6 0 0 0 0 24 13 49 22 9 11 10 50 68 5 5 11 5 0 0 0 0 0 0 0 0 0
9 19 27 50 12 0 0 0 0 0 42 40 54 48 0 0 0 0 0 0 0 0 0 0 15 26 27 19 47 49 29 7 0 10 6 7 0 0 0 0 0 0 0 0 0
23 48 44 67 52 38 0 0 4 0 18 41 12 0 0 0 0 0 0 0 0 0 0 0 2 35 34 41 13 41 0 0 0 3 12 10 0 0 0 0 0 0 0 0 0
60 54 58 72 72 62 0 0 5 6 13 0 0 0 0 0 0 0 0 4 2 6 9 3 16 36 42 5 0 0 21 0 0 0 11 5 1 0 0 0 0 0 0 0 0
51 51 50 76 74 60 15 0 0 0 0 0 0 0 0 0 0 0 0 0 4 0 0 0 0 0 0 0 0 0 3 47 0 24 15 3 0 0 0 0 0 0 0 0 0
61 39 54 75 89 71 38 0 0 15 0 6 0 0 0 0 0 0 0 0 0 0 0 0 0 0 0 2 3 14 17 17 24 29 19 1 0 0 0 0 0 0 0 0 0
64 42 65 73 53 49 20 0 8 4 0 0 0 0 0 0 0 0 0 0 0 0 0 0 0 0 2 1 26 5 36 4 19 35 23 14 0 0 0 0 0 0 0 0 0
66 60 67 1 0 0 0 4 7 9 0 0 0 0 0 0 0 0 0 0 0 0 0 0 0 0 25 22 27 25 3 5 136 104 20 0 0 0 0 0 0 0 0 0 0
67 67 21 4 0 0 3 5 21 12 0 0 0 0 0 0 0 0 0 0 0 0 0 0 0 2 93 66 52 5 97 5 33 7 56 13 2 0 0 0 0 0 0 0 0
67 37 15 7 12 0 3 8 10 0 0 0 0 0 0 0 0 0 0 26 11 9 28 2 32 47 21 54 0 0 62 33 79 9 23 21 1 0 0 0 0 0 0 0 0
68 13 14 14 0 0 5 4 0 0 0 0 0 0 0 0 0 0 0 0 0 0 0 10 2 0 8 73 20 46 38 16 98 72 1 0 2 0 0 0 0 0 0 0 0
53 16 15 15 4 0 1 0 0 0 0 0 0 0 0 0 0 0 0 0 22 9 0 0 0 0 0 0 44 6 0 5 0 0 1 9 0 0 0 0 0 0 0 0 0
56 16 14 9 5 0 0 0 0 0 0 0 0 0 0 0 1 9 30 7 0 3 0 0 0 7 2 34 54 0 0 0 15 0 0 0 0 0 0 0 0 0 0 0 0
64 19 9 9 6 0 0 0 0 0 0 0 0 0 0 0 0 13 7 0 0 10 0 0 0 1 21 0 0 17 0 9 36 10 7 7 0 0 0 0 0 0 0 0 0
36 21 15 1 0 0 0 0 0 0 0 0 0 0 0 0 0 0 0 0 3 0 0 0 5 68 65 0 0 0 13 4 14 9 34 0 2 0 0 0 0 0 0 0 0
35 25 10 0 0 0 0 0 0 0 0 0 0 0 0 0 0 0 0 6 9 0 8 0 8 49 25 1 0 0 2 2 23 9 6 14 0 0 0 0 0 0 0 0 0
19 12 10 4 0 0 0 0 0 0 0 0 0 0 10 0 0 0 0 20 2 0 0 0 0 0 1 0 22 0 0 14 15 0 18 18 0 0 0 0 0 0 0 0 0
13 17 15 4 0 0 0 0 0 0 0 0 0 13 0 0 0 0 0 6 2 0 75 0 4 5 25 0 0 0 0 0 0 0 6 1 0 0 0 0 0 0 0 0 0
21 13 6 4 0 0 0 0 0 0 0 0 2 0 0 0 0 0 0 0 0 0 0 0 3 8 0 5 0 0 0 1 0 0 0 0 0 0 0 0 0 0 0 0 0
9 4 7 0 0 6 0 0 0 0 0 0 0 17 16 0 0 0 0 0 0 0 0 0 0 0 0 0 0 7 0 0 0 0 0 0 0 1 0 0 0 0 0 0 0
6 2 4 0 0 0 0 0 0 0 0 0 0 0 31 1 13 21 8 10 2 0 0 0 0 0 0 0 0 0 3 8 0 0 0 0 0 8 0 0 0 0 0 0 0

GFSSW_con_mucape_021.txt.gz
CAPE
2 1 0 4 0 0 0 0 0 0 0 2 27 34 56 32 28 0 0 0 0 0 0 0 0 0 0 0 28 40 2 0 0 0 0 0 0 0 0 0 0 0 0 0 0
2 3 2 3 0 0 0 0 0 0 0 0 11 19 18 22 9 2 0 0 15 2 0 0 0 0 0 1 54 55 0 0 0 0 0 0 0 0 0 0 0 0 0 0 0
1 3 4 0 0 0 0 0 0 0 0 1 0 5 48 16 3 0 0 4 47 24 0 0 0 0 0 0 28 24 3 0 0 0 0 0 0 0 0 0 0 0 0 0 0
1 5 6 0 0 0 0 0 0 0 0 0 0 0 53 25 0 0 0 0 2 52 32 3 0 0 2 10 0 26 21 1 0 0 0 0 0 0 0 0 0 0 0 0 0
0 2 8 6 0 0 0 0 0 0 0 0 3 35 21 0 0 0 0 0 0 0 20 21 7 0 0 0 0 5 0 12 1 0 0 0 0 0 0 0 0 0 0 0 0
15 1 8 10 1 0 0 0 0 0 0 0 12 46 0 0 0 0 0 0 0 0 6 29 10 10 0 0 7 1 12 0 0 8 0 0 0 0 0 0 0 0 0 0 0
43 18 18 19 2 2 1 0 0 0 0 0 0 1 0 0 0 0 1 0 0 0 0 10 32 65 20 0 0 0 0 1 0 3 11 1 0 0 0 0 0 0 0 0 0
49 41 18 24 21 6 23 0 0 0 0 0 0 0 0 0 0 0 0 0 0 0 0 0 7 4 7 11 0 0 15 0 0 2 3 31 1 0 0 0 0 0 0 0 0
65 50 38 35 56 52 28 4 0 0 0 0 0 0 0 0 0 0 0 0 0 0 0 0 0 3 0 0 0 0 0 0 0 0 10 31 1 0 0 0 0 0 0 0 0
80 66 51 48 60 60 32 0 0 0 0 0 1 0 0 0 0 0 0 0 0 0 0 0 0 0 0 0 0 0 0 0 0 0 2 7 6 0 0 0 0 0 0 0 0
87 72 65 47 53 60 0 0 0 0 0 0 0 0 0 0 0 0 0 0 0 0 0 0 0 0 0 0 0 0 0 0 0 10 13 0 0 0 0 0 0 0 0 0 0
86 82 93 53 67 63 1 0 0 3 0 0 0 0 1 2 0 0 0 0 0 0 0 0 0 0 0 0 9 0 0 0 0 0 28 8 12 0 0 0 0 0 0 0 0
82 82 82 56 69 15 0 0 0 13 0 0 0 0 0 0 0 0 0 0 0 0 0 0 0 0 0 0 0 0 0 0 0 0 5 15 0 0 0 0 0 0 0 0 0
98 90 76 47 0 0 0 0 0 16 0 0 0 0 0 0 0 0 1 0 0 0 0 0 0 0 0 0 0 0 0 0 0 33 13 46 14 0 0 0 0 0 0 0 0
123 100 70 11 1 0 0 0 27 42 0 0 0 0 0 0 0 0 0 0 0 0 0 0 0 0 0 0 0 0 0 0 7 8 0 33 35 0 0 0 0 0 0 0 0
106 110 40 14 9 1 2 0 20 0 0 0 0 0 0 0 0 0 0 0 0 0 0 0 0 0 0 0 5 0 0 0 25 55 34 1 32 0 0 0 0 0 0 0 0
90 72 47 45 14 11 2 0 0 0 0 0 0 0 0 0 0 0 0 0 0 0 0 0 0 0 5 15 14 33 0 0 23 21 0 0 0 0 0 0 0 0 0 0 0
134 71 37 19 35 19 5 0 0 0 0 0 0 0 0 0 0 0 0 0 0 3 0 0 0 0 0 0 20 3 0 0 0 0 1 1 15 0 0 0 0 0 0 0 0
105 76 46 18 16 9 0 0 0 0 0 0 0 0 0 0 0 0 0 25 0 0 0 0 0 2 0 0 1 0 7 0 9 1 12 1 6 0 0 0 0 0 0 0 0
108 76 60 31 30 8 0 0 0 0 0 0 0 0 0 0 0 0 0 0 0 0 0 0 0 0 1 17 0 88 38 0 0 24 9 0 1 5 0 0 0 0 0 0 0
38 68 10 29 28 3 0 0 0 0 0 0 0 0 0 0 0 0 0 0 0 0 0 0 0 27 1 27 0 6 7 0 0 2 24 23 12 1 0 0 0 0 0 0 0
10 128 6 45 6 3 0 0 0 0 0 0 0 0 0 0 0 0 0 0 0 11 0 0 0 30 37 54 17 6 0 0 19 21 9 0 4 0 0 0 0 0 0 0 0
12 23 4 12 3 0 0 0 0 0 0 0 0 0 0 0 0 0 0 0 0 0 0 0 15 0 1 9 7 0 0 2 0 19 16 1 0 3 0 0 0 0 0 0 0
22 2 17 0 1 1 0 0 0 0 0 0 0 0 0 0 0 0 0 0 0 0 0 0 11 9 0 0 1 0 0 0 15 14 3 1 0 1 0 0 0 0 0 0 0
1 4 2 1 0 0 0 0 0 0 0 0 0 0 0 0 0 0 0 0 0 0 0 0 1 1 0 0 0 0 0 8 18 18 5 1 8 4 0 0 0 0 0 0 0
7 11 0 0 0 0 0 0 0 0 0 0 0 0 0 0 0 0 0 0 0 0 0 0 0 1 0 0 0 0 0 0 1 0 0 0 1 3 0 0 0 0 0 0 0
3 2 6 5 0 0 0 0 0 0 0 0 0 0 0 1 5 3 4 0 0 0 0 0 0 0 0 1 3 0 2 0 0 3 7 3 1 0 0 0 0 0 0 0 0

GFSSW_con_mucape_024.txt.gz
CAPE
0 3 5 12 6 2 0 0 0 0 0 3 10 36 60 62 49 3 0 0 0 0 0 0 0 0 0 0 0 2 3 0 0 0 0 0 0 0 0 0 0 0 0 0 0
0 3 8 8 10 0 0 0 0 0 0 0 7 7 40 37 34 2 0 19 27 3 0 0 0 0 0 0 0 16 8 0 0 0 0 0 0 0 0 0 0 0 0 0 0
2 2 6 10 1 0 0 0 0 0 0 0 0 16 39 19 3 0 1 31 74 18 0 0 0 0 0 0 0 10 6 0 0 0 0 0 0 0 0 0 0 0 0 0 0
12 3 5 9 2 0 0 0 0 0 0 0 0 0 23 0 0 0 0 1 46 50 39 1 0 0 0 0 0 0 0 1 18 1 0 0 0 0 0 0 0 0 0 0 0
21 1 6 8 3 0 0 0 0 0 0 0 0 24 0 0 0 0 0 0 0 30 32 19 0 0 0 0 0 0 0 0 1 9 1 0 0 0 0 0 0 0 0 0 0
51 20 9 7 10 0 0 0 0 0 0 0 0 7 0 0 0 0 0 0 0 4 36 18 0 0 0 0 0 0 0 0 0 0 2 2 0 0 0 0 0 0 0 0 0
82 60 33 22 16 2 0 0 0 0 0 0 0 0 0 0 0 0 0 0 0 4 1 11 15 26 0 0 0 0 0 0 0 0 0 0 0 0 0 0 0 0 0 0 0
106 98 60 44 17 15 27 8 0 0 0 0 0 0 0 0 0 0 0 0 0 0 0 0 3 0 0 8 0 0 0 0 0 0 0 0 0 0 0 0 0 0 0 0 0
118 102 75 54 60 65 56 13 0 0 0 0 0 0 0 0 0 0 0 0 0 0 0 9 11 0 0 0 0 0 0 0 0 0 0 0 0 0 0 0 0 0 0 0 0
115 102 98 63 66 70 58 13 0 0 0 0 0 0 0 0 0 0 0 0 0 0 0 0 0 0 0 0 0 0 0 0 0 0 0 0 0 0 0 0 0 0 0 0 0
102 85 83 81 74 73 9 0 0 0 0 0 0 0 0 0 0 0 0 0 0 0 0 0 0 0 0 0 0 0 0 0 0 0 0 0 0 0 0 0 0 0 0 0 0
105 120 94 99 95 67 0 0 0 0 0 0 0 0 0 2 0 0 0 0 0 0 0 0 0 0 0 0 0 0 0 0 0 0 14 0 0 0 0 0 0 0 0 0 0
123 111 90 121 88 27 0 0 0 0 0 0 0 0 0 0 0 0 0 0 0 0 0 0 0 0 0 0 0 0 0 0 0 0 0 0 0 0 0 0 0 0 0 0 0
104 124 111 101 11 0 0 0 0 0 0 0 0 0 0 0 0 0 0 0 0 0 0 0 0 0 0 0 0 0 0 0 0 0 0 23 0 0 0 0 0 0 0 0 0
121 155 135 44 23 0 0 0 1 0 0 0 0 0 0 0 0 0 0 0 0 0 0 0 0 0 0 0 0 0 0 0 0 0 0 0 0 0 0 0 0 0 0 0 0
111 164 49 28 5 5 2 1 0 0 0 0 0 0 0 0 0 0 0 0 0 0 0 0 0 0 0 0 0 0 0 0 0 0 0 0 0 0 0 0 0 0 0 0 0
22 187 53 7 21 21 17 6 0 0 0 0 0 0 0 0 0 0 0 0 0 0 0 0 0 0 0 0 0 0 0 0 0 0 0 0 0 0 0 0 0 0 0 0 0
11 125 48 27 9 3 6 2 0 0 0 0 0 0 0 0 0 0 0 0 15 0 0 0 0 0 0 0 0 0 0 0 0 0 0 28 0 0 0 0 0 0 0 0 0
18 97 81 19 11 17 4 0 0 0 0 0 0 0 0 0 0 0 0 0 0 0 0 0 0 0 0 0 3 0 0 0 0 0 0 1 0 0 0 0 10 0 0 1 0
29 83 29 3 14 2 1 0 0 0 0 0 0 0 0 0 0 0 0 0 0 0 0 0 0 0 0 1 1 29 6 0 0 0 0 2 9 0 0 0 47 0 12 14 0
0 25 5 30 23 3 2 0 0 0 0 0 0 0 0 0 0 0 0 0 0 0 0 0 0 0 0 0 0 0 0 22 2 0 0 0 0 0 0 1 16 62 46 5 0
8 0 1 24 6 0 0 0 0 0 0 0 0 0 0 0 0 0 0 0 0 0 0 0 0 0 0 0 0 0 0 0 0 0 0 0 0 0 55 37 39 30 23 0 0
3 5 2 8 0 0 0 1 0 0 0 0 0 0 0 0 0 0 0 0 0 0 0 0 0 1 38 3 13 0 2 1 44 41 3 0 0 0 23 16 16 6 0 0 0
20 3 5 39 1 0 0 0 0 0 0 0 0 0 0 0 0 0 0 0 0 0 0 0 8 17 0 8 0 0 0 0 0 0 4 11 4 5 40 32 1 0 0 0 0
6 0 0 9 0 0 0 0 0 0 0 0 0 0 0 0 0 0 0 0 0 0 0 0 10 14 7 2 0 0 0 0 0 0 16 30 1 4 37 3 0 0 0 0 0
2 0 0 0 0 0 0 0 0 0 0 0 0 0 0 0 0 0 0 0 0 0 0 0 0 0 12 0 0 0 0 0 0 0 0 0 15 5 0 0 0 0 0 0 0
0 1 0 0 0 0 0 0 0 0 0 0 0 8 0 0 0 0 0 0 0 0 0 0 0 1 0 0 0 1 0 0 0 0 0 8 17 2 4 0 0 0 0 0 0

GFSSW_con_mucape_027.txt.gz
CAPE
6 0 3 4 9 11 12 7 0 0 8 9 10 15 66 72 36 8 0 0 0 0 0 0 0 0 0 0 0 0 0 0 0 0 0 0 0 0 0 0 0 0 0 0 0
19 7 3 7 7 9 1 0 0 0 0 1 1 15 20 52 28 25 0 23 36 20 0 0 0 0 0 0 0 4 1 0 0 0 0 0 0 0 0 0 0 0 0 0 0
30 23 1 5 12 5 0 0 0 0 0 0 0 5 14 11 19 0 2 54 71 44 2 0 0 0 0 0 0 1 2 0 0 0 0 0 0 0 0 0 0 0 0 0 1
55 33 10 1 14 8 0 0 0 0 0 0 0 0 14 0 0 0 0 0 42 42 10 4 0 0 0 0 0 0 0 0 0 0 0 0 0 0 0 0 0 0 0 0 0
96 50 20 2 11 10 7 0 0 0 0 0 0 0 0 0 0 0 0 0 3 40 37 27 0 0 0 0 0 0 0 0 0 0 0 0 0 0 0 0 0 0 0 0 0
205 87 53 29 7 17 8 2 0 0 0 0 0 0 0 0 0 0 0 0 0 17 42 44 5 0 0 0 0 0 0 0 0 0 0 0 0 0 0 0 0 0 0 0 0
141 109 82 60 14 23 18 16 7 0 0 0 0 0 0 0 0 0 0 0 0 3 2 52 59 0 0 0 0 0 0 0 0 0 0 0 0 0 0 0 0 0 0 0 0
109 98 106 70 40 33 26 34 26 7 0 0 0 0 0 0 0 0 0 0 0 0 0 0 45 0 0 0 0 0 0 0 0 0 0 0 0 0 0 0 0 0 0 0 0
133 90 103 81 61 74 58 56 28 11 28 0 0 0 0 0 0 0 0 0 0 0 0 6 4 0 0 0 0 0 0 0 0 0 0 0 0 0 0 0 0 0 0 0 0
124 117 102 95 86 80 66 48 7 6 16 51 0 0 0 0 0 0 0 0 0 0 0 0 0 0 0 0 0 0 0 0 0 0 0 0 0 0 0 0 0 0 0 0 0
94 98 110 102 91 110 46 0 0 0 0 0 0 0 0 0 0 0 0 0 0 0 0 0 0 0 0 0 0 0 0 0 0 0 0 0 0 0 0 0 0 0 0 0 0
62 102 113 121 136 109 4 0 0 0 0 0 0 0 0 0 0 0 0 0 0 0 0 0 0 0 0 0 0 0 0 0 0 0 0 0 0 0 0 0 0 0 0 0 0
28 105 86 136 129 35 7 2 0 0 0 0 0 0 0 0 0 0 0 0 0 0 0 0 0 0 0 0 0 0 0 0 0 0 0 0 0 0 0 0 0 0 0 0 0
5 123 85 132 74 34 17 2 0 0 0 0 0 0 0 0 0 0 0 0 0 0 0 0 0 0 0 0 0 0 0 0 0 0 0 0 0 0 0 0 0 0 0 0 0
34 10 76 91 24 17 0 4 4 0 0 0 0 0 0 0 0 0 0 0 0 0 0 0 0 0 0 0 0 0 0 0 0 0 0 0 0 0 0 0 0 0 0 0 0
6 18 88 58 46 14 9 0 0 0 0 0 0 0 0 0 0 0 0 0 0 0 0 0 0 0 0 0 0 0 0 0 0 0 0 0 0 0 0 0 0 0 0 0 0
2 70 76 15 2 3 6 0 0 0 0 0 0 0 0 0 0 0 0 0 0 0 0 0 0 0 0 0 0 0 0 0 0 0 0 0 0 0 0 0 0 0 0 0 0
62 10 0 1 9 0 6 0 0 0 0 0 0 0 0 0 0 0 0 0 0 0 0 0 0 0 0 0 0 0 0 0 0 0 0 0 0 0 0 0 0 0 0 0 0
59 0 52 46 11 2 0 0 0 0 0 0 0 0 0 0 0 0 0 0 0 0 0 0 0 0 0 0 0 0 0 0 0 0 0 0 0 0 0 0 0 0 0 0 0
48 35 0 1 0 0 1 0 0 0 0 0 0 0 0 0 0 0 0 0 0 0 0 0 0 0 0 0 0 0 0 0 0 0 0 0 0 0 0 0 0 0 0 0 0
67 0 31 0 14 0 0 0 0 0 0 0 0 0 0 0 0 0 0 0 0 0 0 0 0 0 0 0 0 0 0 0 0 0 0 0 0 0 0 0 0 1 29 9 0
19 0 2 0 0 1 0 0 0 0 0 0 0 0 0 0 0 0 0 0 0 0 0 0 0 0 0 0 0 0 0 0 0 0 0 0 0 0 0 0 0 0 1 39 37
1 0 0 0 0 0 0 0 0 0 0 0 0 0 0 0 0 0 0 0 0 0 0 0 0 0 0 0 0 0 0 0 0 0 0 0 0 0 0 0 0 0 76 91 61
0 0 0 0 0 0 0 0 0 0 0 0 0 0 0 0 0 0 0 0 0 0 0 0 0 0 0 0 0 0 0 0 0 0 0 2 17 4 19 20 37 3 53 24 20
0 0 0 0 0 0 0 0 0 0 0 0 0 0 0 0 0 0 0 0 0 0 0 0 0 0 0 0 0 0 0 0 0 0 1 21 19 19 7 28 23 6 2 0 2
0 0 0 0 0 1 0 0 0 0 0 0 0 0 0 0 0 0 0 0 0 0 0 0 0 0 0 0 0 0 0 0 0 0 0 0 0 1 15 2 0 0 0 0 0
0 0 0 0 0 0 0 0 0 0 0 0 0 0 0 0 0 0 0 0 0 0 0 0 0 0 0 0 0 4 0 0 0 0 0 0 0 0 0 0 0 1 0 0 0

GFSSW_con_mucape_030.txt.gz
CAPE
32 12 0 0 6 12 11 4 6 11 0 14 23 10 17 78 81 25 0 0 0 0 0 0 0 0 0 0 0 0 2 0 0 0 0 0 0 0 0 0 0 0 0 0 0
63 24 15 1 2 8 15 9 0 0 0 0 0 15 5 51 53 34 1 15 24 7 0 0 0 0 0 0 0 10 2 0 0 0 0 0 0 0 0 0 0 0 0 0 0
89 51 30 12 0 7 10 13 0 0 0 0 0 9 13 10 32 2 23 56 67 60 9 0 0 0 0 0 0 0 2 0 0 0 0 0 0 0 0 0 0 0 0 0 0
109 93 45 26 5 9 4 7 0 0 0 0 0 0 13 3 0 0 0 0 38 47 32 2 0 0 0 0 0 0 0 0 0 0 0 0 0 0 0 0 0 0 0 0 0
117 103 90 43 21 12 7 8 3 0 0 0 0 0 0 0 0 0 0 0 1 38 19 9 0 0 0 0 0 0 0 0 0 0 0 0 0 0 0 0 0 0 0 0 0
91 128 123 101 45 21 14 10 2 1 0 0 0 0 0 0 0 0 0 0 0 36 45 41 0 0 0 0 0 0 0 0 0 0 0 0 0 0 0 0 0 0 0 0 0
109 119 130 116 72 27 31 20 19 4 0 0 0 0 0 0 0 0 0 0 0 24 54 45 37 0 0 0 0 0 0 0 0 0 0 0 0 0 0 0 0 0 0 0 0
7 116 128 121 101 55 44 31 42 22 0 2 0 0 0 0 0 0 0 0 0 0 0 0 40 0 0 0 0 0 0 0 0 0 0 0 0 0 0 0 0 0 0 0 0
21 1 114 135 121 81 96 71 61 39 26 24 0 0 0 0 0 0 0 0 0 0 0 0 0 0 0 0 0 0 0 0 0 0 0 0 0 0 0 0 0 0 0 0 0
0 8 20 107 137 102 143 74 49 8 17 42 2 0 0 0 0 0 0 0 0 0 0 0 0 0 0 0 0 0 0 0 0 0 0 0 0 0 0 0 0 0 0 0 0
53 25 0 99 118 124 32 13 0 0 0 0 0 0 0 0 0 0 0 0 0 0 0 0 0 0 0 0 0 0 0 0 0 0 0 0 0 0 0 0 0 0 0 0 0
61 69 59 23 131 142 11 0 1 0 0 0 0 0 0 0 0 0 0 0 0 0 0 0 0 0 0 0 0 0 0 0 0 0 0 0 0 0 0 0 0 0 0 0 0
67 38 57 0 117 18 22 0 1 0 0 0 0 0 0 0 0 0 0 0 0 0 0 0 0 0 0 0 0 0 0 0 0 0 0 0 0 0 0 0 0 0 0 0 0
62 12 37 2 154 27 6 3 8 12 0 0 0 0 0 0 0 0 0 0 0 0 0 0 0 0 0 0 0 0 0 0 0 0 0 0 0 0 0 0 0 0 0 0 0
65 30 16 3 47 21 0 0 20 5 0 0 0 0 0 0 0 0 0 0 0 0 0 0 0 0 0 0 0 0 0 0 0 0 0 0 0 0 0 0 0 0 0 0 0
132 44 38 10 26 4 2 15 3 0 0 0 0 0 0 0 0 0 0 0 0 0 0 0 0 0 0 0 0 0 0 0 0 0 0 0 0 0 0 0 0 0 0 0 0
149 74 87 11 6 0 11 0 0 0 0 0 0 0 0 0 0 0 0 0 0 0 0 0 0 0 0 0 0 0 0 0 0 0 0 0 0 0 0 0 0 0 0 0 0
107 122 89 73 23 5 3 0 0 0 0 0 0 0 0 0 0 0 0 0 0 0 0 0 0 0 0 0 0 0 0 0 0 0 0 0 0 0 0 0 0 0 0 0 0
103 66 83 48 0 0 13 0 0 0 0 0 0 0 0 0 0 0 0 0 0 0 0 0 0 0 0 0 0 4 0 0 0 0 0 0 0 0 0 0 0 0 0 0 0
45 20 26 67 0 0 0 0 0 0 0 0 0 0 0 0 0 0 0 0 0 0 0 0 0 0 0 0 0 5 0 0 0 0 0 0 0 0 0 0 0 0 0 0 0
48 1 9 62 0 0 0 0 0 0 0 0 0 0 0 0 0 0 0 0 0 0 0 0 0 0 0 0 0 0 0 0 0 0 0 0 0 0 0 0 0 0 0 0 0
25 0 70 69 0 1 0 0 0 0 0 0 0 0 0 0 0 0 0 0 0 0 0 0 0 0 0 0 0 0 0 0 0 3 0 0 0 0 0 0 0 0 0 0 0
46 26 57 0 0 0 0 0 0 0 0 0 0 0 0 0 0 0 0 0 0 0 0 0 0 0 0 0 0 0 0 0 0 0 0 0 0 0 0 0 0 0 0 0 1
7 0 0 0 0 0 0 0 0 0 1 0 0 0 0 0 0 0 0 0 0 0 0 0 0 0 0 0 0 0 0 0 0 0 3 2 7 1 0 4 9 6 0 22 14
0 0 0 0 0 0 0 0 0 0 0 0 0 0 0 0 0 0 0 0 0 0 0 0 0 0 0 0 0 0 0 0 0 0 5 13 0 0 0 0 0 22 37 41 58
0 0 0 0 0 0 0 0 0 1 0 0 0 0 0 0 0 0 0 0 0 0 0 0 0 0 0 0 0 0 0 0 0 0 0 15 16 3 18 43 86 87 3 50 25
1 0 0 0 0 0 0 0 0 0 0 0 0 0 0 0 0 0 0 0 0 0 0 0 0 0 0 0 0 0 0 0 0 0 0 7 10 21 39 75 97 31 27 35 9

GFSSW_con_mucape_033.txt.gz
CAPE
101 97 29 2 0 0 6 14 12 13 13 1 2 1 19 78 85 7 0 0 0 3 0 0 0 0 0 0 0 0 0 0 0 0 0 0 0 0 0 0 0 0 0 0 0
101 107 84 19 2 0 3 9 6 13 12 0 0 0 1 50 55 32 2 9 17 32 0 0 0 0 0 0 0 7 1 0 0 0 0 0 0 0 0 0 0 0 0 0 0
118 114 137 66 20 0 1 3 4 2 0 0 0 0 4 11 15 4 33 76 91 87 40 0 0 0 0 0 0 0 0 0 0 0 0 0 0 0 0 0 0 0 0 0 0
94 117 123 118 63 11 0 0 4 0 0 0 15 0 11 8 0 0 0 0 0 56 37 6 0 0 0 0 0 0 0 0 0 0 0 0 0 0 0 0 0 0 0 0 0
12 88 104 121 99 25 6 0 1 1 0 0 19 2 0 0 0 0 0 0 0 60 13 1 0 0 0 0 0 0 0 0 0 0 0 0 0 0 0 0 0 0 0 0 0
2 4 38 112 146 89 20 0 1 1 0 0 3 2 0 0 0 0 0 0 0 15 27 25 3 2 0 0 0 0 0 0 0 0 0 0 0 0 0 0 0 0 0 0 0
21 0 4 76 132 105 48 12 0 0 0 0 11 0 0 0 0 0 0 0 4 34 39 31 12 2 0 0 0 0 0 0 0 0 0 0 0 0 0 0 0 0 0 0 0
35 1 1 2 76 139 90 43 18 33 22 11 22 0 0 0 0 0 0 0 2 3 0 20 34 0 0 0 0 0 0 0 0 0 0 0 0 0 0 0 0 0 0 0 0
56 42 1 0 6 123 133 130 80 64 52 37 0 0 0 0 0 0 0 0 0 0 0 3 14 0 0 0 0 0 0 0 0 0 0 0 0 0 0 0 0 0 0 0 0
60 63 32 31 0 96 123 96 63 23 41 41 8 0 0 0 0 0 0 0 0 0 0 0 0 0 0 0 0 0 0 0 0 0 0 0 0 0 0 0 0 0 0 0 0
80 65 58 6 20 67 44 0 0 0 0 0 0 0 0 0 0 0 0 0 0 0 0 0 0 0 0 0 0 0 0 0 0 0 0 0 0 0 0 0 0 0 0 0 0
116 83 63 39 78 23 97 5 0 0 0 0 0 0 0 0 0 0 0 0 0 0 0 0 0 0 0 0 0 0 0 0 0 0 0 0 0 0 0 0 0 0 0 0 0
102 83 79 32 25 0 37 15 0 0 0 0 0 0 0 0 0 0 0 0 0 0 0 0 0 0 0 0 0 0 0 0 0 0 0 0 0 0 0 0 0 0 0 0 0
114 60 27 41 30 71 0 6 5 2 0 0 0 0 0 0 0 0 0 0 0 0 0 0 0 0 0 0 0 0 0 0 0 0 0 0 0 0 0 0 0 0 0 0 0
74 55 34 60 32 33 0 3 0 2 0 0 0 11 0 0 0 0 0 0 0 0 0 0 0 0 0 0 0 0 0 0 0 0 0 0 0 0 0 0 0 0 0 0 0
227 186 119 55 0 9 3 0 0 0 0 0 0 0 0 0 0 0 0 0 0 0 0 0 0 0 0 0 0 0 0 0 0 0 0 0 0 0 0 0 0 0 0 0 0
144 165 94 29 5 0 0 0 1 0 0 0 0 0 0 0 0 0 0 0 0 0 0 0 0 0 0 0 0 0 0 0 0 0 0 0 0 0 0 0 0 0 0 0 0
107 123 102 72 33 28 0 0 0 0 0 0 0 0 0 0 0 0 0 0 0 0 0 0 0 0 0 0 0 0 0 0 0 0 0 0 0 0 0 0 0 0 0 0 0
8 18 54 77 58 8 0 18 0 0 0 0 0 0 0 0 0 0 0 0 0 0 0 0 0 0 0 0 0 0 0 0 0 0 0 0 0 0 0 0 0 0 0 0 0
30 42 48 89 59 0 2 0 0 0 0 0 0 0 0 0 0 0 0 0 0 0 0 0 0 0 0 0 0 0 0 0 0 0 0 0 0 0 0 0 0 0 0 0 0
29 42 25 59 46 0 0 0 0 0 0 0 0 0 0 0 0 0 0 0 0 0 0 0 0 0 0 0 0 0 0 0 0 0 0 0 0 0 0 0 0 0 0 0 0
18 2 9 67 1 0 0 0 0 0 0 0 0 0 0 0 0 0 0 0 0 0 0 0 0 0 0 0 0 0 0 0 0 0 0 0 0 0 0 1 0 0 0 0 0
43 27 12 0 0 0 0 0 0 0 0 0 0 0 0 0 0 0 0 0 0 0 0 0 0 0 0 0 0 0 0 0 0 0 2 2 0 0 0 0 0 0 0 0 0
3 3 0 0 0 0 0 0 0 0 0 0 0 0 0 0 0 0 0 0 0 0 0 0 0 0 0 0 0 0 0 0 0 15 7 0 0 0 0 0 0 0 0 0 0
7 0 0 1 0 0 0 0 0 0 0 0 0 0 0 0 0 0 0 0 0 0 0 0 0 0 0 0 0 0 0 0 0 0 0 3 0 2 0 0 0 0 0 0 5
9 9 0 0 0 0 0 0 0 0 0 0 0 0 0 0 0 0 0 0 0 0 0 0 0 0 0 0 0 0 0 0 0 0 0 0 0 0 0 0 0 113 149 54 65
0 1 0 0 0 0 0 0 0 0 0 0 0 0 0 0 0 0 0 0 0 0 0 0 0 0 0 0 0 4 0 0 0 0 0 0 0 0 0 3 172 131 179 119 48

GFSSW_con_mucape_036.txt.gz
CAPE
82 98 102 86 15 0 0 1 11 6 3 13 7 5 17 48 72 37 22 6 1 15 0 0 0 0 0 0 0 0 0 0 0 0 0 0 0 0 0 0 0 0 0 0 0
19 92 113 95 66 9 0 0 0 4 0 3 7 5 18 39 71 38 14 43 53 44 0 0 0 0 0 0 0 0 0 0 0 0 0 0 0 0 0 0 0 0 0 0 0
15 28 110 104 110 37 0 0 0 0 0 0 3 0 10 21 53 18 25 98 104 83 11 0 0 0 0 0 1 4 0 0 0 0 0 0 0 0 0 0 0 0 0 0 0
0 10 8 110 103 113 14 2 0 0 0 0 10 0 4 15 19 2 0 0 73 73 24 0 0 0 0 0 0 0 0 0 0 0 0 0 0 0 0 0 0 0 0 0 0
20 2 4 14 91 117 54 20 1 0 0 0 2 2 3 0 3 0 0 0 0 59 40 0 0 0 0 0 0 0 0 0 0 0 0 0 0 0 0 0 0 0 0 0 0
32 12 3 9 15 98 100 39 4 0 0 0 0 2 0 0 0 0 0 0 4 31 50 25 5 1 1 0 0 0 0 0 0 0 0 0 0 0 0 0 0 0 0 0 0
56 51 26 0 0 60 120 64 12 0 0 0 0 0 0 0 0 0 0 0 0 34 59 18 9 16 6 0 0 0 0 0 0 0 0 0 0 0 0 0 0 0 0 0 0
59 52 39 27 2 1 79 116 71 40 0 0 0 0 0 0 0 0 0 0 12 30 44 20 14 7 0 0 0 0 0 0 0 0 0 0 0 0 0 0 0 0 0 0 0
73 63 63 48 46 0 53 150 98 62 28 20 0 0 0 0 0 0 0 0 4 0 0 41 24 0 0 0 0 0 0 0 0 0 0 0 0 0 0 0 0 0 0 0 0
95 110 77 72 36 7 0 116 74 59 56 51 5 0 0 0 0 0 0 0 0 0 0 0 0 0 0 0 0 0 0 0 0 0 0 0 0 0 0 0 0 0 0 0 0
128 126 111 72 51 29 0 0 0 0 0 0 1 0 0 0 0 0 0 0 0 0 0 0 0 0 0 0 0 0 0 0 0 0 0 0 0 0 0 0 0 0 0 0 0
169 124 153 83 75 11 32 0 0 0 0 0 0 0 0 0 0 0 0 0 0 0 0 0 0 0 0 0 0 0 0 0 0 0 0 0 0 0 0 0 0 0 0 0 0
144 120 114 84 61 28 5 0 0 0 0 0 0 0 0 0 0 0 0 0 0 0 0 0 0 0 0 0 0 0 0 0 0 0 0 0 0 0 0 0 0 0 0 0 0
120 137 139 97 57 25 18 38 0 0 0 0 0 0 1 4 0 0 0 0 0 0 0 0 0 0 0 0 0 0 0 0 0 0 0 0 0 0 0 0 0 0 0 0 0
174 240 166 125 45 36 48 35 0 0 0 0 0 10 1 0 0 0 0 0 0 0 0 0 0 0 0 0 0 0 0 0 0 0 0 0 0 0 0 0 0 0 0 0 0
150 74 144 116 89 4 24 0 0 0 0 0 0 0 0 0 0 0 0 0 0 0 0 0 0 0 0 0 0 0 0 0 0 0 0 0 0 0 0 0 0 0 0 0 0
65 39 111 73 8 38 11 0 0 0 0 0 0 0 0 0 0 0 0 0 0 0 0 0 0 0 0 0 0 0 0 0 0 0 0 0 0 0 0 0 0 0 0 0 0
58 74 100 40 98 79 17 0 0 0 0 0 0 0 0 0 0 0 0 0 0 0 0 0 0 0 0 0 0 0 0 0 0 0 0 0 0 0 0 0 0 0 0 0 0
88 95 139 151 143 80 14 2 0 0 0 0 0 0 0 0 0 0 0 0 0 0 0 0 0 0 0 0 0 0 0 0 0 0 0 0 0 0 0 0 0 0 0 0 0
3 126 92 126 87 4 0 0 0 0 0 0 0 0 0 0 0 0 0 0 0 0 0 0 0 0 0 0 0 0 0 0 0 0 0 0 0 0 0 0 0 0 0 0 0
8 73 77 132 41 0 0 0 0 0 0 0 0 0 0 0 0 0 0 0 0 0 0 0 0 0 0 0 0 0 0 0 0 0 0 0 0 0 0 0 0 0 0 0 0
11 26 40 68 12 0 0 0 0 0 0 0 0 0 0 0 0 0 0 0 0 0 0 0 0 0 0 0 0 0 0 0 0 0 0 0 0 0 0 0 0 0 0 0 0
5 27 27 65 0 0 0 0 0 0 0 0 0 0 0 0 0 0 0 0 0 0 0 0 0 0 0 0 0 0 0 0 0 0 9 0 1 0 0 0 0 0 0 0 0
0 23 11 7 0 0 0 0 0 0 0 0 0 0 0 0 0 0 0 0 0 0 0 0 0 0 0 0 0 0 0 0 0 0 0 1 0 0 0 0 4 0 0 1 0
1 0 0 4 0 0 0 0 0 0 0 0 0 0 0 0 0 0 0 0 0 0 0 0 0 0 0 0 0 0 0 0 0 0 0 0 0 0 1 0 10 0 0 1 0
0 0 0 0 0 0 0 0 0 0 0 0 0 0 0 0 0 0 0 0 0 0 0 0 0 0 0 0 0 0 0 0 0 0 0 0 0 0 0 0 0 0 1 1 18
0 6 0 0 0 0 0 0 0 0 0 0 0 0 0 0 0 0 0 0 0 0 0 0 0 0 0 0 0 0 0 0 0 0 0 0 0 0 2 12 9 3 71 123 90

GFSSW_con_mucape_039.txt.gz
CAPE
13 13 63 122 101 72 7 1 0 5 1 2 5 2 2 20 51 46 31 26 16 7 0 1 0 0 0 0 0 0 11 0 0 0 0 0 0 0 0 0 0 0 0 0 0
4 0 3 57 120 107 54 1 2 6 2 1 1 2 0 10 49 21 2 31 17 13 0 2 0 0 0 0 0 2 2 0 0 0 0 0 0 0 0 0 0 0 0 0 0
15 0 3 8 50 101 96 11 3 9 3 0 0 0 0 13 62 12 38 50 67 49 20 13 8 0 0 0 0 0 6 0 0 0 0 0 0 0 0 0 0 0 0 0 0
22 26 1 2 1 59 124 77 11 8 2 0 0 0 0 23 36 18 0 30 113 66 39 12 14 4 0 1 0 0 0 0 0 0 0 0 0 0 0 0 0 0 0 0 0
25 36 32 14 0 2 98 126 28 6 4 0 0 0 2 1 19 1 0 0 7 94 63 23 14 21 16 2 0 0 0 0 0 0 0 0 0 0 0 0 0 0 0 0 0
37 45 53 46 0 4 8 125 70 15 4 0 0 0 0 0 0 0 0 0 6 52 76 31 23 14 19 15 0 2 0 0 0 0 0 0 0 0 0 0 0 0 0 0 0
46 38 44 53 33 2 4 114 109 46 8 0 0 1 1 0 0 0 0 0 29 16 52 40 13 1 13 8 11 1 0 0 0 0 0 0 0 0 0 0 0 0 0 0 0
41 60 57 57 56 40 53 80 149 87 6 3 0 0 2 0 0 0 0 0 18 74 64 7 2 13 16 3 0 0 0 0 0 0 0 0 0 0 0 0 0 0 0 0 0
55 60 91 99 85 65 21 58 55 54 16 24 1 0 2 0 0 0 0 2 25 36 49 50 15 10 0 0 0 0 0 0 0 0 0 0 0 0 0 0 0 0 0 0 0
91 104 125 105 81 76 45 53 78 34 15 39 11 0 0 0 0 0 0 15 0 0 28 22 11 4 1 17 0 0 0 0 0 0 0 0 0 0 0 0 0 0 0 0 0
131 126 129 121 140 81 63 44 0 0 0 0 0 0 0 0 0 0 0 0 0 0 0 0 0 0 0 0 0 0 0 0 0 0 0 0 0 0 0 0 0 0 0 0 0
72 162 152 136 139 86 53 35 0 0 0 0 0 0 0 0 0 0 0 0 0 0 0 0 0 0 0 0 0 0 0 0 0 0 0 0 0 0 0 0 0 0 0 0 0
46 121 141 101 123 84 50 0 0 0 0 0 1 3 0 0 4 0 0 0 0 0 0 0 0 0 0 0 0 0 0 0 0 0 0 0 0 0 0 0 0 0 0 0 0
54 134 141 106 49 59 57 2 29 0 0 0 0 3 7 3 5 4 0 0 0 0 0 0 0 0 0 0 0 0 0 0 0 0 0 0 0 0 0 0 0 0 0 0 0
49 86 90 96 54 68 55 46 0 0 12 0 0 8 15 0 2 10 6 0 0 0 0 0 0 0 0 0 0 0 0 0 0 0 0 0 0 0 0 0 0 0 0 0 0
48 61 108 123 211 103 83 122 21 1 2 0 0 0 0 0 4 0 0 0 0 0 0 0 0 0 0 0 0 0 0 0 0 0 0 0 0 0 0 0 0 0 0 0 0
58 93 73 131 128 165 103 47 0 0 0 0 0 0 0 0 0 0 0 0 0 0 0 0 0 0 0 0 0 0 0 0 0 0 0 0 0 0 0 0 0 0 0 0 0
67 80 145 143 126 88 3 0 0 0 0 0 0 0 0 0 0 0 0 0 0 0 0 0 0 0 0 0 0 0 0 0 0 0 0 0 0 0 0 0 0 0 0 0 0
54 36 179 142 145 7 2 0 0 0 0 0 0 0 0 0 0 0 0 0 0 0 0 0 0 0 0 0 0 0 0 0 0 0 0 0 0 0 0 0 0 0 0 0 0
1 43 124 146 112 0 0 0 0 0 0 0 0 0 0 0 0 0 0 0 0 0 0 0 0 0 0 0 0 0 0 0 0 0 0 0 0 0 0 0 0 0 0 0 0
15 11 148 191 157 0 0 0 0 0 0 0 0 0 0 0 0 0 0 0 0 0 0 0 0 0 0 0 0 0 0 0 0 0 0 0 0 0 0 0 0 0 0 0 0
0 15 75 4 1 0 0 0 0 0 0 0 0 0 0 0 0 0 0 0 0 0 0 0 0 0 0 0 0 0 0 0 0 0 0 0 0 0 0 0 0 0 6 0 0
0 20 35 56 0 0 0 0 5 0 0 0 0 0 0 0 0 0 0 0 0 0 0 0 0 0 0 0 0 0 0 0 0 0 0 0 0 0 0 0 0 0 0 2 1
1 16 31 40 33 0 0 1 0 0 0 1 0 0 1 0 0 0 0 0 0 0 0 0 0 0 0 0 0 0 0 0 0 0 0 0 0 0 0 0 0 0 0 1 9
51 34 8 0 0 24 37 0 0 0 4 2 0 1 0 0 0 0 0 0 0 0 0 0 0 0 0 0 0 0 0 0 0 0 0 0 0 0 1 9 4 7 14 8 22
1 2 17 0 0 0 0 0 0 0 1 8 11 0 0 0 0 0 0 0 0 0 0 0 0 0 0 0 0 0 0 0 0 0 0 0 0 0 0 1 2 4 13 25 62
6 0 0 0 0 0 0 0 0 6 0 1 3 3 0 0 0 0 0 0 0 0 0 0 0 0 0 0 0 0 0 0 0 0 0 0 0 0 0 0 15 23 67 37 28

GFSSW_con_mucape_042.txt.gz
CAPE
9 7 0 3 14 71 104 83 17 2 10 11 9 7 1 2 16 33 13 1 28 18 0 0 0 0 0 0 0 0 0 0 0 0 0 0 0 0 0 0 0 0 0 0 210
12 13 0 0 1 34 61 99 76 4 10 8 7 3 0 3 26 9 0 30 54 50 0 0 0 0 0 0 0 0 0 0 0 0 0 0 0 0 0 0 0 0 0 0 0
15 14 16 16 0 4 3 78 131 27 10 4 2 0 0 17 29 1 1 25 74 49 8 0 1 0 0 0 0 0 0 0 0 0 0 0 0 0 0 0 0 0 0 0 0
37 17 15 17 25 2 1 0 112 80 21 2 0 0 0 23 10 3 98 60 118 89 27 27 3 3 0 0 0 0 0 0 0 0 0 0 0 0 0 0 0 0 0 0 0
38 33 36 32 51 43 6 0 38 160 24 4 0 0 0 20 6 12 13 33 59 90 50 18 1 0 0 0 0 0 0 0 0 0 0 0 0 0 0 0 0 0 0 0 0
42 48 26 43 46 49 30 4 0 161 55 0 0 0 0 0 1 0 0 0 0 75 68 61 7 7 12 4 1 1 0 0 0 0 0 0 0 0 0 0 0 0 0 0 0
59 61 45 38 40 59 52 2 5 118 77 0 0 0 0 0 0 0 0 0 6 34 81 67 9 14 8 15 3 9 0 0 0 0 0 0 0 0 0 0 0 0 0 0 0
88 88 55 45 77 84 63 42 14 57 87 5 0 3 2 0 0 0 0 0 19 32 54 34 8 19 7 6 0 0 0 0 0 0 0 0 0 0 0 0 0 0 0 0 0
86 100 109 87 94 81 82 63 9 0 124 68 0 12 0 0 0 0 0 0 7 5 63 31 10 7 4 0 0 1 0 0 0 0 0 0 0 0 0 0 0 0 0 0 0
137 153 138 98 148 127 84 48 21 10 94 0 0 4 0 0 0 0 0 7 14 28 60 48 20 5 16 2 0 0 0 0 0 0 0 0 0 0 0 0 0 0 0 0 0
158 96 96 159 189 144 118 55 73 0 0 0 0 0 0 0 0 0 0 8 4 31 0 8 4 0 0 5 0 2 0 0 0 0 0 0 0 0 0 0 0 0 0 0 0
116 67 91 94 167 165 96 26 15 0 0 0 0 0 0 0 0 0 0 0 0 5 0 0 0 0 0 0 0 0 0 0 0 0 0 0 0 0 0 0 0 0 0 0 0
76 44 74 182 71 45 38 18 76 9 0 0 0 0 0 0 0 0 0 0 0 0 0 0 0 0 0 0 0 0 0 0 0 0 0 0 0 0 0 0 0 0 0 0 0
65 51 69 87 30 5 7 39 70 0 0 0 0 0 1 3 1 0 0 0 2 0 0 0 0 0 0 0 0 0 0 0 0 0 0 0 0 0 0 0 0 0 0 0 0
47 35 47 77 62 10 61 93 57 1 0 0 0 16 3 0 0 0 0 4 0 0 0 0 0 0 0 0 0 0 0 0 0 0 0 0 0 0 0 0 0 0 0 0 0
44 28 63 30 152 26 98 68 16 0 0 0 0 0 0 29 8 0 7 0 0 0 0 0 0 0 0 0 0 0 0 0 0 0 0 0 0 0 0 0 0 0 0 0 0
36 30 42 58 56 151 70 38 0 0 0 0 0 0 0 0 3 0 0 0 0 0 0 0 0 0 0 0 0 0 0 0 0 0 0 0 0 0 0 0 0 0 0 0 0
60 76 31 118 153 31 12 0 0 0 0 0 0 0 0 0 0 0 0 0 0 0 0 0 0 0 0 0 0 0 0 0 0 0 0 0 0 0 0 0 0 0 0 0 0
43 26 137 194 95 15 4 0 0 0 0 0 0 0 0 0 0 0 0 0 0 0 0 0 0 0 0 0 0 0 0 0 0 0 0 0 0 0 0 0 0 0 0 0 0
24 29 149 125 33 12 0 0 0 0 0 0 0 0 0 0 0 0 0 0 0 0 0 0 0 0 0 0 0 0 0 0 0 0 0 0 0 0 0 0 0 0 0 0 0
16 0 126 103 41 1 0 0 0 0 0 0 0 0 0 0 0 0 0 0 0 0 0 0 0 0 0 0 0 0 0 0 0 0 0 0 0 0 0 0 0 0 0 0 0
25 2 73 58 1 0 0 0 2 2 11 0 0 0 0 0 0 0 0 0 0 0 0 0 0 0 0 0 0 0 0 0 0 0 0 0 0 0 0 0 0 0 0 0 0
0 18 56 18 0 0 0 0 0 0 0 0 0 0 0 0 0 0 0 0 0 0 0 0 0 0 0 0 0 0 0 0 0 0 0 0 0 0 0 0 0 0 0 0 0
0 6 3 1 0 0 0 0 0 0 12 1 0 0 0 0 0 0 0 0 0 0 0 0 0 0 0 0 0 0 0 0 0 0 0 0 0 0 0 0 0 0 0 0 0
33 8 0 0 0 0 0 0 0 0 5 8 4 11 1 0 0 0 0 0 0 0 0 0 0 0 0 0 0 0 0 0 0 0 0 0 0 0 0 0 0 0 1 1 1
0 0 0 0 0 0 0 0 0 0 16 0 8 0 0 0 0 0 0 0 0 0 0 0 0 0 0 0 0 0 0 0 0 0 0 0 0 0 0 0 1 0 0 9 49
0 0 1 0 0 0 0 0 2 9 0 1 0 0 0 0 0 0 0 0 0 0 0 0 0 0 0 0 0 0 0 0 0 0 0 0 0 0 0 0 3 11 31 41 8

GFSSW_con_mucape_045.txt.gz
CAPE
18 19 18 20 12 0 0 30 61 106 19 3 8 9 10 7 12 23 10 0 0 38 0 0 0 0 0 0 0 0 0 0 0 0 0 0 0 0 0 0 0 0 0 246 362
30 25 22 19 16 6 0 0 11 61 74 9 8 5 6 27 15 13 0 0 24 66 18 1 0 0 0 0 0 0 0 0 0 0 0 0 0 0 0 0 0 0 0 288 345
31 31 30 20 31 23 8 0 0 15 126 39 6 4 7 21 33 0 0 0 101 63 14 0 0 0 0 0 0 0 0 0 0 0 0 0 0 0 0 0 0 0 0 0 239
56 60 38 29 31 29 59 45 0 14 99 85 9 6 22 14 0 6 20 12 76 62 23 16 10 8 0 0 0 0 0 0 0 0 0 0 0 0 0 0 0 0 0 0 0
57 58 65 74 47 38 54 63 40 7 37 110 15 10 22 19 2 6 368 75 100 72 47 11 14 7 2 0 0 0 0 0 0 0 0 0 0 0 0 0 0 0 0 0 0
96 110 76 53 51 31 49 59 53 31 43 131 24 59 11 3 0 0 15 53 60 65 48 59 5 0 0 0 0 0 0 0 0 0 0 0 0 0 0 0 0 0 0 0 0
94 92 100 84 62 64 72 78 63 19 12 145 44 2 9 0 0 0 0 0 0 31 51 57 52 13 8 0 4 0 0 0 0 0 0 0 0 0 0 0 0 0 0 0 0
123 150 160 145 120 96 85 66 65 19 48 22 16 0 0 0 0 0 0 0 2 17 64 43 43 15 12 0 0 0 0 0 0 0 0 0 0 0 0 0 0 0 0 0 0
172 177 181 165 133 130 139 87 60 10 42 117 2 0 0 0 0 0 0 0 44 56 62 42 31 0 4 6 0 0 0 0 0 0 0 0 0 0 0 0 0 0 0 0 0
164 172 159 126 130 137 165 132 64 19 13 68 0 3 0 0 0 0 0 1 22 67 47 28 12 30 7 6 0 0 0 0 0 0 0 0 0 0 0 0 0 0 0 0 0
139 107 122 92 104 92 55 10 28 61 0 0 0 0 0 0 0 0 0 0 42 47 0 15 2 0 0 0 0 0 0 0 0 0 0 0 0 0 0 0 0 0 0 0 0
102 75 69 76 156 107 41 6 16 25 21 0 0 0 0 0 0 0 0 5 21 13 1 12 0 0 0 5 0 1 0 0 0 0 0 0 0 0 0 0 0 0 0 0 0
65 62 45 69 91 36 0 8 69 13 0 0 0 0 0 0 0 0 0 2 4 10 0 0 0 3 0 0 0 0 0 0 0 0 0 0 0 0 0 0 0 0 0 0 0
57 52 47 64 75 9 8 0 22 27 0 1 0 0 0 9 0 0 1 0 0 1 7 0 0 0 0 0 0 0 0 0 0 0 0 0 0 0 0 0 0 0 0 0 0
34 47 53 65 19 42 29 7 21 0 0 0 0 2 0 1 0 15 14 5 2 0 0 0 0 0 0 0 0 0 0 0 0 0 0 0 0 0 0 0 0 0 0 0 0
15 30 74 10 26 5 38 8 12 0 0 0 0 0 0 0 0 2 5 0 3 0 0 0 0 0 0 0 0 0 0 0 0 0 0 0 0 0 0 0 0 0 0 0 0
35 86 77 52 29 9 12 8 0 0 0 0 0 0 0 0 0 1 0 0 0 0 0 0 0 0 0 0 0 0 0 0 0 0 0 0 0 0 0 0 0 0 0 0 0
51 155 27 87 103 8 12 0 0 0 0 0 0 0 0 0 0 0 0 0 0 0 0 0 0 0 0 0 0 0 0 0 0 0 0 0 0 0 0 0 0 0 0 0 0
98 2 45 23 29 17 0 0 1 0 0 0 0 0 0 0 0 0 0 0 0 0 0 0 0 0 0 0 0 0 0 0 0 0 0 0 0 0 0 0 0 0 0 0 0
4 2 6 19 14 1 0 0 0 0 0 0 0 0 0 0 0 0 0 0 0 0 0 0 0 0 0 0 0 0 0 0 0 0 0 0 0 0 0 0 0 0 0 0 0
0 10 44 33 3 0 0 0 0 0 0 0 0 0 0 0 0 0 0 0 0 0 0 0 0 0 0 0 0 0 0 0 0 0 0 0 0 0 0 0 0 0 0 0 0
0 0 19 2 0 0 0 0 0 0 3 0 0 0 0 0 0 0 0 0 0 0 0 0 0 0 0 0 0 0 0 0 0 0 0 0 0 0 0 0 0 0 0 0 0
0 0 0 6 0 0 0 0 10 23 27 0 0 0 0 0 0 0 0 0 0 0 0 0 0 0 0 0 0 0 0 0 0 0 0 0 0 0 0 0 0 0 0 0 0
0 0 0 0 0 0 0 1 2 9 0 0 0 0 0 0 0 0 0 0 0 0 0 0 0 0 0 0 0 0 0 0 0 0 0 0 0 0 0 0 0 0 0 0 0
0 0 0 0 0 0 0 0 0 0 0 11 0 0 0 0 0 0 0 0 0 0 0 0 0 0 0 0 0 0 0 0 0 0 0 0 0 0 0 0 0 0 0 0 0
0 0 0 0 0 0 0 0 0 0 0 0 0 0 0 0 0 0 0 0 0 0 0 0 0 0 0 0 0 0 0 0 0 0 0 0 0 0 0 0 0 0 13 28 20
0 1 0 0 0 0 0 0 0 0 2 2 0 0 0 0 0 0 0 0 0 0 0 0 0 0 0 0 0 0 0 0 0 0 0 0 0 0 0 0 0 0 9 26 11

GFSSW_con_mucape_048.txt.gz
CAPE
43 25 28 27 24 22 25 8 12 44 54 135 28 9 16 17 19 18 7 0 0 22 0 0 0 0 0 0 0 0 0 0 0 0 0 0 0 0 0 0 0 0 0 5 178
33 47 38 31 45 35 30 33 29 5 8 37 80 34 16 26 20 7 0 0 0 32 62 0 0 0 0 0 0 0 0 0 0 0 0 0 0 0 0 0 0 0 33 223 311
72 60 53 36 35 38 49 18 46 0 2 41 134 68 17 32 11 0 0 0 0 15 28 25 0 0 0 0 0 0 0 0 0 0 0 0 0 0 0 0 0 0 143 260 314
67 72 60 64 61 48 39 39 34 38 0 4 97 78 38 38 0 1 160 0 2 58 65 46 7 0 0 0 0 0 0 0 0 0 0 0 0 0 0 0 0 0 0 0 147
97 97 95 112 63 59 38 37 44 52 37 7 35 70 11 11 0 0 250 82 55 61 24 8 8 0 0 0 0 0 0 0 0 0 0 0 0 0 0 0 0 0 0 0 0
94 112 131 162 133 87 75 51 61 52 41 13 8 86 5 0 0 0 93 58 134 85 53 38 26 4 0 0 0 0 0 0 0 0 0 0 0 0 0 0 0 0 0 0 0
124 138 165 160 181 157 111 86 72 68 30 4 6 11 0 0 0 0 132 134 153 75 23 41 49 18 0 0 0 0 0 0 0 0 0 0 0 0 0 0 0 0 0 0 0
127 154 177 166 187 173 136 165 100 74 34 0 1 35 2 0 0 4 0 0 2 75 83 84 56 5 3 0 0 4 0 0 0 0 0 0 0 0 0 0 0 0 0 0 0
109 150 147 156 158 143 148 134 134 101 48 0 0 5 0 0 0 0 0 3 64 42 65 102 45 15 8 7 0 0 0 0 0 0 0 0 0 0 0 0 0 0 0 0 0
94 100 100 115 80 118 116 64 84 69 25 30 19 0 2 0 0 0 0 8 116 103 82 83 41 0 15 11 0 0 0 0 0 0 0 0 0 0 0 0 0 0 0 0 0
83 65 58 79 103 153 27 0 1 49 83 5 0 3 0 0 0 0 0 56 84 74 16 25 26 3 0 0 0 0 0 0 0 0 0 0 0 0 0 0 0 0 0 0 0
60 52 61 50 58 105 0 0 1 16 0 4 0 0 0 0 0 0 2 22 44 1 6 8 21 0 0 2 0 0 0 0 0 0 0 0 0 0 0 0 0 0 0 0 0
30 29 42 42 33 12 0 3 10 9 1 0 0 0 0 0 0 0 20 11 26 0 4 0 0 0 0 0 0 0 0 0 0 0 0 0 0 0 0 0 0 0 0 0 0
36 29 25 49 3 0 2 32 12 10 6 6 0 0 0 0 0 8 20 1 6 12 3 0 0 0 0 0 0 0 0 0 0 0 0 0 0 0 0 0 0 0 0 0 0
43 44 52 70 14 3 57 35 10 1 1 0 0 2 0 0 1 59 12 10 0 0 0 0 0 0 0 0 0 0 0 0 0 0 0 0 0 0 0 0 0 0 0 0 0
55 87 162 70 33 1 47 28 1 1 2 0 1 0 0 0 3 31 21 4 3 5 4 0 0 0 0 0 0 0 0 0 0 0 0 0 0 0 0 0 0 0 0 0 0
65 144 140 77 28 10 5 10 0 13 0 1 10 0 0 0 1 16 1 2 0 0 0 0 0 0 0 0 0 0 0 0 0 0 0 0 0 0 0 0 0 0 0 0 0
122 32 25 73 52 9 5 0 6 2 1 3 0 0 0 0 0 0 0 0 0 0 0 0 0 0 0 0 0 0 0 0 0 0 0 0 0 0 0 0 0 0 0 0 0
19 2 7 14 9 0 0 0 0 0 0 0 0 0 0 0 0 0 0 0 0 0 0 0 0 0 0 0 0 0 0 0 0 0 0 0 0 0 0 0 0 0 0 0 0
0 0 31 31 14 0 0 0 0 2 0 0 0 0 0 0 0 0 0 0 0 0 0 0 0 0 0 0 0 0 0 0 0 0 0 0 0 0 0 0 0 0 0 0 0
0 0 17 7 0 0 0 0 0 0 0 0 0 0 0 0 0 0 0 0 0 0 0 0 0 0 0 0 0 0 0 0 0 0 0 0 0 0 0 0 0 0 0 0 0
0 0 3 0 0 0 0 0 0 0 0 0 0 0 0 0 0 0 0 0 0 0 0 0 0 0 0 0 0 0 0 0 0 0 0 0 0 0 0 0 0 0 0 0 0
0 0 1 0 0 0 1 0 4 0 0 0 0 0 0 0 0 0 0 0 0 0 0 0 0 0 0 0 0 0 0 0 0 0 0 0 0 0 0 0 0 0 0 0 0
0 0 0 0 0 0 0 0 0 7 0 0 0 0 0 0 0 0 0 0 0 0 0 0 0 0 0 0 0 0 0 0 0 0 0 0 0 0 0 0 0 0 0 0 0
0 0 0 0 0 0 0 0 0 0 0 0 0 0 0 0 0 0 0 0 0 0 0 0 0 0 0 0 0 0 0 0 0 0 0 0 0 0 0 0 0 0 0 0 0
0 0 0 0 0 0 0 0 0 0 0 0 0 0 0 0 0 0 0 0 0 0 0 0 0 0 0 0 0 0 0 0 0 0 0 0 0 0 0 0 0 0 0 0 0
0 0 0 0 0 0 0 0 0 0 5 1 1 0 0 0 0 0 0 0 0 0 0 0 0 0 0 0 0 0 0 0 0 0 0 0 0 0 0 0 0 0 0 0 1

GFSSW_con_mucape_051.txt.gz
CAPE
30 40 36 31 35 47 47 43 47 31 31 14 17 123 23 32 37 23 2 0 0 6 20 5 22 0 0 0 0 0 0 0 0 0 0 0 0 0 0 0 0 0 0 0 114
64 53 62 52 56 45 44 36 46 32 23 18 0 53 78 61 21 15 0 0 0 0 42 0 0 0 0 0 0 0 0 0 0 0 0 0 0 0 0 0 0 0 0 8 100
81 88 97 100 81 73 57 41 49 21 24 21 0 28 117 2 2 0 0 0 0 2 45 0 0 0 0 0 0 0 0 0 0 0 0 0 0 0 0 0 0 0 105 127 164
97 107 111 109 73 89 68 60 48 45 30 22 10 13 51 0 0 44 50 3 0 0 27 60 24 0 0 0 0 0 0 0 0 0 0 0 0 0 0 0 0 0 54 259 254
94 97 106 148 167 180 124 111 76 65 41 45 12 15 20 0 0 115 70 402 0 13 29 37 20 7 0 0 0 0 0 0 0 0 0 0 0 0 0 0 0 0 0 91 197
91 77 108 120 153 171 151 148 143 79 71 63 1 8 3 0 5 3 39 280 1 120 29 33 25 0 0 0 0 0 0 0 0 0 0 0 0 0 0 0 0 0 0 0 0
83 79 106 142 164 185 184 183 178 133 111 72 32 6 0 3 0 0 192 163 186 154 77 36 7 17 4 0 0 0 0 0 0 0 0 0 0 0 0 0 0 0 0 0 0
79 80 96 134 128 187 200 190 209 175 106 67 5 9 0 1 0 37 130 183 188 168 107 101 67 24 1 1 0 0 0 0 0 0 0 0 0 0 0 0 0 0 0 0 0
71 74 83 81 120 157 163 202 200 144 126 79 22 14 0 0 0 23 18 47 47 91 95 99 71 31 15 13 4 10 0 0 0 0 0 0 0 0 0 0 0 0 0 0 0
61 63 62 51 88 113 181 146 32 77 65 69 75 24 0 0 1 21 0 27 134 127 114 132 93 32 13 19 0 0 0 0 0 0 0 0 0 0 0 0 0 0 0 0 0
72 66 61 65 63 94 14 0 0 17 65 26 38 2 0 0 0 10 0 15 145 104 102 64 31 1 0 0 0 0 0 0 0 0 0 0 0 0 0 0 0 0 0 0 0
45 12 33 29 77 99 7 0 0 19 0 25 15 7 0 0 4 6 0 18 92 61 61 39 40 6 5 2 4 0 0 0 0 0 0 0 0 0 0 0 0 0 0 0 0
28 45 28 29 71 1 0 4 2 5 7 23 5 0 0 0 0 2 0 29 70 55 47 14 0 10 5 0 0 0 0 0 0 0 0 0 0 0 0 0 0 0 0 0 0
58 67 89 139 12 4 0 21 0 2 0 7 3 0 0 4 0 0 8 21 35 1 1 7 0 0 2 1 0 0 0 0 0 0 0 0 0 0 0 0 0 0 0 0 0
69 123 201 142 51 3 17 12 2 8 0 0 0 0 1 0 0 17 28 21 22 11 0 0 0 0 0 0 0 0 0 0 0 0 0 0 0 0 0 0 0 0 0 0 0
129 150 62 97 65 11 18 10 0 5 0 1 12 0 0 0 7 22 43 15 16 19 6 0 0 0 0 0 2 0 0 0 0 0 0 0 0 0 0 0 0 0 0 0 0
209 98 48 108 39 6 2 3 0 0 0 0 0 0 0 0 6 26 5 27 15 0 0 0 0 0 0 0 0 0 0 0 0 0 0 0 0 0 0 0 0 0 0 0 0
80 4 16 2 0 0 0 17 0 0 1 2 0 0 0 0 14 7 2 3 4 0 0 0 0 0 0 0 0 0 0 0 0 0 0 0 0 0 0 0 0 0 0 0 0
0 0 1 17 1 4 1 29 0 0 0 0 0 0 0 0 0 0 0 0 0 0 0 0 0 0 0 0 0 0 0 0 0 0 0 0 0 0 0 0 0 0 0 0 0
0 0 0 5 0 0 0 2 0 3 0 0 0 0 0 0 0 0 0 0 0 0 0 0 0 0 0 0 0 0 0 0 0 0 0 0 0 0 0 0 0 0 0 0 0
0 0 0 0 0 0 1 0 0 0 0 0 0 0 0 0 0 0 0 0 0 0 0 0 0 0 0 0 0 0 0 0 0 0 0 0 0 0 0 0 0 0 0 0 0
0 0 0 0 0 0 0 0 0 0 0 0 0 0 0 0 0 0 0 0 0 0 0 0 0 0 0 0 0 0 0 0 0 0 0 0 0 0 0 0 0 0 0 0 0
0 0 0 0 0 0 0 0 0 0 0 0 0 0 0 0 0 0 0 0 0 0 0 0 0 0 0 0 0 0 0 0 0 0 0 0 0 0 0 0 0 0 0 0 0
0 0 0 0 0 0 0 0 0 0 0 0 0 0 0 0 0 0 0 0 0 0 0 0 0 0 0 0 0 0 0 0 0 0 0 0 0 0 0 0 0 0 0 0 0
0 0 0 0 0 0 0 0 0 0 0 0 0 0 0 0 0 0 0 0 0 5 0 0 0 0 0 0 0 0 0 0 0 0 0 0 0 0 0 0 0 0 0 0 0
0 0 0 0 0 0 0 0 0 0 0 0 0 0 0 0 0 0 0 0 0 0 0 0 0 0 0 0 0 0 0 0 0 0 0 0 0 0 0 0 0 0 0 0 0
0 0 0 0 0 0 0 0 0 0 0 0 0 0 0 0 0 0 0 0 0 0 0 0 0 0 0 0 0 0 0 0 0 0 0 0 0 0 0 0 0 0 0 0 0

GFSSW_con_mucape_054.txt.gz
CAPE
68 69 80 75 72 65 60 42 41 20 15 12 0 41 8 151 98 26 10 0 0 0 35 8 13 29 0 0 0 0 0 0 0 0 0 0 0 0 0 0 0 0 0 0 38
58 63 69 101 99 101 74 85 61 53 39 15 0 0 33 48 0 0 0 0 0 0 18 49 30 30 1 0 0 0 0 0 0 0 0 0 0 0 0 0 0 0 0 0 423
66 73 87 101 89 115 90 110 101 80 59 20 5 0 35 1 3 0 0 1 0 4 11 6 20 14 4 0 0 0 0 0 0 0 0 0 0 0 0 0 0 0 0 0 498
86 83 77 83 85 103 117 113 136 131 77 41 23 15 20 8 7 14 90 5 12 0 8 32 18 29 10 0 0 0 0 0 0 0 0 0 0 0 0 0 0 0 0 94 166
92 83 71 72 71 89 110 141 174 183 137 67 54 51 22 33 0 136 93 185 17 3 2 37 15 20 10 0 0 0 0 0 0 0 0 0 0 0 0 0 0 0 0 139 201
94 65 62 74 70 100 145 182 219 197 164 128 75 59 35 17 2 8 42 172 17 42 42 43 22 12 3 0 0 0 0 0 0 0 0 0 0 0 0 0 0 0 0 5 222
90 78 73 66 72 106 153 235 229 221 209 174 93 32 28 7 0 4 0 204 78 109 52 115 29 1 0 0 0 0 0 0 0 0 0 0 0 0 0 0 0 0 0 0 1
75 66 65 56 57 76 155 256 243 253 235 156 83 31 11 5 19 9 110 167 127 307 181 174 98 41 14 0 0 0 0 0 0 0 0 0 0 0 0 0 0 0 0 0 0
80 98 78 76 60 81 166 209 283 290 229 189 41 29 24 6 0 25 70 226 235 195 134 146 81 50 40 5 0 0 0 0 0 0 0 0 0 0 0 0 0 0 0 0 0
84 90 52 17 32 95 154 170 128 102 128 113 68 47 19 1 0 51 45 99 141 103 124 136 43 36 46 1 0 0 0 0 0 0 0 0 0 0 0 0 0 0 0 0 0
65 40 27 17 32 118 8 0 0 4 39 19 0 27 1 1 3 34 23 117 125 116 157 70 0 6 8 11 1 0 0 0 0 0 0 0 0 0 0 0 0 0 0 0 0
11 14 58 95 33 99 4 0 0 3 3 20 5 39 12 0 5 22 18 39 72 62 11 30 0 6 7 0 0 0 0 0 0 0 0 0 0 0 0 0 0 0 0 0 0
82 100 149 152 155 14 0 1 3 4 1 1 1 2 5 5 0 27 14 22 39 33 2 0 0 0 1 0 19 0 0 0 0 0 0 0 0 0 0 0 0 0 0 0 0
119 244 267 233 0 0 0 1 0 0 0 1 7 19 8 2 0 5 13 32 52 32 20 2 10 0 0 0 0 0 0 0 0 0 0 0 0 0 0 0 0 0 0 0 0
188 239 127 74 10 0 0 0 0 3 0 0 0 1 2 0 0 3 28 27 25 0 9 0 0 0 0 0 0 0 0 0 0 0 0 0 0 0 0 0 0 0 0 0 0
85 113 112 4 30 14 1 0 0 15 0 0 4 16 0 0 0 9 35 20 11 0 0 0 0 1 1 1 0 0 0 0 0 0 0 0 0 0 0 0 0 0 0 0 0
19 3 7 14 1 0 0 0 2 0 0 0 2 2 0 0 0 26 12 4 8 0 0 0 0 0 0 0 0 0 0 0 0 0 0 0 0 0 0 0 0 0 0 0 0
16 1 6 0 0 0 0 0 0 0 0 1 0 0 0 0 0 0 10 4 19 2 0 0 0 0 0 0 0 0 0 0 0 0 0 0 0 0 0 0 0 0 0 0 0
0 0 0 0 0 0 0 0 0 4 0 0 0 0 0 0 0 3 0 0 1 0 0 0 0 0 0 0 0 0 0 0 0 0 0 0 0 0 0 0 0 0 0 0 0
0 0 0 0 0 0 0 0 0 0 0 0 0 0 0 0 0 0 0 0 0 0 0 0 0 0 0 0 0 0 0 0 0 0 0 0 0 0 0 0 0 0 0 0 0
0 0 0 0 0 0 0 0 0 0 0 0 0 0 0 0 0 0 0 0 0 0 0 0 0 0 0 0 0 0 0 0 0 0 0 0 0 0 0 0 0 0 0 0 0
0 0 0 0 0 0 0 0 0 0 0 0 0 0 0 0 0 0 0 0 0 0 0 0 0 0 0 0 0 0 0 0 0 0 0 0 0 0 0 0 0 0 0 0 0
0 0 0 0 0 0 0 0 0 0 0 0 0 0 0 0 0 0 0 0 0 0 0 0 0 0 0 0 0 0 0 0 0 0 0 0 0 0 0 0 0 0 0 0 0
0 0 0 0 0 0 0 0 0 0 0 0 0 0 0 0 0 0 0 0 0 0 0 0 0 0 0 0 0 0 0 0 0 0 0 0 0 0 0 0 0 0 0 0 0
0 0 0 0 0 0 0 0 0 0 0 0 0 0 0 0 0 0 0 0 0 1 0 0 0 0 0 0 0 0 0 0 0 0 0 0 0 0 0 0 0 0 0 0 0
0 0 0 0 0 0 0 0 0 0 0 0 0 0 0 0 0 0 0 0 0 0 0 0 0 0 0 0 0 0 0 0 0 0 0 0 0 0 0 0 0 0 0 0 0
0 0 0 0 0 0 0 0 0 0 0 0 0 0 0 0 0 0 0 0 0 0 0 0 0 0 0 0 0 0 0 0 0 0 0 0 0 0 0 0 0 0 0 0 0

GFSSW_con_mucape_057.txt.gz
CAPE
36 50 62 62 61 73 82 88 67 44 35 18 12 2 31 55 40 41 0 0 0 36 109 0 52 77 0 0 0 0 0 0 0 0 0 0 0 0 0 0 0 0 0 0 36
63 60 68 62 71 78 76 95 90 85 70 43 1 4 25 55 51 7 0 9 13 0 11 42 17 43 14 0 0 0 0 0 0 0 0 0 0 0 0 0 0 0 0 61 805
71 71 75 74 78 70 74 70 73 89 107 63 15 5 1 17 14 0 161 40 64 1 6 33 36 21 12 0 0 0 0 0 0 0 0 0 0 0 0 0 0 0 0 27 1100
77 86 88 72 78 73 66 54 36 84 87 81 55 47 40 8 32 6 0 193 202 2 1 32 45 47 7 0 0 0 0 0 0 0 0 0 0 0 0 0 0 0 0 0 172
82 92 98 76 84 67 59 53 82 138 175 192 132 90 67 34 6 11 109 71 75 8 1 34 28 34 16 1 0 0 0 0 0 0 0 0 0 0 0 0 0 0 0 0 33
100 100 104 87 84 82 70 62 148 227 225 259 190 126 55 67 12 27 137 44 13 30 16 87 8 13 18 4 0 0 0 0 0 0 0 0 0 0 0 0 0 0 0 0 0
116 107 117 97 89 60 64 136 251 271 258 292 219 114 53 7 7 3 3 21 74 33 47 147 45 14 4 6 0 0 0 0 0 0 0 0 0 0 0 0 0 0 0 0 0
101 115 143 115 117 87 85 170 268 292 276 224 203 63 3 52 20 11 9 81 46 93 151 246 110 24 14 0 0 0 0 0 0 0 0 0 0 0 0 0 0 0 0 0 0
123 107 140 88 39 33 124 241 294 318 311 212 76 34 19 86 3 2 2 130 161 205 258 170 73 49 21 2 0 0 0 0 0 0 0 0 0 0 0 0 0 0 0 0 0
69 48 30 22 63 35 161 202 152 119 139 163 31 5 0 12 20 3 18 197 145 214 140 92 71 43 43 2 0 0 0 0 0 0 0 0 0 0 0 0 0 0 0 0 0
66 87 96 117 129 60 8 0 0 1 25 0 0 4 37 42 16 32 63 156 169 92 0 65 21 0 0 9 0 0 0 0 0 0 0 0 0 0 0 0 0 0 0 0 0
141 152 188 153 145 83 2 0 1 0 0 3 18 30 33 49 11 22 63 77 77 42 81 32 0 17 0 13 1 0 0 0 0 0 0 0 0 0 0 0 0 0 0 0 0
208 228 249 212 73 1 0 0 1 4 0 27 6 12 37 26 0 11 43 54 74 43 0 0 0 47 0 19 4 0 0 0 0 0 0 0 0 0 0 0 0 0 0 0 0
177 213 127 6 0 0 0 2 0 0 0 0 18 26 54 28 0 24 11 31 19 0 4 0 0 38 13 2 19 0 0 0 0 0 0 0 0 0 0 0 0 0 0 0 0
39 144 102 11 8 1 0 0 0 0 0 2 5 25 23 0 0 13 25 1 1 1 0 0 0 0 0 0 0 6 0 0 0 0 0 0 0 0 0 0 0 0 0 0 0
16 15 20 1 7 6 0 0 0 0 0 0 0 13 0 0 0 32 19 4 5 3 5 0 3 0 0 0 0 7 0 0 0 0 0 0 0 0 0 0 0 0 0 0 0
9 10 0 0 0 0 0 0 0 0 0 3 0 0 1 0 0 19 11 9 1 0 0 0 0 0 0 0 0 0 0 0 0 0 0 0 0 0 0 0 0 0 0 0 0
0 0 0 0 0 0 0 0 0 0 0 0 0 0 0 0 0 1 6 0 0 0 0 0 0 0 0 0 0 0 0 0 0 0 0 0 0 0 0 0 0 0 0 0 0
0 0 0 0 0 0 0 0 0 0 0 0 5 0 0 0 0 0 0 0 0 0 0 0 0 0 0 0 0 0 0 0 0 0 0 0 0 0 0 0 0 0 0 0 0
0 0 0 0 0 0 0 0 0 0 0 0 0 0 0 0 0 0 0 0 0 0 0 0 0 0 0 0 0 0 0 0 0 0 0 0 0 0 0 0 0 0 0 0 0
0 0 0 0 0 0 0 0 0 0 0 0 0 0 0 0 0 0 0 0 0 0 0 0 0 0 0 0 0 0 0 0 0 0 0 0 0 0 0 0 0 0 0 0 0
0 0 0 0 0 0 0 0 0 0 0 0 0 0 0 0 0 0 0 0 0 0 0 0 0 0 0 0 0 0 0 0 0 0 0 0 0 0 0 0 0 0 0 0 0
0 0 0 0 0 0 0 0 0 0 0 0 0 0 0 0 0 0 0 0 0 0 0 0 0 0 0 0 0 0 0 0 0 0 0 0 0 0 0 0 0 0 0 0 0
0 0 0 0 0 0 0 0 0 0 0 0 0 0 0 0 0 0 0 0 0 0 0 0 0 0 0 0 0 0 0 0 0 0 0 0 0 0 0 0 0 0 0 0 0
0 0 0 0 0 0 0 0 0 0 0 0 0 0 0 0 0 0 0 0 0 0 0 0 0 0 0 0 0 0 0 0 0 0 0 0 0 0 0 0 0 0 0 0 0
0 0 0 0 0 0 0 0 0 0 0 0 0 0 0 0 0 0 0 0 0 0 0 0 0 0 0 0 0 0 0 0 0 0 0 0 0 0 0 0 0 0 0 0 0
0 0 0 0 0 0 0 0 0 0 0 0 0 0 0 0 0 0 0 0 0 0 0 0 0 0 0 0 0 0 0 0 0 0 0 0 0 0 0 0 0 0 0 0 0

GFSSW_con_mucape_060.txt.gz
CAPE
58 59 61 60 63 69 59 61 73 73 64 57 26 2 0 16 40 3 21 23 0 61 171 0 12 111 0 0 0 0 0 0 0 0 0 0 0 0 0 0 0 0 0 3 20
68 72 73 80 83 91 66 78 71 68 79 93 63 27 10 1 44 1 2 31 5 13 61 0 31 90 12 0 0 0 0 0 0 0 0 0 0 0 0 0 0 0 0 283 403
69 68 80 100 108 78 78 94 75 62 49 72 74 51 20 6 2 0 12 205 255 93 11 29 99 125 42 2 0 0 0 0 0 0 0 0 0 0 0 0 0 0 0 238 422
89 80 84 94 109 92 95 80 72 58 61 66 60 57 47 34 0 41 55 516 447 156 35 50 124 106 55 5 0 0 0 0 0 0 0 0 0 0 0 0 0 0 0 0 460
85 102 105 115 116 103 98 96 72 61 77 101 109 95 77 45 0 27 37 268 342 143 41 52 81 65 32 17 3 0 0 0 0 0 0 0 0 0 0 0 0 0 0 0 0
100 108 134 171 176 148 106 82 95 137 172 172 190 169 86 24 0 42 62 32 128 152 26 92 57 70 48 24 6 0 0 0 0 0 0 0 0 0 0 0 0 0 0 0 0
115 123 171 201 171 183 161 167 107 182 222 252 270 159 103 2 64 43 84 16 98 234 6 109 126 95 47 26 6 1 0 0 0 0 0 0 0 0 0 0 0 0 0 0 0
119 122 79 111 116 68 33 49 200 265 295 295 225 100 3 3 39 18 22 12 44 260 37 206 189 154 26 16 6 1 1 0 0 0 0 0 0 0 0 0 0 0 0 0 0
86 90 56 42 24 55 48 133 273 279 294 259 95 55 45 60 36 47 44 34 44 236 151 246 122 81 40 30 24 13 0 0 0 0 0 0 0 0 0 0 0 0 0 0 0
174 189 174 154 114 68 91 140 111 164 210 139 18 36 6 16 143 73 8 80 199 276 118 146 102 88 81 37 0 0 0 0 0 0 0 0 0 0 0 0 0 0 0 0 0
157 180 214 199 130 116 53 0 0 156 126 46 16 10 39 154 185 17 1 14 273 94 55 74 1 33 28 12 0 0 0 0 0 0 0 0 0 0 0 0 0 0 0 0 0
111 148 156 127 98 35 0 0 2 1 9 17 31 13 8 61 53 6 4 96 122 54 36 44 0 26 47 30 2 0 0 0 0 0 0 0 0 0 0 0 0 0 0 0 0
37 86 67 27 12 6 12 0 2 2 29 37 1 14 21 42 4 2 25 5 49 8 51 0 0 19 3 28 0 0 0 0 0 0 0 0 0 0 0 0 0 0 0 0 0
12 13 5 0 7 10 4 11 8 2 6 12 19 3 23 0 2 16 22 25 0 0 0 0 2 44 33 0 17 0 0 0 0 0 0 0 0 0 0 0 0 0 0 0 0
0 1 0 0 0 0 0 0 0 0 1 12 4 13 28 0 0 15 0 11 11 0 0 0 0 48 59 25 41 8 0 0 0 0 0 0 0 0 0 0 0 0 0 0 0
0 0 0 0 0 0 0 0 0 0 0 1 1 0 0 0 0 0 0 0 0 0 0 0 0 0 2 0 0 0 0 0 0 0 0 0 0 0 0 0 0 0 0 0 0
0 0 0 0 0 0 0 0 0 0 0 0 2 0 1 0 0 3 0 0 0 0 0 0 0 0 0 0 0 0 0 0 0 0 0 0 0 0 0 0 0 0 0 0 0
0 0 0 0 0 0 0 0 0 0 0 9 5 0 0 0 0 1 6 0 0 0 0 0 0 0 0 0 0 0 0 0 0 0 0 0 0 0 0 0 0 0 0 0 0
0 0 0 0 0 0 0 0 0 0 0 0 0 0 0 0 4 0 0 0 0 0 0 0 0 0 0 0 0 0 0 0 0 0 0 0 0 0 0 0 0 0 0 0 0
0 0 0 0 0 0 0 0 0 0 0 0 0 0 0 0 0 0 0 0 0 0 0 0 0 0 0 0 0 0 0 0 0 0 0 0 0 0 0 0 0 0 0 0 0
0 0 0 0 0 0 0 0 0 0 0 0 0 0 0 0 0 0 0 0 0 0 0 0 0 0 0 0 0 0 0 0 0 0 0 0 0 0 0 0 0 0 0 0 0
0 0 0 0 0 0 0 0 0 0 0 0 0 0 0 0 0 0 0 0 0 0 0 0 0 0 0 0 0 0 0 0 0 0 0 0 0 0 0 0 0 0 0 0 0
0 0 0 0 0 0 0 0 0 0 0 0 0 0 0 0 0 0 0 0 0 0 0 0 0 0 0 0 0 0 0 0 0 0 0 0 0 0 0 0 0 0 0 0 0
0 0 0 0 0 0 0 0 0 0 0 0 0 0 0 0 0 0 0 0 0 0 0 0 0 0 0 0 0 0 0 0 0 0 0 0 0 0 0 0 0 0 0 0 0
0 0 0 0 0 0 0 0 0 0 0 0 0 0 0 0 0 0 0 0 0 0 0 0 0 0 0 0 0 0 0 0 0 0 0 0 0 0 0 0 0 0 0 0 0
0 0 0 0 0 0 0 0 0 0 0 0 0 0 0 0 0 0 0 0 0 0 0 0 0 0 0 0 0 0 0 0 0 0 0 0 0 0 0 0 0 0 0 0 0
0 0 0 0 0 0 0 0 0 0 0 0 0 0 0 0 0 0 0 0 0 0 0 0 0 0 0 0 0 0 0 0 0 0 0 0 0 0 0 0 0 0 0 0 0

GFSSW_con_mucape_063.txt.gz
CAPE
72 66 65 68 69 76 102 85 77 77 92 74 78 57 27 4 0 31 19 26 16 1 45 0 11 195 17 1 0 0 35 0 4 1 0 8 0 0 0 0 0 0 0 17 543
72 76 80 73 102 85 72 71 93 96 101 87 94 94 57 5 1 0 5 33 194 16 64 0 15 239 13 2 0 0 3 0 0 0 1 3 0 0 0 0 0 0 0 112 422
84 80 87 91 96 85 80 86 85 92 85 64 65 78 63 20 13 0 0 11 485 99 24 35 32 262 61 29 0 0 0 0 0 0 0 0 0 0 0 0 0 0 0 113 319
84 99 103 124 114 127 127 135 135 114 81 67 63 54 42 31 0 15 76 151 400 207 22 25 12 150 88 28 0 0 0 0 1 0 0 0 0 0 0 0 0 0 0 0 273
93 125 126 141 158 165 184 177 130 144 95 85 80 69 58 32 1 37 78 233 343 337 20 14 21 58 49 41 3 0 0 0 1 0 0 0 0 0 0 0 0 0 0 0 0
137 136 153 159 187 195 196 214 199 150 165 197 139 82 49 10 1 0 61 63 368 341 27 14 27 63 59 47 28 2 0 0 0 0 0 0 0 0 0 0 0 0 0 0 0
112 98 105 62 29 70 94 82 145 180 197 224 210 144 65 1 19 270 74 75 77 248 25 25 56 107 54 48 46 16 5 0 0 0 0 0 0 0 0 0 0 0 0 0 0
154 164 176 150 7 12 23 44 39 204 307 289 242 104 54 12 4 13 57 122 53 162 103 56 171 229 119 75 41 29 20 14 0 0 0 0 0 0 0 0 0 0 0 0 0
106 143 169 182 163 78 2 64 111 214 251 304 250 104 31 129 1 1 62 79 48 273 257 135 297 226 153 84 42 43 0 0 0 0 0 0 0 0 0 0 0 0 0 0 0
68 102 105 137 184 83 86 96 21 127 261 174 102 106 2 78 59 89 97 68 54 257 140 122 163 113 92 88 0 3 0 0 0 0 0 0 0 0 0 0 0 0 0 0 0
67 71 36 33 100 48 36 17 80 173 150 79 45 15 60 112 239 224 42 40 145 71 18 90 79 31 0 7 1 7 0 0 0 0 0 0 0 0 0 0 0 0 0 0 0
53 58 23 18 27 12 20 15 6 23 41 4 25 35 11 0 14 102 12 157 235 31 33 81 28 2 47 37 31 4 10 0 0 0 0 0 0 0 0 0 0 0 0 0 0
34 32 9 0 0 12 12 6 5 8 31 17 21 16 47 0 0 17 3 17 74 34 37 28 23 0 33 40 12 1 0 0 0 0 0 0 0 0 0 0 0 0 0 0 0
26 6 0 0 0 2 4 6 3 2 116 6 11 41 70 56 9 25 0 0 31 47 51 23 20 0 9 38 9 0 10 0 0 0 0 0 0 0 0 0 0 0 0 0 0
0 0 0 0 0 0 0 0 0 0 0 2 0 11 56 0 0 0 0 75 0 10 8 0 0 0 34 56 16 21 4 5 0 0 0 0 0 0 0 0 0 0 0 0 0
0 0 0 0 0 0 0 0 0 0 0 0 0 0 0 0 0 0 3 0 0 2 0 0 0 0 0 1 6 12 0 0 0 0 0 0 0 0 0 0 0 0 0 0 0
0 0 0 0 0 0 0 0 4 16 0 1 1 4 17 0 0 0 2 0 0 0 0 0 0 0 4 7 7 10 0 0 0 0 0 0 0 0 0 0 0 0 0 0 0
0 0 0 0 0 0 0 0 3 0 0 0 0 0 0 0 0 0 0 0 0 0 0 0 0 0 0 0 0 16 0 0 0 0 0 0 0 0 0 0 0 0 0 0 0
0 0 0 0 0 0 1 0 0 0 0 0 13 0 0 1 0 16 0 0 0 0 0 0 0 0 0 0 0 0 0 0 0 0 0 0 0 0 0 0 0 0 0 0 0
0 0 0 0 0 0 4 0 0 0 0 0 0 0 0 0 7 9 2 0 0 0 0 0 0 0 0 0 0 0 0 0 0 0 0 0 0 0 0 0 0 0 0 0 0
0 1 0 0 0 0 0 0 0 0 0 0 0 0 0 0 5 1 0 0 0 0 0 0 0 0 0 0 0 0 0 0 0 0 0 0 0 0 0 0 0 0 0 0 0
0 2 0 0 0 3 0 0 0 0 0 0 0 0 0 0 4 0 0 2 0 0 0 0 0 0 0 0 0 0 0 0 0 0 0 0 0 0 0 0 0 0 0 0 0
0 0 0 0 1 10 0 0 0 0 0 0 0 0 0 0 0 0 0 0 0 0 0 0 0 0 0 0 0 0 0 0 0 0 0 0 0 0 0 0 0 0 0 0 0
0 1 0 0 0 4 2 0 0 0 0 0 0 0 0 0 0 0 0 0 0 0 0 0 0 0 0 0 0 0 0 0 0 0 0 0 0 0 0 0 0 0 0 0 0
0 0 0 6 3 0 0 0 0 0 0 0 0 0 0 0 0 0 0 0 0 0 0 0 0 0 0 0 0 0 0 0 0 0 0 0 0 0 0 0 0 0 0 0 0
0 0 0 0 0 0 1 0 0 0 0 0 0 0 0 0 0 0 0 0 0 0 0 0 0 0 0 0 0 0 0 0 0 0 0 0 0 0 0 0 0 0 0 0 0
0 0 0 0 0 0 8 1 0 0 0 0 0 0 0 0 0 0 0 0 0 0 0 0 0 0 0 0 0 0 0 0 0 0 0 0 0 0 0 0 0 0 0 0 0

GFSSW_con_mucape_066.txt.gz
CAPE
84 81 89 91 106 112 117 90 77 80 80 83 66 66 60 41 0 0 4 22 42 56 0 0 38 264 258 178 0 14 46 0 9 0 3 6 4 0 0 0 0 0 44 546 946
60 86 86 99 118 151 123 108 91 116 103 100 96 83 91 65 3 0 0 11 85 194 29 0 0 253 179 125 11 0 0 0 0 11 19 6 0 0 0 0 0 0 22 444 820
69 90 105 143 146 169 150 159 111 124 102 81 74 98 88 44 12 0 0 0 107 344 6 29 0 97 151 69 17 0 0 0 0 39 16 16 0 0 0 0 0 0 10 122 476
68 97 120 146 158 173 171 176 183 124 141 118 87 88 65 46 0 53 0 0 297 363 44 67 3 17 72 25 3 0 0 0 3 5 0 2 0 0 0 0 0 0 0 148 197
75 108 146 139 130 146 176 163 210 123 118 99 89 74 44 8 0 3 70 27 156 334 83 37 0 16 43 40 7 0 0 0 0 0 0 0 0 0 0 0 0 0 0 0 52
94 120 154 173 158 33 74 93 148 166 176 143 184 68 1 6 0 0 8 25 82 234 133 12 7 5 3 94 62 1 1 2 0 0 0 0 0 0 0 0 0 0 0 0 0
78 80 146 180 161 33 29 34 5 69 147 178 209 88 21 0 5 165 76 14 36 97 166 27 5 8 39 57 39 30 8 11 0 0 0 0 0 0 0 0 0 0 0 0 0
57 76 93 118 157 128 11 20 40 82 235 274 221 65 15 0 0 0 10 6 37 60 203 74 25 161 109 74 50 54 17 28 3 0 0 0 0 0 0 0 0 0 0 0 0
44 42 39 49 88 136 31 11 80 131 186 243 191 90 1 56 0 0 0 37 46 27 192 248 101 128 111 62 34 38 0 4 1 0 0 0 0 0 0 0 0 0 0 0 0
51 49 22 28 22 96 31 112 32 52 234 166 98 36 12 5 42 0 141 32 22 107 231 169 72 52 77 56 0 0 0 0 0 0 0 0 0 0 0 0 0 0 0 0 0
42 34 8 11 27 30 65 148 96 118 71 19 22 24 12 50 147 36 108 63 57 190 222 70 17 0 0 0 0 0 0 0 0 0 0 0 0 0 0 0 0 0 0 0 0
0 30 20 0 9 9 41 3 4 27 9 5 3 3 68 57 45 94 72 17 57 5 0 47 11 0 13 17 80 8 0 0 2 4 0 0 0 0 0 0 0 0 0 0 0
0 6 7 2 0 33 0 0 2 0 19 7 27 21 20 11 33 33 25 20 1 0 0 0 4 15 1 0 2 0 0 0 0 0 0 0 0 0 0 0 0 0 0 0 0
0 0 0 0 0 0 0 0 0 0 0 2 15 5 5 6 46 47 37 9 36 0 34 20 22 0 17 3 9 0 6 10 0 0 0 0 0 0 0 0 0 0 0 0 0
0 0 0 0 0 0 0 0 0 0 0 2 13 2 2 0 1 9 33 7 8 22 12 1 5 1 4 0 17 0 34 10 0 0 0 0 0 0 0 0 0 0 0 0 0
0 0 0 7 0 0 0 0 0 0 0 3 5 0 0 0 0 0 2 0 1 0 7 0 14 0 0 0 13 42 23 12 3 19 0 0 0 0 0 0 0 0 0 0 0
0 0 0 0 0 0 0 0 0 0 0 0 0 3 0 0 0 0 0 0 0 3 0 0 0 0 0 0 0 23 0 0 0 0 0 0 0 0 0 0 0 0 0 0 0
0 0 0 0 0 0 0 0 0 0 0 0 0 0 0 0 0 0 0 0 0 0 0 0 0 0 0 0 0 0 0 0 0 0 0 0 0 0 0 0 0 0 0 0 0
0 0 0 0 0 0 0 0 0 0 0 0 0 4 2 0 0 0 0 0 0 0 0 0 0 0 0 0 0 0 0 0 0 0 0 0 0 0 0 0 0 0 0 0 0
0 0 0 0 0 0 0 0 0 0 0 0 0 0 0 2 1 7 0 0 0 0 0 0 0 0 0 0 0 0 0 0 0 0 0 0 0 0 0 0 0 0 0 0 0
0 0 0 0 0 0 0 0 0 0 0 0 0 0 0 0 8 0 0 0 0 0 0 0 0 0 0 0 0 0 0 0 0 0 0 0 0 0 0 0 0 0 0 0 0
0 1 0 0 0 3 0 0 0 0 0 0 0 0 2 0 2 0 0 0 0 0 0 0 0 0 0 0 0 0 0 0 0 0 0 0 0 0 0 0 0 0 0 0 0
0 0 0 0 10 17 0 0 0 0 0 0 0 0 0 0 0 0 0 0 0 0 0 0 0 0 0 0 0 0 0 0 0 0 0 0 0 0 0 0 0 0 0 0 0
0 0 0 0 0 1 7 0 0 0 0 0 0 0 0 0 0 0 0 0 0 0 0 0 0 0 0 0 0 0 0 0 0 0 0 0 0 0 0 0 0 0 0 0 0
0 0 0 3 3 0 1 8 0 0 0 0 0 0 0 0 0 0 0 0 0 0 0 0 0 0 0 0 0 0 0 0 0 0 0 0 0 0 0 0 0 0 0 0 0
0 0 0 0 0 0 4 11 0 0 0 0 0 0 0 0 0 0 0 0 0 0 0 0 0 0 0 0 0 0 0 0 0 0 0 0 0 0 0 0 0 0 0 0 0
0 0 0 0 0 0 5 3 8 0 0 0 0 0 0 0 0 0 0 0 0 0 0 0 0 0 0 0 0 0 0 0 0 0 0 0 0 0 0 0 0 0 0 0 0

GFSSW_con_mucape_069.txt.gz
CAPE
56 56 76 99 131 168 169 173 155 124 102 91 84 59 74 35 37 0 0 8 59 154 8 0 0 227 284 263 52 53 0 0 0 0 0 2 0 1 0 0 0 147 709 1036 1091
50 68 104 144 156 201 198 206 191 138 138 96 60 65 59 55 10 0 0 0 25 186 4 0 0 255 155 165 60 77 9 0 0 1 4 1 0 0 0 0 7 532 1066 1019 923
26 82 131 170 167 168 192 196 154 159 162 125 79 93 63 59 3 0 2 0 7 174 79 0 0 206 159 120 32 9 0 0 4 0 0 0 0 0 0 0 0 129 738 876 877
76 84 110 124 164 160 132 160 134 170 127 115 127 106 57 49 0 24 14 84 0 82 82 11 0 51 91 65 30 0 0 0 12 36 0 0 0 0 0 0 0 2 398 622 788
61 64 80 99 100 154 43 77 140 158 137 140 111 124 60 15 0 18 5 30 1 262 80 44 0 3 44 35 25 0 0 0 4 6 5 0 3 5 0 0 0 62 165 328 472
60 57 62 67 110 149 11 2 25 51 157 159 196 120 2 0 0 0 16 15 24 187 60 56 5 9 60 58 24 2 8 15 0 0 1 25 4 0 0 0 0 0 0 3 35
60 36 26 45 63 107 2 4 30 4 68 178 232 100 70 0 0 34 94 44 27 37 67 51 24 7 1 79 49 48 30 30 0 0 0 0 1 0 5 0 0 0 0 0 0
48 32 12 36 10 75 63 0 27 39 186 262 244 93 19 0 0 0 0 1 2 28 35 88 46 25 24 36 28 40 13 26 0 0 0 0 0 0 5 0 0 0 0 0 0
38 20 14 27 26 71 74 6 90 125 153 190 134 88 6 48 0 0 0 8 7 38 59 179 65 20 71 50 33 29 0 0 0 0 0 0 0 0 0 0 0 0 0 0 0
24 17 2 8 4 8 13 39 45 14 117 192 73 11 1 6 18 1 47 6 4 19 94 168 61 20 43 15 0 6 0 0 0 0 0 0 0 0 0 0 0 0 0 0 0
0 10 0 0 0 3 0 0 0 0 9 9 6 0 0 40 83 29 117 12 11 9 95 52 15 0 0 1 4 0 3 0 0 0 0 0 0 0 0 0 0 0 0 0 0
0 0 6 0 0 0 0 0 0 0 0 9 18 26 19 3 54 105 17 10 14 1 1 34 0 0 0 0 5 3 0 0 0 0 0 0 0 0 0 0 0 0 0 0 0
0 0 0 0 0 0 0 0 0 0 0 1 3 21 8 5 15 0 0 2 6 0 2 0 0 0 14 4 17 11 0 0 0 0 1 0 0 0 0 0 0 0 0 0 0
0 0 0 0 0 0 0 0 0 0 0 0 0 13 5 0 2 27 28 10 1 0 11 3 12 7 3 5 8 0 0 0 0 6 0 0 0 0 0 0 0 0 0 0 0
0 0 0 0 0 0 0 0 0 0 0 0 0 2 46 6 0 44 47 3 17 10 0 0 26 4 5 1 0 1 1 5 0 0 0 0 0 0 0 0 0 0 0 0 0
0 0 0 0 0 0 0 0 0 0 0 0 6 0 0 0 0 32 2 2 5 0 0 0 12 30 21 2 9 16 1 2 3 0 0 0 0 0 0 0 0 0 0 0 0
0 0 0 0 0 0 0 0 0 0 0 0 0 0 0 0 0 3 6 0 2 0 0 4 0 0 0 1 3 10 8 0 0 0 0 0 0 0 0 0 0 0 0 0 0
0 0 0 0 0 0 0 0 0 0 0 0 0 0 0 0 0 0 1 0 0 0 0 0 0 0 0 0 0 2 0 0 0 0 0 0 0 0 0 0 0 0 0 0 0
0 0 0 0 0 0 0 0 0 0 0 0 0 0 0 0 1 0 0 0 0 0 0 0 0 0 0 0 0 0 0 0 0 0 0 0 0 0 0 0 0 0 0 0 0
0 0 0 0 0 0 0 0 0 0 0 0 0 0 0 0 3 0 0 0 0 0 0 0 0 0 0 0 0 0 0 0 0 0 0 0 0 0 0 0 0 0 0 0 0
0 0 0 0 0 0 0 0 0 0 0 0 0 0 0 0 0 0 0 0 0 0 0 0 0 0 0 0 0 0 0 0 0 0 0 0 0 0 0 0 0 0 0 0 0
0 0 0 0 0 0 0 0 0 0 0 0 0 0 0 0 0 0 0 0 0 0 0 0 0 0 0 0 0 0 0 0 0 0 0 0 0 0 0 0 0 0 0 0 0
0 0 0 0 0 0 0 0 0 0 0 0 0 0 0 0 0 0 0 0 0 0 0 0 0 0 0 0 0 0 0 0 0 0 0 0 0 0 0 0 0 0 0 0 0
0 0 0 0 0 0 0 0 0 0 0 0 0 0 0 0 0 0 0 0 0 0 0 0 0 0 0 0 0 0 0 0 0 0 0 0 0 0 0 0 0 0 0 0 0
0 0 0 0 0 0 0 0 0 0 0 0 0 0 0 0 0 0 0 0 0 0 0 0 0 0 0 0 0 0 0 0 0 0 0 0 0 0 0 0 0 0 0 0 0
0 0 0 0 0 0 0 0 3 1 0 0 0 0 0 0 0 0 0 0 0 0 0 0 0 0 0 0 0 0 0 0 0 0 0 0 0 0 0 0 0 0 0 0 0
0 0 0 0 0 0 0 0 1 4 1 4 0 0 0 0 0 0 0 0 0 0 0 0 0 0 0 0 0 0 0 0 0 0 0 0 0 0 0 0 0 0 0 0 0

GFSSW_con_mucape_072.txt.gz
CAPE
38 51 80 105 132 194 218 211 204 158 189 134 85 105 107 97 41 0 0 0 19 94 158 17 0 52 355 144 69 45 0 0 0 0 5 0 0 1 0 1 14 204 616 881 961
73 69 77 86 101 186 204 176 206 167 172 160 112 89 76 99 35 0 0 0 34 80 64 2 0 19 199 181 36 46 10 0 0 0 4 0 4 2 0 27 470 920 960 1095 1052
66 51 41 101 91 169 198 145 191 60 148 70 123 117 118 79 17 0 6 13 18 46 53 0 0 107 118 129 32 0 0 0 0 0 0 0 1 0 0 7 150 843 915 1016 1034
65 64 62 65 113 156 131 70 131 129 105 91 86 141 104 77 0 0 10 48 106 7 87 6 0 80 64 74 28 17 0 0 0 0 0 0 0 0 0 0 0 413 610 569 984
42 41 30 39 64 133 33 11 32 91 115 132 125 160 94 1 2 12 20 48 93 9 87 38 0 53 61 59 71 14 0 0 45 13 0 0 0 0 0 3 1 415 595 419 471
27 30 19 42 39 70 0 0 10 35 114 176 222 145 27 0 7 26 41 10 13 47 73 57 0 11 54 85 88 19 8 0 0 0 5 0 0 0 0 16 146 227 382 460 492
37 24 18 36 11 31 0 0 33 14 100 181 252 104 39 0 10 27 8 20 39 84 72 52 8 22 10 49 89 29 41 4 0 0 0 13 0 0 0 0 4 18 0 0 104
24 28 10 25 41 24 0 0 12 27 142 221 218 96 0 0 1 9 14 5 3 28 62 71 25 1 0 43 68 49 25 0 0 0 0 1 0 0 0 0 1 0 0 0 0
22 24 18 15 3 10 0 0 3 28 75 128 120 3 0 1 0 0 0 1 4 0 31 67 44 11 18 38 55 46 0 0 0 0 0 0 0 19 14 0 0 0 0 0 0
20 10 20 6 1 5 0 0 0 0 0 23 17 0 0 0 0 36 57 34 29 80 17 55 52 14 1 8 0 0 0 0 0 0 0 0 0 0 16 0 0 0 0 0 0
0 0 7 5 0 0 0 0 0 0 0 0 0 0 0 7 12 56 72 1 18 17 0 69 0 0 0 16 0 0 0 0 0 0 0 0 0 0 0 0 0 0 0 0 0
0 0 0 1 0 0 0 0 0 0 0 0 11 13 1 7 32 8 1 0 25 0 38 46 0 0 0 24 3 0 0 0 0 0 0 0 0 1 0 0 0 0 0 0 0
0 0 0 0 0 0 0 0 0 0 0 0 5 10 4 28 5 1 4 4 2 12 9 3 0 0 1 16 11 0 0 0 0 0 0 0 0 0 0 0 0 0 0 0 0
0 0 0 0 0 0 0 0 0 0 0 0 0 10 34 4 44 22 62 17 0 0 10 0 0 0 16 3 10 12 0 0 0 0 0 0 0 0 0 0 0 0 0 0 0
0 0 0 0 0 0 0 0 0 0 0 0 0 22 45 11 19 2 16 28 0 0 0 0 1 0 33 0 6 6 1 0 0 0 0 0 0 0 0 0 0 0 0 0 0
0 0 0 0 0 0 0 0 0 0 0 0 0 0 17 8 19 0 22 11 4 0 0 1 18 13 3 14 16 10 5 3 2 4 0 0 0 0 0 0 0 0 0 0 0
0 0 0 0 0 0 0 0 0 0 0 0 0 0 59 20 24 0 5 13 0 0 0 0 3 3 6 3 16 25 9 0 0 0 0 0 0 0 0 0 0 0 0 0 0
0 0 0 0 0 0 0 0 0 0 0 0 0 0 0 2 0 0 0 0 0 0 0 0 0 0 0 0 0 4 8 0 0 0 0 0 0 0 0 0 0 0 0 0 0
0 0 0 0 0 0 0 0 0 0 0 0 0 0 0 0 3 0 0 0 0 0 0 0 0 0 0 0 0 1 0 0 0 0 0 0 0 0 0 0 0 0 0 0 0
0 0 0 0 0 0 0 0 0 0 0 0 0 0 0 0 0 0 0 0 0 0 0 0 0 0 0 0 0 1 0 0 0 0 0 0 0 0 0 0 0 0 0 0 0
0 0 0 0 0 0 0 0 0 0 0 0 0 0 0 0 0 0 0 0 0 0 1 0 0 0 0 0 1 0 0 0 0 0 0 0 0 0 0 0 0 0 0 0 0
0 0 0 0 0 0 0 0 0 0 0 0 0 0 0 0 0 0 0 0 0 0 0 0 0 0 0 0 0 0 0 0 0 0 0 0 0 0 0 0 0 0 0 0 0
0 0 0 0 0 0 0 0 0 0 0 0 0 0 0 0 0 0 0 0 0 0 0 0 0 0 0 0 0 0 0 0 0 0 0 0 0 0 0 0 0 0 0 0 0
0 0 0 0 0 0 0 0 0 0 0 0 0 0 0 0 0 0 0 0 0 0 0 0 0 0 0 0 0 0 0 0 0 0 0 0 0 0 0 0 0 0 0 0 0
0 0 0 0 0 0 0 0 0 0 0 0 0 0 0 0 0 0 0 0 0 0 0 0 0 0 0 0 0 0 0 0 0 0 0 0 0 0 0 0 0 0 0 0 0
0 0 0 0 0 0 0 0 0 0 1 0 0 0 0 0 0 0 0 0 0 0 0 0 0 0 0 0 0 0 0 0 0 0 0 0 0 0 0 0 0 0 0 0 0
0 0 0 0 0 0 0 0 1 5 0 9 8 0 0 0 0 1 0 0 0 0 0 0 0 0 0 0 0 0 0 0 0 0 0 0 0 0 0 0 0 0 0 0 0

GFSSW_con_mucape_075.txt.gz
CAPE
55 69 60 52 101 118 196 203 208 235 203 158 125 106 47 113 65 19 0 0 20 88 150 65 17 34 210 70 110 111 28 0 0 0 2 0 0 0 0 0 9 202 587 773 770
56 68 61 49 79 111 182 164 146 101 82 162 135 143 99 67 28 4 1 2 2 44 76 44 1 98 174 90 86 60 17 0 0 0 0 0 2 1 0 0 51 845 787 1000 1010
60 54 33 52 79 96 124 46 84 14 71 17 85 138 124 67 0 0 10 23 16 34 71 20 18 33 110 97 34 18 1 0 0 7 0 0 1 6 0 0 21 717 1088 1143 1104
44 33 41 54 58 70 1 6 32 83 103 59 66 151 115 80 0 25 69 49 67 105 83 17 2 11 65 95 25 33 24 5 9 23 0 1 0 7 0 0 0 72 970 1029 1089
35 26 34 36 26 30 0 0 9 35 58 96 84 169 48 0 0 14 24 0 28 65 54 11 1 27 38 51 85 11 0 0 3 0 0 0 0 0 0 0 0 13 739 914 928
34 18 18 21 20 3 2 1 6 37 109 179 188 82 14 0 0 1 13 53 122 50 11 33 0 43 46 63 94 40 18 7 0 0 0 0 0 0 0 0 0 365 361 542 779
26 18 15 16 5 2 0 3 7 29 113 184 230 107 21 0 2 0 3 35 48 44 10 67 5 46 12 46 69 68 18 1 0 0 0 0 0 0 0 0 27 90 465 398 314
23 12 22 17 4 0 0 0 0 17 86 155 142 50 0 0 18 0 3 18 28 57 54 64 36 39 30 5 67 58 27 0 0 0 0 0 0 0 0 0 6 57 57 55 239
2 0 11 19 16 2 0 0 0 0 23 49 24 0 0 1 1 2 1 0 6 53 54 72 41 17 35 28 41 24 0 0 0 0 0 0 0 0 0 0 0 0 1 4 0
0 0 0 4 10 2 0 0 0 0 0 0 0 0 0 0 0 43 35 40 51 90 58 88 42 2 15 23 0 0 0 0 0 0 0 0 0 0 0 0 5 0 0 0 0
0 0 0 0 1 0 0 0 0 0 0 0 11 0 1 17 5 40 35 20 49 46 0 35 0 0 0 7 0 3 0 0 0 0 0 0 0 0 0 1 0 0 0 0 0
0 0 0 0 0 0 0 0 0 0 0 0 0 3 2 6 6 3 4 0 15 0 0 0 0 0 1 9 3 0 0 0 0 3 32 0 0 23 0 0 0 1 0 0 0
0 0 0 0 0 0 0 0 0 0 0 0 5 13 9 11 3 0 10 32 0 0 0 0 0 0 11 22 3 1 0 0 0 1 10 1 0 0 0 0 0 0 0 0 0
0 0 0 0 0 0 0 0 0 0 0 0 2 6 40 6 6 7 49 27 0 0 0 0 9 0 4 3 17 14 1 0 0 0 0 0 0 0 0 0 0 0 0 0 0
0 0 0 0 0 0 0 0 0 0 0 0 1 37 24 19 2 29 26 58 0 0 12 0 0 0 0 0 17 12 19 19 2 0 0 0 0 0 0 0 0 0 0 0 0
0 0 0 0 0 0 0 0 0 0 0 0 7 13 28 37 38 15 16 15 19 1 0 0 0 0 0 0 19 5 7 10 6 0 0 0 0 0 0 0 0 0 0 0 0
0 0 0 0 0 0 0 0 0 0 0 0 0 0 0 0 0 0 0 0 0 0 0 0 0 1 0 2 7 15 2 0 0 0 0 0 0 0 0 0 0 0 0 0 0
0 0 0 0 0 0 0 0 0 0 0 0 0 0 0 0 0 8 33 0 0 0 0 0 0 0 0 0 0 11 2 0 0 0 0 0 0 0 0 0 0 0 0 0 0
0 0 0 0 0 0 0 0 0 0 0 0 0 0 0 3 0 0 8 0 0 0 0 0 0 0 0 0 0 9 0 0 0 0 0 0 0 0 0 0 0 0 0 0 0
0 0 0 0 0 0 0 0 0 0 0 0 0 0 0 0 0 0 0 0 0 0 0 0 0 0 0 0 1 0 0 0 0 0 0 0 0 0 0 0 0 0 0 0 0
0 0 0 0 0 0 0 0 0 0 0 0 0 0 0 0 0 0 0 0 0 0 0 0 0 0 0 0 0 0 0 0 0 0 0 0 0 0 0 0 0 0 0 0 0
0 0 0 0 0 0 0 0 0 0 0 0 0 0 0 2 0 0 0 0 0 0 0 0 0 0 0 0 0 0 0 0 0 0 0 0 0 0 0 0 0 0 0 0 0
0 0 0 0 0 0 0 0 0 0 0 0 0 0 0 0 0 0 0 0 0 0 0 0 0 0 0 0 0 0 0 0 0 0 0 0 0 0 0 0 0 0 0 0 0
0 0 0 0 0 0 0 0 0 0 0 0 0 0 0 0 0 0 0 0 0 0 0 0 0 0 0 0 0 0 0 0 0 0 0 0 0 0 0 0 0 0 0 0 0
0 0 0 0 0 0 0 0 0 0 0 0 0 0 0 0 0 0 0 0 0 0 0 3 0 0 0 0 0 0 0 0 0 0 0 0 0 0 0 0 0 0 0 0 0
0 0 0 0 0 0 0 0 0 0 0 0 0 0 0 0 0 0 0 0 0 0 0 0 0 0 0 0 0 0 0 0 0 0 0 0 0 0 0 0 0 0 0 0 0
0 0 0 0 0 0 0 0 0 0 0 6 8 3 3 0 1 5 1 0 1 0 0 0 0 0 0 0 0 0 0 0 0 0 0 0 0 0 0 0 0 0 0 0 0

GFSSW_con_mucape_078.txt.gz
CAPE
49 36 38 34 15 40 53 104 117 150 123 161 141 108 83 57 47 16 10 0 49 150 156 106 90 108 160 99 58 60 44 7 0 0 0 13 5 0 0 0 0 472 445 496 1000
29 34 33 45 24 30 12 27 40 29 45 56 80 167 124 63 20 4 0 101 79 91 54 69 13 8 110 36 48 53 19 0 0 0 4 4 9 0 0 0 38 84 696 806 1194
28 26 21 30 26 8 1 3 4 61 111 41 103 99 114 68 0 0 0 76 129 43 60 44 12 4 32 59 8 9 0 4 0 0 9 0 10 0 0 0 8 0 99 827 1320
30 14 22 23 20 5 0 4 7 25 69 61 91 166 97 12 0 25 46 81 124 36 66 39 31 10 47 32 22 27 24 24 14 4 2 0 0 0 4 0 0 0 2 830 1269
25 11 11 28 10 1 0 2 4 14 94 149 129 164 15 0 0 21 13 4 31 63 13 25 34 2 30 38 26 14 31 17 10 15 26 0 0 0 6 0 0 0 56 343 739
21 7 16 21 12 3 0 2 1 12 86 189 212 81 2 0 8 16 12 8 69 91 72 37 16 0 37 39 39 21 20 47 34 9 9 1 0 0 4 0 0 0 76 276 558
14 6 20 9 10 3 0 0 0 0 51 148 194 84 0 0 1 3 0 0 42 88 58 57 13 33 36 45 59 36 24 3 2 3 3 0 0 0 1 0 0 0 35 125 366
0 0 7 15 13 9 0 0 0 0 6 95 103 6 0 23 16 0 1 22 23 131 121 101 12 37 38 7 56 68 41 17 1 0 0 0 0 0 1 1 15 1 1 40 303
0 0 0 4 7 2 3 0 0 0 0 0 0 0 0 3 6 10 20 0 23 123 105 115 37 27 14 36 43 41 0 13 11 0 1 0 0 0 1 0 52 33 28 15 181
0 0 0 0 2 1 0 0 0 0 0 0 0 0 0 0 12 4 34 24 29 85 47 34 25 12 7 20 0 0 0 11 9 0 12 0 0 0 0 0 35 47 10 5 13
0 0 0 0 0 0 0 0 0 0 0 0 0 0 0 16 31 18 28 0 28 21 0 0 14 0 1 15 0 6 7 2 1 10 9 0 0 0 0 0 4 0 0 0 0
0 0 0 0 0 0 0 0 0 0 0 2 0 0 12 17 0 0 9 0 0 0 0 0 0 0 0 21 4 0 0 0 0 12 0 0 0 0 0 0 0 0 0 0 0
0 0 0 0 1 0 0 0 0 0 0 0 6 6 7 7 0 0 24 11 0 0 0 1 0 0 13 21 9 0 0 0 0 11 20 10 0 0 0 0 0 0 0 0 0
0 0 0 0 0 0 0 0 0 0 0 0 7 6 21 3 0 6 27 4 0 0 0 1 0 0 2 22 10 0 0 0 8 1 0 4 0 0 0 0 0 0 0 0 0
0 0 0 0 0 0 0 0 0 0 0 0 9 33 29 0 0 0 13 20 0 0 0 0 0 0 0 11 12 0 0 0 0 8 3 0 0 0 0 0 0 0 0 0 0
0 0 0 0 0 0 0 0 0 0 0 0 0 39 37 16 22 7 1 2 0 0 0 0 0 0 0 8 32 18 2 0 0 1 0 0 0 0 0 0 0 0 0 0 0
0 0 0 0 0 0 0 0 0 0 0 0 0 0 10 9 1 5 0 0 0 0 0 0 0 3 0 5 27 32 18 0 0 0 0 0 0 0 0 0 0 0 0 0 0
0 0 0 0 0 0 0 0 0 0 0 0 0 0 0 9 1 0 0 0 0 0 0 0 0 2 0 0 0 13 5 0 0 0 0 0 0 0 0 0 0 0 0 0 0
0 0 0 0 0 0 0 0 0 0 0 0 0 0 0 19 1 0 0 0 0 0 2 0 0 0 0 5 0 0 0 0 0 0 0 0 0 0 0 0 0 0 0 0 0
0 0 0 0 0 0 0 0 0 0 0 0 0 0 0 0 0 0 0 0 0 0 0 0 0 0 0 3 0 0 0 0 0 0 0 0 0 0 0 0 0 0 0 0 0
0 0 0 0 0 0 0 0 0 0 0 0 0 0 0 0 0 0 0 0 0 0 0 0 0 0 0 0 0 0 0 0 0 0 0 0 0 0 0 0 0 0 0 0 0
0 0 0 0 0 0 0 0 0 0 0 0 0 0 0 0 0 0 0 0 0 0 0 0 0 0 0 0 0 0 0 0 0 0 0 0 0 0 0 0 0 0 0 0 0
0 0 0 0 0 0 0 0 0 0 0 0 0 0 0 0 0 0 0 0 0 0 0 0 0 0 0 0 0 0 0 0 0 0 0 0 0 0 0 0 0 0 0 0 0
0 0 0 0 0 0 0 0 0 0 0 0 0 0 0 0 0 0 0 0 0 0 0 0 0 0 0 0 0 0 0 0 0 0 0 0 0 0 0 0 0 0 0 0 0
0 0 0 0 0 0 0 0 0 0 0 0 0 0 0 0 0 0 0 0 0 0 0 0 0 0 0 0 0 0 0 0 0 0 0 0 0 0 0 0 0 0 0 0 0
0 0 0 0 0 0 0 0 0 0 0 1 4 9 8 4 2 2 0 0 0 0 0 5 0 0 0 0 0 0 0 0 0 0 0 0 0 0 0 0 0 0 0 0 0
0 0 0 0 0 0 0 0 0 0 0 0 6 24 21 23 7 17 9 4 1 0 0 0 0 0 0 0 0 0 0 0 0 0 0 0 0 0 0 0 0 0 0 0 0

GFSSW_con_mucape_081.txt.gz
CAPE
33 27 12 37 44 34 18 10 1 1 16 95 101 186 185 124 48 32 12 0 2 78 94 101 121 236 266 122 47 24 2 0 0 0 0 0 0 0 0 0 4 168 373 408 733
30 18 22 21 31 15 8 7 2 3 15 22 73 141 143 127 4 0 0 131 131 70 68 76 84 67 175 89 71 53 9 0 0 0 0 0 0 0 0 0 0 33 150 880 1462
29 7 20 26 12 9 4 16 16 3 19 30 54 84 119 46 8 0 37 76 177 114 41 84 43 2 65 114 54 30 6 2 1 0 0 0 0 0 0 0 0 9 34 746 1406
29 11 13 7 13 6 1 23 10 1 31 48 61 106 57 0 6 30 94 82 65 75 50 87 18 0 12 50 48 43 27 37 20 0 0 0 0 0 5 0 0 0 0 55 1006
28 4 11 7 12 5 2 6 9 2 49 99 87 53 1 0 0 18 27 10 26 74 60 70 25 2 10 40 22 39 57 52 26 0 0 0 0 0 4 2 0 0 0 46 485
20 12 25 4 10 9 4 2 1 3 25 87 118 51 0 0 0 6 9 0 44 85 59 44 56 1 4 66 24 8 59 54 34 0 0 0 0 0 1 0 0 0 10 130 249
20 0 1 24 15 12 6 1 0 0 6 85 100 0 0 0 0 2 2 0 53 114 54 67 21 44 28 68 42 4 55 65 18 1 2 0 0 0 1 0 0 7 39 79 112
11 12 0 0 15 9 9 0 0 0 0 63 33 0 1 4 14 0 0 0 54 131 111 138 28 32 56 21 45 49 37 16 5 3 0 0 0 0 0 8 0 1 49 43 64
0 12 0 0 5 6 0 0 0 0 0 0 0 0 0 0 4 9 27 0 23 96 86 83 20 21 45 55 40 31 0 0 2 0 0 0 0 0 0 0 0 0 31 14 19
0 0 0 0 0 4 0 0 0 0 0 0 0 0 0 12 40 24 17 5 9 75 53 23 19 12 32 27 0 0 0 2 0 0 0 0 0 0 0 0 0 0 6 0 0
0 0 0 0 1 2 0 0 0 0 0 0 0 0 7 7 8 17 0 0 0 44 0 3 0 0 0 42 0 3 0 0 1 2 0 0 0 0 0 0 0 0 0 0 3
0 0 0 0 0 0 0 0 0 0 0 0 1 1 10 6 0 0 2 0 5 0 9 0 0 0 2 12 20 11 8 0 3 4 3 0 0 0 0 0 0 2 24 41 24
0 0 0 0 0 0 0 0 0 0 0 0 2 0 0 0 0 12 1 0 0 0 0 0 1 0 10 24 23 27 0 0 1 2 8 9 0 0 0 0 0 0 11 16 2
0 0 0 0 0 0 0 0 0 0 0 0 17 3 0 0 0 34 30 0 0 0 3 1 0 0 4 25 8 0 0 0 0 2 0 6 0 0 0 0 0 0 0 2 0
0 0 0 0 0 0 0 0 0 0 0 0 23 11 0 0 0 0 3 2 0 0 0 0 0 0 0 0 0 0 0 0 0 0 0 0 0 0 0 0 0 0 0 0 0
0 0 0 0 0 0 0 0 0 0 0 0 5 22 2 2 0 0 0 0 0 0 0 0 0 0 0 23 18 7 4 7 2 0 0 0 0 0 0 0 0 0 0 0 0
0 0 0 0 0 0 0 0 0 0 0 0 0 4 5 0 0 0 0 0 0 0 0 0 0 0 0 0 47 32 17 0 0 0 0 0 0 0 0 0 0 0 0 0 0
0 0 0 0 0 0 0 0 0 0 0 0 0 0 0 0 0 0 0 0 0 0 0 0 0 0 0 0 0 0 0 0 0 0 0 0 0 0 0 0 0 0 0 0 0
0 0 0 0 0 0 0 0 0 0 0 0 0 0 0 13 1 0 0 0 0 0 0 0 0 0 0 0 0 0 0 0 0 0 0 0 0 0 0 0 0 0 0 0 0
0 0 0 0 0 0 0 0 0 0 0 0 0 0 0 0 4 3 0 0 0 0 0 0 0 0 0 1 0 0 0 0 0 0 0 0 0 0 0 0 0 0 0 0 0
0 0 0 0 0 0 0 0 0 0 0 0 0 0 0 0 0 0 0 0 0 0 0 0 0 0 0 0 0 0 0 0 0 0 0 0 0 0 0 0 0 0 0 0 0
0 0 0 0 0 0 0 0 0 0 0 0 0 0 0 0 4 0 0 0 0 0 0 0 0 0 0 0 0 3 0 0 0 0 0 0 0 0 0 0 0 0 0 0 0
0 0 0 0 0 0 0 0 0 0 0 0 0 0 0 0 0 0 0 0 0 0 0 0 0 0 0 0 0 0 0 0 0 0 0 0 0 0 0 0 0 0 0 0 0
0 0 0 0 0 0 0 0 0 0 0 0 0 0 0 0 4 0 0 0 0 0 0 0 0 0 0 0 0 0 0 0 0 0 0 0 0 0 0 0 0 0 0 0 0
0 0 0 0 0 0 0 0 0 0 0 0 3 5 6 1 4 1 0 0 0 0 10 0 0 0 0 0 0 0 0 0 0 0 0 0 0 0 0 0 0 0 0 0 0
0 0 0 0 0 0 0 0 0 0 0 0 0 0 24 23 40 9 6 0 0 0 0 13 0 0 0 0 0 0 0 0 0 0 0 0 0 0 0 0 0 0 0 0 0
0 0 0 0 0 0 0 0 0 0 0 0 0 0 0 0 4 26 33 11 20 0 0 0 0 0 0 0 0 0 0 0 0 0 0 0 0 0 0 0 0 0 0 0 0

GFSSW_con_mucape_084.txt.gz
CAPE
28 24 24 26 16 11 5 4 5 3 3 16 65 165 172 195 135 6 3 15 49 12 51 139 165 257 462 301 196 34 141 100 59 27 5 0 0 0 0 0 5 88 82 180 597
31 23 26 23 11 8 7 16 17 5 3 31 85 128 140 149 44 6 0 86 131 153 61 104 123 184 243 277 253 130 95 57 64 25 25 6 0 4 0 0 0 0 50 504 1090
40 17 19 16 7 6 2 17 3 4 7 19 82 145 157 137 60 43 30 96 138 112 53 87 95 139 73 231 143 117 2 48 44 0 20 36 21 0 0 0 0 5 47 492 1160
27 1 21 19 9 5 2 3 5 6 22 84 90 139 78 30 34 22 56 63 63 33 60 117 112 95 80 58 138 126 88 41 102 104 84 72 6 0 0 0 0 0 31 195 814
23 18 26 17 5 4 3 1 2 3 37 78 106 87 14 0 11 2 34 2 15 41 62 69 83 38 4 25 88 84 123 95 42 29 34 24 33 5 0 0 0 0 21 1 525
23 19 3 26 16 7 1 1 0 0 0 102 127 31 0 3 4 2 3 0 7 81 86 48 74 20 45 90 101 11 121 132 49 31 13 28 19 3 0 0 0 0 0 11 185
17 23 13 1 20 9 11 0 0 0 0 96 90 0 42 14 3 2 0 3 9 90 84 55 47 80 37 114 61 54 88 129 74 69 52 0 0 0 0 0 0 0 4 15 152
1 0 0 0 9 8 5 0 0 0 0 1 37 0 34 0 33 16 11 3 80 108 55 63 44 60 84 66 103 75 53 87 99 47 25 13 12 15 0 0 0 0 0 15 89
0 0 0 0 7 6 1 0 0 0 0 0 0 0 0 10 21 2 14 1 81 99 80 53 56 45 80 129 118 97 25 30 72 54 32 2 6 3 0 0 0 0 0 10 108
0 0 0 0 0 3 0 0 0 0 0 0 0 0 0 22 7 4 14 4 66 86 54 24 61 90 86 122 0 14 36 33 27 4 0 2 1 0 0 0 0 0 0 1 69
0 0 0 0 0 2 0 0 0 0 0 0 1 0 6 18 6 15 6 2 55 51 0 2 0 0 5 73 13 37 42 42 20 2 8 1 0 0 0 0 0 0 1 0 20
0 0 0 0 0 0 0 0 0 0 0 1 2 5 0 0 0 22 0 0 0 0 0 0 0 6 8 29 6 24 26 0 0 0 18 3 0 0 0 0 0 0 0 0 6
0 0 0 0 0 0 0 0 0 0 0 3 7 0 0 0 1 25 18 0 0 0 0 0 0 18 18 14 18 13 0 0 0 0 23 0 0 0 0 0 0 0 0 0 9
0 0 0 0 0 0 0 0 0 0 0 0 6 5 0 0 9 21 25 0 0 0 0 0 0 0 30 0 11 0 0 0 1 16 0 3 0 0 0 0 0 0 0 0 0
0 0 0 0 0 0 0 0 0 0 0 0 14 19 0 0 0 0 27 13 0 0 0 0 0 0 0 9 19 14 0 11 10 40 20 0 0 0 0 0 0 0 0 0 0
0 0 0 0 0 0 0 0 0 0 0 0 7 23 3 0 0 0 0 4 8 0 0 1 0 0 1 19 15 6 6 6 6 24 0 0 0 0 0 0 0 0 0 0 0
0 0 0 0 0 0 0 0 0 0 0 0 0 2 0 0 0 0 0 0 0 0 0 0 0 0 0 60 36 55 62 0 0 0 0 0 0 0 0 0 0 0 0 0 3
0 0 0 0 0 0 0 0 0 0 0 0 0 0 0 0 0 0 0 0 0 0 1 2 0 0 0 10 24 25 27 0 0 0 0 0 0 0 0 0 0 0 0 0 0
0 0 0 0 0 0 0 0 0 0 0 0 0 0 0 0 9 0 0 0 0 0 33 14 0 0 0 0 16 0 1 0 0 0 0 0 0 0 0 0 0 0 0 0 0
0 0 0 0 0 0 0 0 0 0 0 0 0 0 0 0 0 2 0 0 0 0 0 0 0 0 0 0 0 0 0 0 0 0 0 0 0 0 0 0 0 0 0 0 0
0 0 0 0 0 0 0 0 0 0 0 0 0 0 0 1 0 0 0 0 0 0 0 0 0 0 0 0 0 0 0 0 0 0 0 0 0 0 0 0 0 0 0 0 0
0 0 0 0 0 0 0 0 0 0 0 0 0 0 0 0 17 0 0 0 0 0 0 0 0 0 0 0 0 0 0 0 0 0 0 0 0 0 0 0 0 0 0 0 0
0 0 0 0 0 0 0 0 0 0 0 0 0 0 0 0 0 10 9 0 0 2 0 0 0 0 0 0 0 0 0 0 0 0 0 0 0 0 0 0 0 0 0 0 0
0 0 0 0 0 0 0 0 0 0 0 0 0 0 0 0 4 15 12 3 2 0 0 0 0 0 0 0 0 0 0 0 0 0 0 0 0 0 0 0 0 0 0 0 0
0 0 0 0 0 0 0 0 0 0 0 0 0 0 0 0 0 28 22 15 7 3 8 5 0 0 0 0 0 0 0 0 0 0 0 0 0 0 0 0 0 0 0 0 0
0 0 0 0 0 0 0 0 0 0 0 0 0 0 0 0 0 0 9 16 75 7 38 5 2 0 0 0 0 0 0 0 0 0 0 0 0 0 0 0 0 0 0 0 0
0 0 0 0 0 0 0 0 0 0 0 0 0 0 0 0 0 4 6 0 3 1 3 0 3 0 0 0 0 0 0 0 0 0 0 0 0 0 0 0 0 0 0 0 0

GFSSW_con_mucape_087.txt.gz
CAPE
41 21 24 18 10 8 7 19 19 9 6 27 75 133 198 262 241 165 83 5 79 120 121 199 216 52 167 190 202 168 235 128 70 62 17 0 0 0 0 9 15 0 296 660 633
35 13 18 11 12 5 4 24 7 7 7 33 83 144 188 218 198 73 35 29 66 184 251 191 125 57 141 28 172 182 168 47 34 62 73 26 0 0 0 0 8 4 25 570 1220
33 18 26 11 13 6 4 6 14 10 23 97 99 137 172 191 124 102 45 53 103 110 104 207 123 44 31 107 37 128 80 96 110 45 58 64 17 0 0 2 0 0 18 531 1328
27 27 12 25 1 7 7 7 7 7 51 118 136 122 136 157 16 11 91 100 99 41 40 239 126 38 24 68 54 112 120 69 70 10 6 50 21 5 0 11 0 0 14 364 1100
26 29 15 17 33 9 5 6 4 2 12 124 160 108 90 53 11 0 8 6 28 48 154 242 81 54 7 37 122 105 53 71 92 72 54 34 17 21 24 0 0 0 0 73 741
23 21 17 4 18 17 13 13 2 0 0 107 129 79 72 37 11 11 7 12 20 100 144 164 79 57 28 26 72 105 83 74 89 82 74 89 78 43 1 0 0 0 0 10 47
11 17 18 0 2 15 11 11 0 0 0 21 112 13 64 37 28 15 2 0 5 110 134 118 78 17 26 54 66 84 76 92 41 72 76 73 58 19 24 0 0 0 0 0 27
0 14 16 0 0 7 6 1 0 0 0 0 7 10 19 10 42 39 25 15 77 79 49 58 71 110 101 91 76 50 71 75 62 90 73 40 0 18 10 4 0 0 0 0 0
0 0 0 0 0 4 4 0 0 0 0 0 2 3 22 36 11 7 6 35 57 84 97 66 64 45 103 95 94 74 27 61 62 68 71 38 0 6 45 3 0 0 0 0 0
0 0 0 0 0 0 0 0 0 0 0 0 1 1 11 12 3 4 0 38 41 72 1 0 57 55 66 74 0 12 1 43 9 62 50 62 3 48 17 0 0 0 0 0 0
0 0 0 0 0 0 0 0 0 6 0 2 14 6 13 22 11 5 0 48 48 53 0 0 24 6 2 36 41 0 42 39 39 31 31 15 33 14 15 0 0 0 0 0 0
0 0 0 0 0 0 0 0 0 0 0 2 1 0 0 2 0 4 13 0 0 0 0 0 62 15 23 43 37 67 56 59 26 27 0 8 4 0 2 1 0 0 0 0 1
0 0 0 0 0 0 0 0 0 0 6 0 0 0 0 0 0 0 14 1 0 0 0 0 16 8 24 30 38 31 43 44 26 0 7 11 2 0 0 0 0 0 0 0 0
0 0 0 0 0 0 0 0 0 0 0 0 0 4 3 0 7 11 18 19 0 0 0 0 0 0 21 0 8 0 21 7 0 17 30 2 0 0 0 0 0 0 0 0 0
0 0 0 0 0 0 0 0 0 0 0 0 3 1 0 3 0 20 27 31 0 0 0 0 0 0 0 1 1 4 26 23 27 28 31 29 6 0 1 0 0 0 0 0 0
0 0 0 0 0 0 0 0 0 0 0 0 3 4 1 0 0 0 12 11 6 0 0 0 4 11 27 42 24 22 14 34 36 50 0 0 3 0 1 0 0 0 0 0 0
0 0 0 0 0 0 0 0 0 0 0 0 0 0 0 0 0 0 0 0 22 25 0 0 0 28 10 28 34 27 7 0 0 0 0 0 0 0 0 0 0 0 0 0 0
0 0 0 0 0 0 0 0 0 0 0 0 0 0 0 0 0 0 0 0 5 7 33 0 6 18 4 28 0 0 6 0 0 0 0 0 0 0 0 0 0 0 0 0 0
0 1 6 0 0 0 0 0 0 0 0 0 0 0 0 6 0 0 0 0 0 7 49 65 100 0 0 21 38 5 88 43 0 0 0 0 0 0 0 0 0 0 0 0 0
0 1 5 0 0 3 0 0 0 0 0 0 0 1 0 7 0 6 0 0 0 0 15 18 9 0 0 0 8 35 14 0 33 0 0 0 0 0 0 0 0 0 0 0 0
0 0 5 0 2 0 0 0 0 0 0 0 0 0 0 5 25 0 6 2 0 0 0 0 5 4 0 0 0 0 0 0 2 0 0 0 0 0 0 0 0 0 0 0 0
0 0 5 0 0 0 0 0 0 0 0 0 0 0 0 6 13 15 1 32 2 12 0 0 0 91 0 0 0 0 0 0 0 0 0 0 0 0 0 0 0 0 0 0 0
0 0 0 1 0 0 0 0 0 0 0 0 0 0 0 0 0 16 48 45 39 68 19 0 0 0 2 0 0 0 33 28 2 11 0 0 0 0 0 0 0 0 0 0 0
0 0 0 0 0 0 0 0 0 0 0 0 0 1 0 0 26 0 19 51 36 41 78 39 0 0 0 3 0 0 0 0 35 33 0 0 0 0 0 0 0 0 0 0 0
0 0 0 0 0 0 0 0 0 0 0 0 0 0 0 0 0 0 0 48 61 78 51 1 0 0 9 0 0 0 0 0 0 0 0 0 0 0 0 0 0 0 0 0 0
0 0 0 0 0 0 0 0 0 0 0 0 0 0 0 0 0 0 0 0 33 52 14 7 0 0 0 0 0 0 0 0 0 0 0 0 0 0 0 0 0 0 0 0 0
0 0 0 0 0 0 0 0 0 0 0 0 0 0 0 0 0 0 0 9 1 4 9 0 9 0 32 0 0 0 0 0 0 0 0 0 0 0 0 0 0 0 0 0 0

GFSSW_con_mucape_090.txt.gz
CAPE
35 38 21 20 15 10 3 25 11 9 17 58 91 141 181 254 255 217 115 131 125 188 80 2 52 42 65 150 229 197 138 12 27 41 1 0 0 0 1 5 197 142 646 668 1509
33 37 16 17 5 14 9 4 20 10 43 95 133 131 178 217 196 107 201 124 97 176 80 0 93 151 37 47 123 158 84 43 16 39 23 3 0 0 2 5 14 107 687 1082 1303
29 34 25 37 14 12 11 7 10 11 34 124 165 151 163 129 68 6 105 177 81 67 0 0 96 92 200 27 41 93 2 49 140 147 78 19 2 0 0 20 12 3 608 1224 1412
22 34 30 16 33 19 13 6 9 5 14 57 180 164 110 73 0 0 44 51 77 35 21 56 54 74 24 5 58 65 19 53 186 113 79 83 58 0 2 0 0 9 581 1029 1499
15 25 25 19 6 27 17 19 4 4 0 27 173 157 90 23 5 1 1 0 0 5 25 156 62 74 23 16 1 10 6 84 91 61 38 37 33 28 8 0 0 0 375 679 1104
0 17 21 23 0 10 21 12 8 0 0 0 109 134 99 1 10 7 0 6 1 25 96 156 67 58 40 80 21 2 43 15 70 95 34 7 37 24 2 0 0 0 0 245 710
0 0 11 21 0 4 13 9 3 0 0 0 58 30 0 0 12 8 0 4 9 59 131 155 82 112 33 21 97 28 2 0 40 57 68 48 20 13 3 0 0 0 0 0 6
11 0 0 15 0 0 6 4 0 0 0 12 38 12 1 0 4 2 0 4 45 96 81 37 20 34 34 18 26 57 52 0 1 55 69 52 0 17 48 6 0 0 0 0 0
9 0 0 0 0 0 0 1 0 0 0 0 0 8 0 6 3 0 3 25 64 43 6 2 13 1 43 11 0 1 0 0 0 29 58 63 14 21 52 13 0 0 0 0 0
3 0 0 0 0 0 0 0 0 0 0 0 5 0 0 0 0 2 0 28 44 0 0 0 0 0 0 31 1 0 0 0 0 55 36 45 1 1 30 15 0 0 0 0 0
4 0 0 0 0 0 0 0 0 0 0 0 0 0 0 0 4 0 5 35 6 0 0 0 0 1 0 2 7 7 6 0 2 86 33 0 0 2 14 5 0 0 0 0 0
0 0 0 0 0 0 0 0 0 0 0 0 0 0 0 0 0 0 2 0 0 0 0 0 3 1 9 0 11 6 0 0 18 54 43 0 0 0 4 2 0 0 0 0 0
0 0 0 0 0 0 0 0 0 0 0 0 0 0 0 0 4 1 0 0 0 0 0 0 15 10 16 0 13 25 0 15 21 3 0 0 0 0 0 0 0 0 0 0 0
0 0 0 0 0 0 0 0 0 0 0 0 0 0 0 0 0 0 0 2 0 0 0 0 0 0 19 16 0 5 28 7 19 0 0 0 0 0 0 0 0 0 0 0 0
0 0 0 0 0 0 0 0 0 0 0 0 0 0 0 0 0 1 0 0 0 0 0 0 0 0 24 0 3 2 23 8 8 0 0 4 0 0 0 0 0 0 0 0 0
0 0 0 0 4 0 0 0 0 0 0 0 0 4 0 0 0 0 1 3 7 0 0 0 0 3 6 28 12 50 28 23 0 0 0 0 0 0 0 0 0 0 0 0 0
0 0 0 1 0 0 0 0 0 0 0 0 0 1 0 0 0 0 0 0 0 0 0 0 0 0 2 9 17 35 0 0 0 0 0 0 0 0 0 0 0 0 0 0 0
0 0 0 0 0 0 0 0 0 0 0 0 0 0 0 0 0 0 0 0 0 0 0 0 0 0 0 7 0 0 0 0 0 0 0 0 0 0 0 0 0 0 0 0 0
0 1 2 0 0 0 0 0 0 0 0 0 0 0 0 1 0 0 0 0 0 0 25 0 0 0 0 2 3 0 0 8 0 0 0 0 0 0 0 0 0 0 0 0 0
0 1 1 0 0 0 0 0 0 0 0 0 0 0 0 0 0 4 0 0 0 0 34 25 2 0 1 2 5 23 1 0 0 0 0 0 0 0 0 0 0 0 0 0 0
0 1 0 2 3 0 0 0 0 0 0 0 0 0 0 0 0 0 0 4 7 7 24 31 5 5 0 2 2 1 25 14 1 0 0 0 0 0 0 0 0 0 0 0 0
0 0 1 4 0 0 0 0 0 0 0 0 0 0 0 0 0 0 0 15 66 44 3 2 0 0 0 0 0 3 0 1 0 0 0 0 0 0 0 0 0 0 0 0 0
0 0 0 0 0 0 0 0 0 0 0 0 0 0 0 0 0 0 0 81 66 56 5 1 0 0 53 3 0 0 0 0 0 0 0 0 0 0 0 0 0 0 0 0 0
0 0 0 0 0 0 0 0 0 0 0 0 0 0 0 0 0 0 0 34 51 45 172 8 1 0 1 0 0 0 0 0 0 0 0 0 0 3 0 0 0 0 0 0 0
0 0 0 0 0 0 0 0 0 0 0 0 0 0 0 0 0 0 0 0 0 2 33 20 12 0 0 0 0 0 0 0 0 0 0 0 0 0 0 0 0 0 0 0 0
0 0 0 0 0 0 0 0 0 0 0 0 0 0 0 0 0 0 0 0 0 0 0 2 0 0 0 7 0 0 0 0 0 0 0 0 0 0 0 0 0 0 0 0 0
0 0 0 0 0 0 0 0 0 0 0 0 0 0 0 0 0 0 0 0 0 0 0 3 0 0 0 0 0 2 0 0 0 0 0 0 0 0 0 0 0 0 0 0 0

GFSSW_con_mucape_093.txt.gz
CAPE
20 21 22 27 4 10 15 11 8 6 24 101 120 161 204 252 277 135 102 117 130 190 285 36 41 73 26 34 174 149 78 36 3 19 4 0 0 0 0 65 190 607 1070 1131 1455
12 18 23 12 35 10 14 13 9 4 15 63 162 220 200 204 113 4 54 304 228 179 43 44 104 90 15 29 100 48 45 41 22 53 9 0 0 10 0 30 455 931 842 1310 1376
8 16 14 22 11 38 23 19 12 5 3 25 119 224 188 90 27 0 22 163 178 104 17 7 107 101 10 16 62 37 9 61 88 127 113 0 0 10 9 5 120 819 1114 1319 1435
5 13 13 22 9 6 38 18 28 4 3 0 105 211 220 0 0 0 23 1 25 1 29 3 38 46 46 5 3 63 7 36 42 71 38 56 9 0 0 0 77 833 1244 1482 1502
8 2 11 14 15 5 15 16 20 4 0 0 43 157 61 1 0 1 6 0 0 0 1 13 6 38 38 2 7 3 25 52 14 56 44 86 47 2 0 0 97 867 1178 1512 1536
10 8 0 8 0 1 0 2 12 2 0 0 44 103 18 0 8 2 11 4 3 0 20 0 16 38 26 15 6 0 31 46 13 23 72 65 63 17 1 0 1 630 1030 1358 1461
14 10 6 7 0 0 0 4 5 0 0 0 46 28 0 0 2 2 3 8 16 37 66 71 46 33 23 25 32 2 0 26 20 19 24 77 29 0 26 3 0 7 640 867 1133
13 10 6 0 0 0 0 0 2 0 0 0 20 8 0 0 0 9 7 4 28 35 34 13 4 16 43 39 47 54 0 0 7 1 24 6 5 1 15 15 0 0 0 17 524
8 6 0 0 0 0 0 0 0 0 0 3 0 0 0 0 0 8 6 32 6 1 11 18 12 29 39 26 25 1 0 0 0 0 12 17 0 1 14 35 12 0 0 0 0
8 7 0 0 0 0 0 0 0 0 0 0 0 0 0 0 0 4 11 1 0 0 0 0 0 0 26 3 0 0 0 0 0 0 0 1 0 0 0 8 1 3 0 0 0
5 2 0 0 0 0 0 0 0 0 0 0 0 0 0 0 0 0 1 2 0 0 0 0 0 0 0 6 0 16 0 0 0 0 0 0 0 0 0 0 0 0 0 0 0
3 0 0 0 0 0 0 0 0 0 0 0 0 0 0 0 0 0 0 0 0 0 0 0 0 0 0 1 0 0 0 0 44 122 31 0 0 0 0 0 0 1 0 0 0
0 0 0 0 0 0 0 0 0 0 0 0 0 0 0 0 0 0 0 0 0 0 0 0 0 0 0 4 0 0 0 0 0 26 15 0 0 0 0 0 0 0 0 0 0
0 0 0 0 0 0 0 0 0 0 0 0 0 0 0 0 0 0 0 0 0 0 0 0 0 0 0 4 7 21 45 28 7 4 0 4 0 0 0 0 0 0 0 0 0
0 0 0 0 0 0 0 0 0 0 0 0 0 0 0 0 0 0 0 0 0 0 0 0 0 0 0 6 25 17 9 20 22 14 0 0 0 0 0 0 0 0 0 0 0
0 0 0 0 0 0 0 0 0 0 0 0 0 0 0 0 0 0 0 0 0 0 0 0 0 0 0 3 6 22 11 12 8 24 0 0 0 0 0 0 0 0 0 0 0
0 0 0 0 0 0 0 0 0 0 0 0 0 0 0 0 0 0 0 0 0 0 0 0 0 0 0 1 16 29 0 0 0 0 0 0 0 0 0 0 0 0 0 0 0
0 0 0 0 0 0 0 0 0 0 0 0 0 0 0 0 0 0 0 0 0 0 0 0 0 0 0 5 0 15 25 0 0 0 0 0 0 0 0 0 0 0 0 0 0
0 0 0 0 0 0 0 0 0 0 0 0 0 0 0 0 0 0 0 0 0 0 1 0 0 0 0 4 3 0 0 3 0 0 0 0 0 0 0 0 0 0 0 0 0
0 0 0 0 0 0 0 0 0 0 0 0 0 0 0 0 0 0 0 0 0 1 7 16 0 0 0 10 5 4 0 0 0 0 0 0 0 0 0 0 0 0 0 0 0
0 0 0 0 0 0 0 0 0 0 0 0 0 0 0 0 0 0 0 1 33 29 1 32 19 6 21 4 0 3 8 17 0 0 0 0 0 0 0 0 0 0 0 0 0
0 0 0 0 0 0 0 0 0 0 0 0 0 0 0 0 0 0 0 0 71 33 0 3 16 7 70 5 17 3 1 2 0 0 0 0 1 0 0 0 0 0 0 0 0
0 0 7 0 0 0 0 0 0 0 0 0 0 0 0 0 0 0 0 23 41 30 24 2 7 8 5 0 11 7 0 0 0 0 0 0 0 0 0 0 0 0 0 0 0
0 0 0 0 0 0 0 0 0 0 0 0 0 0 0 0 0 0 0 0 0 0 72 17 0 0 1 0 0 0 0 0 0 10 0 0 0 0 0 0 0 0 0 0 0
0 0 0 0 0 0 0 0 0 0 0 0 0 0 0 0 0 0 0 0 0 0 26 17 0 0 0 0 3 0 0 1 1 0 0 0 0 0 0 2 0 0 0 0 0
0 0 0 0 0 0 0 0 0 0 0 0 0 0 0 0 0 0 0 0 0 0 0 5 0 0 0 0 0 0 0 0 0 1 0 0 0 0 0 0 0 0 0 0 0
0 0 0 0 0 0 0 0 0 0 0 0 0 0 0 0 0 0 0 0 0 0 0 0 0 0 13 0 0 0 0 0 0 0 0 0 0 0 0 0 0 0 0 0 0

GFSSW_con_mucape_096.txt.gz
CAPE
14 22 27 23 15 20 5 7 9 9 9 35 35 123 179 150 150 16 27 63 190 118 162 169 66 61 7 3 58 143 66 7 0 0 1 0 0 15 28 103 270 741 768 911 980
8 10 27 29 11 10 27 10 15 5 7 8 24 121 217 205 3 0 0 164 219 108 12 52 62 70 40 8 63 54 20 12 29 16 2 0 0 17 66 276 643 1023 1340 1315 1174
9 11 16 21 18 5 11 14 11 16 7 3 0 79 183 68 0 0 0 102 114 25 0 23 46 86 37 0 3 83 37 55 62 164 96 13 12 21 64 81 558 998 1177 1258 1218
7 8 8 21 24 9 6 9 13 16 9 0 0 61 128 0 0 0 13 29 18 0 8 26 50 75 35 0 14 1 31 67 50 79 60 49 10 6 0 4 345 961 1084 1268 1196
8 7 6 9 18 4 0 3 3 16 7 0 9 54 12 0 1 8 9 0 0 1 0 9 22 53 47 21 0 24 12 43 70 33 19 20 0 0 0 97 852 1210 1256 1293 1137
4 12 6 8 16 0 0 2 3 8 2 0 10 30 0 0 5 17 10 8 11 8 0 0 18 26 24 61 0 1 4 40 35 24 33 14 0 0 0 240 909 1260 1319 1338 1276
2 7 5 7 0 0 0 0 0 2 0 0 0 0 0 0 6 12 8 6 17 16 0 0 19 20 20 14 3 2 1 11 111 3 14 20 0 0 0 8 594 805 1258 1425 1365
3 2 1 0 0 0 0 0 0 0 0 0 0 0 0 0 10 19 23 17 15 21 16 7 13 37 33 19 0 0 1 0 34 12 9 12 10 7 0 0 11 325 594 1082 1309
3 0 0 0 0 0 0 0 0 0 0 0 0 0 0 0 7 12 6 6 7 1 0 0 4 20 33 39 5 0 0 0 0 0 1 16 44 22 13 0 0 0 73 436 865
2 0 0 0 0 0 0 0 0 0 0 0 0 0 0 0 8 4 0 0 2 0 4 0 0 11 38 10 0 0 0 0 0 0 0 0 24 50 11 7 2 0 0 0 12
1 0 0 0 0 0 0 0 0 0 0 0 0 0 0 0 0 7 0 0 0 0 0 0 0 5 11 17 13 5 0 0 0 0 0 0 0 40 0 0 0 0 0 0 0
0 0 0 0 0 0 0 0 0 0 0 0 0 0 0 0 0 0 0 0 0 0 0 0 0 0 0 0 2 7 0 0 0 9 0 0 0 0 0 0 0 0 0 0 0
0 0 0 0 0 0 0 0 0 0 0 0 0 0 0 0 0 0 0 0 0 0 0 0 0 0 0 0 0 0 0 0 0 14 0 0 0 0 0 0 0 0 0 0 0
0 0 0 0 0 0 0 0 0 0 0 0 0 0 0 0 0 0 0 0 0 0 0 0 0 0 0 5 3 0 5 0 4 0 0 0 0 0 0 0 0 0 0 0 0
0 0 0 0 0 0 0 0 0 0 0 0 0 0 0 0 0 0 0 0 0 0 0 0 0 0 0 1 1 0 10 3 5 0 0 0 0 0 0 0 0 0 0 0 0
0 0 0 0 0 0 0 0 0 0 0 0 0 0 0 0 0 0 0 0 0 0 0 0 0 0 0 5 11 6 21 17 25 9 0 0 0 0 0 0 0 0 0 0 0
0 0 0 0 0 0 0 0 0 0 0 0 0 0 0 0 0 0 0 0 0 0 0 0 0 0 0 4 23 20 27 6 0 0 0 0 0 0 0 0 0 0 0 0 0
0 1 0 0 0 0 0 0 0 0 0 0 0 0 0 0 0 0 0 0 0 0 0 0 0 0 0 0 0 3 0 4 0 0 0 1 0 0 0 0 0 0 0 0 0
1 0 0 0 0 0 0 0 0 0 0 0 0 0 0 0 0 0 0 0 0 0 0 0 0 0 0 1 6 11 9 1 0 0 0 0 0 0 0 0 0 0 0 0 0
0 0 0 0 0 0 0 0 0 0 0 0 0 0 0 0 0 0 0 0 0 4 10 2 0 0 0 16 21 5 2 0 0 0 0 0 0 0 0 0 0 0 0 0 0
0 0 0 0 0 0 0 0 0 0 0 0 0 0 0 0 0 0 0 1 37 22 30 8 12 2 33 21 4 11 0 5 0 0 0 0 0 0 0 0 0 0 0 0 0
0 0 2 0 0 0 0 0 0 0 0 0 0 0 0 0 0 0 0 0 59 61 3 21 81 11 1 21 19 27 12 6 0 0 0 0 0 0 0 0 0 0 0 0 0
0 0 1 0 0 0 0 0 0 0 0 0 0 0 0 0 0 0 0 0 11 19 39 53 0 0 1 13 18 15 9 10 3 0 0 0 0 0 0 0 0 0 0 0 0
0 0 0 0 0 0 0 0 0 0 0 0 0 0 0 0 0 0 0 0 0 2 48 46 0 0 1 1 2 0 7 5 20 0 0 0 0 0 0 0 0 0 0 0 0
0 0 0 0 0 0 0 0 0 0 0 0 0 0 0 0 0 0 0 0 0 0 2 36 0 0 0 0 0 16 0 2 7 0 0 0 0 0 0 0 3 0 0 0 0
0 0 0 0 0 0 0 0 0 0 0 0 0 0 0 0 0 0 0 0 0 0 0 0 0 0 0 0 0 0 0 0 0 0 0 0 0 0 0 0 0 0 0 0 0
0 0 0 0 0 0 0 0 0 0 0 0 0 0 0 0 0 0 0 0 0 0 0 0 0 0 0 0 6 0 0 0 0 0 0 0 0 0 0 0 0 0 0 0 0

GFSSW_con_mucape_099.txt.gz
CAPE
6 7 16 24 30 12 35 26 19 20 9 11 10 7 104 157 83 0 0 4 115 144 0 39 127 56 60 1 0 82 119 6 0 0 0 0 0 87 111 425 446 511 797 870 848
7 8 5 14 24 17 6 24 24 12 15 5 3 5 53 112 0 0 0 127 145 75 1 63 86 119 20 0 2 32 0 0 18 44 0 0 8 10 109 500 640 1166 1144 1037 762
7 6 7 5 16 19 10 11 24 14 12 4 0 8 52 2 0 1 3 62 91 35 22 73 61 54 17 0 0 9 37 52 88 187 50 0 12 14 268 364 727 1174 1318 1356 780
11 9 7 5 4 16 8 10 13 9 9 4 8 19 16 0 0 4 28 17 21 18 0 22 75 68 16 0 0 40 50 66 60 84 44 27 2 101 22 186 623 1414 1312 1152 898
2 11 11 1 3 12 1 10 10 7 6 5 13 18 0 0 0 15 10 1 15 17 0 36 64 20 19 16 0 17 9 28 56 61 33 9 0 8 284 812 915 1285 1280 1272 1097
0 12 13 1 1 1 0 8 5 2 3 4 9 0 0 0 7 14 2 1 10 0 0 6 33 24 11 0 0 4 2 4 43 31 26 18 4 0 119 876 1145 1058 1182 1201 912
0 11 12 1 2 0 0 5 2 0 0 1 1 0 0 0 11 33 19 6 3 1 1 4 29 16 29 0 0 0 0 0 37 33 10 19 3 0 59 725 916 1032 905 1043 883
5 4 6 3 1 0 0 1 0 0 0 0 0 0 0 0 8 15 7 6 4 20 2 1 33 28 44 26 75 4 7 13 38 31 16 25 2 0 0 112 358 455 683 800 953
7 0 7 6 1 0 0 0 0 0 0 0 0 0 0 0 0 1 1 2 3 0 0 9 24 21 19 42 0 0 2 1 36 82 43 45 4 0 0 0 4 3 114 400 576
5 0 3 0 2 0 0 0 0 0 0 0 0 0 0 0 0 0 0 0 0 0 0 6 25 11 11 0 2 0 0 0 12 36 6 22 1 3 1 0 0 0 0 3 237
8 1 0 0 0 0 0 0 0 0 0 0 0 0 0 0 0 0 0 0 0 0 0 0 6 26 17 0 0 0 0 0 0 4 3 1 0 18 46 0 0 0 0 0 0
9 8 0 0 0 0 0 0 0 0 0 0 0 0 0 0 0 0 0 0 0 0 0 0 0 3 5 0 0 0 0 0 0 0 0 0 0 0 17 1 0 0 0 0 0
31 44 0 0 0 0 0 0 0 0 0 0 0 0 0 0 0 0 0 0 0 0 0 0 0 0 2 2 0 0 0 0 0 0 0 0 0 0 0 0 4 0 0 0 0
17 2 0 0 0 0 0 0 0 0 0 0 0 0 0 0 0 0 0 0 0 0 0 0 0 0 0 0 3 0 0 0 0 0 0 0 0 0 0 0 0 0 0 0 0
23 12 0 3 0 0 0 0 0 0 0 0 0 0 0 0 0 0 0 0 0 0 0 0 0 0 0 0 14 0 3 0 16 35 0 0 0 0 0 0 0 0 0 0 0
25 6 0 1 0 0 0 0 0 0 0 0 0 0 0 0 0 0 0 0 0 0 0 0 0 0 0 0 3 11 19 10 4 30 0 0 0 0 0 0 0 0 0 0 0
9 19 0 0 0 0 0 0 0 0 0 0 0 0 0 0 0 0 0 0 0 0 0 0 0 0 0 0 0 8 28 0 0 0 0 0 0 0 0 0 0 0 0 0 0
14 4 0 0 0 0 0 0 0 0 0 0 0 0 0 0 0 0 0 0 0 0 0 0 0 0 0 0 0 3 20 0 0 0 0 0 0 0 0 0 0 0 0 0 0
1 1 0 0 0 0 0 0 0 0 0 0 0 0 0 0 0 0 0 0 0 0 0 0 0 0 0 0 3 4 5 3 6 0 0 0 0 0 0 0 0 0 0 0 0
0 0 0 0 0 0 0 0 0 0 0 0 0 0 0 0 0 0 0 0 0 1 8 0 0 0 0 16 8 1 4 6 3 0 0 0 0 0 0 0 0 0 0 0 0
0 1 6 0 0 0 0 0 0 0 0 0 0 0 0 0 0 0 0 0 0 0 24 13 0 0 24 17 4 30 10 7 4 0 0 0 0 0 0 0 0 0 0 0 0
0 0 7 0 0 0 0 0 0 0 0 0 0 0 0 0 0 0 0 0 33 43 0 36 0 0 0 29 33 42 32 16 4 0 0 0 0 0 0 0 0 0 0 0 0
0 0 10 0 0 0 0 0 0 0 0 0 0 0 0 0 0 0 0 0 0 0 0 17 0 0 0 42 31 89 11 23 5 0 0 0 0 0 0 0 0 0 0 0 0
0 0 0 0 0 0 0 0 0 0 0 0 0 0 0 0 0 0 0 0 0 0 17 15 0 0 0 0 0 8 9 21 19 12 0 0 0 0 0 0 0 0 0 0 0
0 0 0 0 0 1 0 0 0 0 0 0 0 0 0 0 0 0 0 0 0 0 0 0 0 0 0 0 0 0 0 18 63 3 0 0 0 0 0 0 0 0 0 0 0
0 0 0 0 0 0 0 0 0 0 0 0 0 0 0 0 0 0 0 0 0 0 0 0 0 0 0 0 0 0 0 6 0 0 0 0 0 0 0 0 0 0 0 0 0
0 0 0 0 0 0 0 0 0 0 0 0 0 0 0 0 0 0 0 0 0 0 0 0 0 0 0 0 0 0 0 0 0 0 0 1 0 0 0 0 0 0 0 0 0

GFSSW_con_mucape_102.txt.gz
CAPE
0 9 14 14 30 26 12 5 24 19 23 20 5 1 9 56 73 0 0 1 75 136 30 17 85 177 169 104 31 33 2 7 0 0 0 1 24 54 10 53 142 3 222 563 1160
0 1 9 15 18 32 17 10 9 23 18 14 2 5 41 74 2 0 0 96 122 47 4 67 104 110 70 21 5 22 0 0 4 0 0 13 17 156 325 397 429 862 1036 823 812
9 0 9 18 11 18 19 9 7 12 17 7 1 26 53 4 0 0 5 56 52 35 2 36 106 174 25 0 0 2 38 25 5 96 127 5 135 113 429 373 422 442 1285 1167 879
12 3 0 14 18 13 23 8 6 11 17 6 4 26 30 0 0 0 9 28 4 11 10 25 93 60 4 3 0 0 3 28 211 86 116 26 53 251 270 156 709 1218 1290 1114 634
21 15 0 11 10 10 13 9 5 7 11 3 18 26 0 0 0 8 2 0 5 9 7 15 61 36 4 1 0 0 0 14 6 60 51 26 162 92 221 642 1251 1266 1051 923 554
33 3 1 2 6 10 9 9 4 2 3 0 19 16 0 0 1 14 24 0 0 4 10 15 27 35 0 0 0 0 0 1 12 23 19 54 150 153 495 774 1074 1165 1147 702 542
57 14 12 0 5 7 7 7 2 0 0 0 11 1 0 0 0 12 9 11 13 0 0 12 16 43 0 0 0 0 18 17 34 20 22 57 68 56 270 465 672 737 1026 812 573
77 25 5 0 8 6 5 6 1 0 0 0 4 0 0 0 1 4 11 8 15 7 0 16 62 55 26 0 13 3 0 10 34 37 4 31 21 38 133 179 250 301 430 578 587
15 7 8 1 5 3 5 2 0 0 0 0 0 0 0 0 0 0 4 5 15 17 19 34 30 10 23 7 0 0 0 2 1 18 17 13 13 13 36 59 31 137 188 254 544
23 17 25 6 0 0 6 0 0 0 0 0 0 0 0 0 0 0 0 0 11 7 10 9 26 21 7 0 0 0 0 6 4 25 45 34 6 0 0 1 5 25 82 210 273
13 1 9 24 0 0 1 0 0 0 0 0 0 0 0 0 0 0 0 0 0 1 0 1 0 0 2 0 0 0 0 0 0 2 0 6 19 3 0 0 0 0 6 34 139
32 45 15 16 0 4 0 0 0 0 0 0 0 0 0 0 0 0 0 0 0 0 0 0 0 0 9 0 0 0 0 0 15 0 0 24 10 3 4 3 0 0 0 0 0
14 5 4 2 0 1 0 0 0 0 0 0 0 0 0 0 0 0 0 0 0 0 0 0 0 1 0 4 0 0 0 0 0 0 0 0 24 0 8 0 0 0 0 0 0
7 16 4 0 0 0 0 0 0 0 0 0 0 0 0 0 0 0 0 0 0 0 0 0 0 0 0 0 0 0 0 0 0 0 0 0 2 0 0 1 2 0 0 0 0
6 6 13 23 0 0 0 0 0 0 0 0 0 0 0 0 0 0 0 0 0 0 0 0 0 0 0 0 0 0 0 0 8 0 0 0 0 0 0 0 0 0 0 0 0
13 5 7 0 0 0 0 0 0 0 0 0 0 0 0 0 0 0 0 0 0 0 0 0 0 0 0 0 0 0 6 0 25 0 2 0 0 0 0 0 0 0 0 0 0
20 7 12 0 0 0 0 0 0 0 0 0 0 0 0 0 0 0 0 0 0 0 0 0 0 0 0 0 9 9 35 0 0 0 1 0 0 0 0 0 0 0 0 0 0
22 8 6 0 2 0 0 0 0 0 0 0 0 0 0 0 0 0 0 0 0 0 0 0 0 0 0 0 7 15 18 0 0 0 0 0 3 0 0 0 0 0 0 0 0
10 3 1 0 3 0 2 0 0 0 0 0 0 0 0 0 0 0 0 0 0 0 0 0 0 0 0 0 4 9 10 4 0 0 0 0 0 0 0 0 0 0 0 0 0
3 7 4 1 8 0 0 0 0 0 0 0 0 0 0 0 0 0 0 0 0 0 0 0 0 0 0 5 23 19 4 5 10 0 0 0 0 0 0 0 0 0 0 0 0
5 3 1 2 6 0 0 0 0 0 0 0 0 0 0 0 0 0 0 0 0 0 15 0 0 0 17 12 24 53 81 21 3 0 0 0 0 0 0 0 0 0 0 0 0
0 4 0 0 0 0 0 0 0 0 0 0 0 0 0 0 0 0 0 0 4 0 0 6 0 0 0 6 54 49 41 36 25 0 0 0 0 0 0 0 0 0 0 0 0
0 2 0 0 0 0 0 0 0 0 0 0 0 0 0 0 0 0 0 0 0 0 0 0 0 0 0 0 38 97 25 6 28 0 0 0 0 0 0 0 0 0 0 0 0
1 0 0 0 0 0 0 0 0 0 0 0 0 0 0 0 0 0 0 0 0 0 0 0 0 0 0 0 0 0 0 4 13 16 7 0 0 0 0 0 0 0 0 0 0
0 0 0 0 0 0 0 0 0 0 0 0 0 0 0 0 0 0 0 0 0 0 0 0 0 0 0 0 0 0 0 0 15 2 4 0 0 0 0 0 0 0 0 0 0
0 0 0 0 0 0 0 0 0 0 0 0 0 0 0 0 0 0 0 0 0 0 0 0 0 0 0 0 0 0 0 0 0 0 0 0 0 0 0 0 0 0 0 0 0
0 0 1 0 0 0 0 0 0 0 0 0 0 0 0 0 0 0 0 0 0 0 0 0 0 0 0 0 0 0 0 0 1 1 0 0 0 0 0 0 0 0 0 0 0

GFSSW_con_mucape_105.txt.gz
CAPE
1 1 6 1 7 11 20 20 12 19 25 29 5 5 42 61 55 4 0 0 48 69 24 10 22 99 204 181 129 119 99 2 0 0 0 0 0 136 216 265 92 0 0 0 357
11 8 7 9 1 8 9 21 17 11 17 22 3 24 66 70 2 0 0 37 71 44 3 31 60 145 176 132 78 59 66 0 17 0 0 15 0 376 527 671 66 30 12 158 294
22 23 11 16 0 8 12 23 17 10 13 16 2 36 64 12 0 0 0 35 41 52 0 21 76 112 46 151 23 13 70 15 48 15 41 1 0 295 512 475 54 2 66 298 312
17 36 28 6 9 0 8 11 12 10 10 10 2 29 60 0 0 0 0 26 35 5 22 27 72 83 9 14 15 0 3 12 22 18 111 0 0 135 369 200 309 157 411 222 194
6 27 21 29 31 0 8 8 13 15 8 4 0 23 0 0 0 0 0 5 6 26 26 37 56 68 39 2 0 0 0 12 21 14 58 26 0 31 256 481 713 900 761 974 105
37 12 6 15 2 0 3 8 9 18 4 1 0 10 0 0 0 0 2 2 33 3 16 19 18 42 12 1 0 0 7 10 58 25 40 14 0 8 128 517 772 575 921 957 208
6 20 23 10 12 2 1 3 7 13 1 1 0 0 0 0 0 0 0 5 20 1 7 22 19 57 0 0 0 0 5 23 67 7 26 0 28 17 45 270 494 513 751 735 346
16 25 10 12 27 1 0 1 2 5 1 0 0 0 0 0 0 0 0 8 6 15 6 30 39 10 11 0 17 0 0 8 1 10 11 13 9 4 31 146 165 176 266 264 366
1 0 10 9 13 17 1 0 0 0 0 0 0 0 0 0 0 0 1 0 0 0 3 21 15 20 18 26 0 0 0 2 5 0 4 8 12 16 40 57 66 119 70 179 197
3 1 8 7 4 25 0 0 0 0 0 0 0 0 0 0 0 0 0 2 2 7 9 21 39 7 6 5 0 0 0 0 0 0 20 0 2 2 43 70 80 70 70 144 276
19 21 3 0 13 6 9 0 0 0 0 0 0 0 0 0 0 0 0 0 1 2 0 2 0 0 0 0 0 0 0 0 0 0 5 0 4 9 33 57 74 90 97 73 188
5 20 27 0 4 13 0 0 0 0 0 0 0 0 0 0 0 0 0 0 0 0 0 0 0 0 0 0 0 0 0 0 0 0 12 1 0 6 11 21 22 35 86 105 111
8 9 6 6 0 0 10 0 0 0 0 0 0 0 0 0 0 0 0 0 0 0 0 0 0 0 0 0 0 0 0 0 0 0 0 0 3 3 1 19 12 4 12 81 93
7 28 6 12 0 0 0 0 0 0 0 0 0 0 0 0 0 0 0 0 0 0 0 0 0 0 0 0 0 0 0 0 0 0 0 0 2 0 5 7 10 14 5 6 6
13 2 17 0 7 0 0 0 0 0 0 0 0 0 0 0 0 0 0 0 0 0 0 0 0 0 0 0 0 0 0 4 0 0 1 1 0 0 0 0 1 12 16 12 8
14 13 16 2 17 1 0 0 0 0 0 0 0 0 0 0 0 0 0 0 0 0 0 0 0 0 0 0 1 0 2 20 23 0 1 0 0 0 0 0 0 0 0 0 8
0 2 27 20 10 1 0 0 0 0 0 0 0 0 0 0 0 0 0 0 0 0 0 0 0 0 0 0 11 15 20 0 0 0 0 0 0 6 0 0 0 0 0 1 11
6 17 9 6 14 4 0 0 0 0 0 0 0 0 0 0 0 0 0 0 0 0 0 0 0 0 0 13 28 27 8 0 0 0 0 0 0 0 0 0 0 0 0 0 0
2 12 9 12 13 0 0 0 0 0 0 0 0 0 0 0 0 0 0 0 0 0 0 0 0 0 0 30 20 4 15 4 1 0 0 0 0 0 0 0 0 0 0 0 0
0 17 22 0 0 0 0 0 0 0 0 0 0 0 0 0 0 0 0 0 0 0 0 0 0 0 10 10 26 29 6 51 14 0 0 0 0 0 0 0 0 0 0 0 0
0 0 0 2 0 1 0 0 0 0 0 0 0 0 0 0 0 0 0 0 0 0 0 0 0 0 0 0 0 88 81 15 1 1 0 0 0 0 0 0 0 0 0 0 0
25 0 0 1 0 0 0 0 0 0 0 0 0 0 0 0 0 0 0 0 0 0 0 0 0 0 0 1 31 23 11 19 28 0 1 0 0 0 0 0 0 0 0 0 0
0 0 0 0 0 0 0 0 0 0 0 0 0 0 0 0 0 0 0 0 0 0 0 0 0 0 0 0 1 0 0 0 0 0 0 0 0 0 0 0 0 0 0 0 0
0 0 0 0 0 0 0 0 0 0 0 0 0 0 0 0 0 0 0 0 0 0 0 0 0 0 0 0 0 0 0 2 0 0 0 0 0 0 0 0 0 0 0 0 0
0 6 0 0 0 0 0 0 0 0 0 0 0 0 0 0 0 0 0 0 0 0 0 0 0 0 0 0 0 0 0 0 0 0 1 0 0 0 0 0 0 0 0 0 0
9 1 0 0 0 0 0 0 0 0 0 0 0 0 0 0 0 0 0 0 0 0 0 0 0 0 0 0 0 0 0 0 0 0 0 0 0 0 0 0 0 0 0 0 0
0 1 0 0 0 0 0 0 0 0 0 0 0 0 0 0 0 0 0 0 0 0 0 0 0 0 0 0 0 0 0 0 0 0 0 0 0 0 0 1 0 0 0 0 0

GFSSW_con_mucape_108.txt.gz
CAPE
14 4 23 0 0 0 0 8 28 10 6 19 25 4 11 14 19 0 0 0 13 53 8 1 17 40 98 154 149 260 131 161 49 0 14 0 30 3 10 231 418 297 167 108 616
22 12 3 12 2 0 2 10 24 10 8 17 16 9 27 23 1 0 0 0 59 49 15 13 50 82 147 68 144 156 142 47 50 30 0 0 14 7 15 262 423 329 164 290 815
12 28 7 15 7 16 1 0 6 8 8 12 14 12 4 0 0 0 0 21 62 40 7 26 115 112 102 226 112 92 120 90 7 8 4 0 0 27 8 117 308 266 246 130 77
13 24 18 6 2 14 5 0 6 5 5 8 14 9 0 0 0 0 0 14 24 0 27 33 75 86 72 74 197 68 79 64 0 0 0 11 0 5 5 25 356 278 236 202 37
0 23 39 8 8 7 1 1 0 6 3 0 13 8 0 0 0 0 0 1 10 4 23 70 77 47 71 126 168 142 59 34 10 0 1 3 18 1 49 232 129 328 311 307 186
10 0 19 16 13 10 4 0 0 9 1 0 13 3 0 0 0 0 0 13 22 0 1 28 42 117 50 43 135 36 1 20 1 0 0 2 16 0 9 9 46 488 450 252 171
6 2 2 11 2 6 2 26 2 11 6 0 8 4 0 0 0 0 0 2 7 14 7 20 37 44 18 16 8 4 7 31 10 54 34 4 0 0 0 13 23 430 493 461 209
11 3 3 5 0 3 0 9 1 2 1 0 5 0 0 0 0 0 0 0 10 22 20 29 20 18 44 8 9 4 0 0 30 39 2 0 0 46 0 0 123 288 430 574 301
12 14 26 7 2 0 3 9 4 0 0 0 0 0 0 0 0 0 0 0 3 0 4 9 20 30 13 23 11 2 0 1 17 4 0 0 0 0 0 2 63 214 357 412 246
13 7 3 2 2 2 1 5 5 0 0 0 0 0 0 0 0 0 0 2 3 7 15 7 17 1 8 16 0 0 0 0 0 0 0 0 0 0 13 19 25 120 130 162 258
11 3 0 5 9 5 14 15 2 0 0 0 0 0 0 0 0 0 0 0 0 2 0 2 22 0 0 0 0 0 0 0 0 0 0 0 0 8 20 34 11 49 106 49 163
3 0 20 14 7 10 10 10 1 0 0 0 0 0 0 0 0 0 0 0 0 0 0 0 0 0 0 0 0 0 0 0 0 0 0 0 0 13 44 22 0 18 49 3 77
5 0 17 19 6 20 15 10 0 0 0 0 0 0 0 0 0 0 0 0 0 0 0 0 0 0 0 0 0 0 0 0 0 0 0 0 0 0 36 48 19 1 25 59 94
11 0 4 3 6 20 14 0 0 0 0 0 0 0 0 0 0 0 0 0 0 0 0 0 0 0 0 0 0 0 0 0 0 0 0 0 0 0 13 37 18 32 31 30 56
28 0 0 26 9 16 1 0 0 0 0 0 0 0 0 0 0 0 0 0 0 0 0 0 0 0 0 0 0 0 0 0 12 0 0 0 0 0 0 40 8 2 3 36 83
39 1 23 46 7 6 6 0 0 0 0 0 0 0 0 0 0 0 0 0 0 0 0 0 0 0 0 0 1 1 32 45 34 0 2 0 0 0 0 0 15 14 11 6 21
24 11 42 33 0 21 0 0 0 0 0 0 0 0 0 0 0 0 0 0 0 0 0 0 0 0 0 0 27 44 56 0 0 0 0 0 0 0 0 0 1 7 13 7 11
26 21 66 13 0 0 1 0 0 0 0 0 0 0 0 0 0 0 0 0 0 0 0 0 0 0 1 23 13 50 45 0 0 0 0 0 0 0 0 0 0 0 0 0 0
41 8 34 6 1 0 0 0 0 0 0 0 0 0 0 0 0 0 0 0 0 0 0 0 0 0 0 17 41 45 71 20 2 0 0 0 0 0 0 0 0 12 0 0 0
61 18 11 11 10 2 0 0 0 0 0 0 0 0 0 0 0 0 0 0 0 0 0 0 0 0 1 27 36 59 19 134 172 0 0 0 0 0 0 0 0 0 0 0 0
56 1 0 0 2 2 0 0 0 0 0 0 0 0 0 0 0 0 0 0 0 0 0 0 0 0 0 0 0 19 40 32 20 34 0 0 0 0 0 0 0 0 0 0 0
45 0 0 0 0 0 0 0 0 0 0 0 0 0 0 0 0 0 0 0 0 0 0 0 0 0 0 0 23 31 11 3 53 0 0 0 0 0 0 0 0 0 0 0 0
3 0 0 0 0 0 0 0 0 0 0 0 0 0 0 0 0 0 0 0 0 0 0 0 0 0 0 0 0 0 0 0 0 0 16 49 12 0 0 0 0 0 0 0 0
0 0 0 0 0 0 0 0 0 0 0 0 0 0 0 0 0 0 0 0 0 0 0 0 0 0 0 0 0 0 0 0 0 1 0 8 0 0 0 0 0 0 0 0 0
0 0 0 0 0 0 0 0 0 0 0 0 0 0 0 0 0 0 0 0 0 0 0 0 0 0 0 0 0 0 0 0 0 0 0 0 0 0 0 0 0 0 0 0 0
0 7 0 0 0 0 0 0 0 0 0 0 0 0 0 0 0 0 0 0 0 0 0 0 0 0 0 0 0 0 0 0 0 0 0 0 0 0 0 0 0 0 0 0 0
0 4 0 0 0 0 0 0 0 0 0 0 0 0 0 0 0 0 0 0 0 0 0 0 0 0 0 0 0 0 0 0 0 0 0 0 7 4 0 0 0 0 0 0 0

GFSSW_con_mucape_111.txt.gz
CAPE
3 49 21 6 0 6 0 2 0 0 9 3 0 14 5 13 0 1 0 0 0 34 45 35 28 28 27 51 70 83 97 85 40 55 22 37 84 23 49 0 11 4 244 530 1333
0 11 67 14 11 0 0 0 0 0 8 9 2 6 7 9 1 0 0 0 1 50 28 28 38 28 37 42 73 105 85 55 31 112 128 60 5 2 4 21 7 123 172 995 1711
35 40 57 58 2 0 4 0 2 1 1 16 1 0 3 2 0 0 0 0 22 45 13 46 51 32 35 46 43 51 66 58 102 79 43 0 0 0 0 47 10 10 389 694 1439
27 18 4 12 29 10 5 4 0 0 0 11 4 0 0 0 0 0 0 0 6 7 23 24 32 47 52 38 63 25 60 84 111 86 53 34 17 0 3 1 10 0 2 838 1120
17 16 4 0 46 48 8 4 4 8 3 8 6 1 0 0 0 0 0 0 0 1 33 31 42 43 65 52 68 65 70 105 94 31 7 1 0 0 0 11 7 7 1 671 951
21 18 18 2 32 75 18 2 5 9 0 7 1 3 11 0 0 0 0 0 0 0 12 32 75 70 116 47 54 52 65 87 43 0 21 0 2 0 0 4 33 46 27 491 397
23 16 16 41 42 32 7 3 7 6 1 6 4 4 0 0 0 0 0 0 0 8 2 8 42 45 61 11 4 37 55 82 33 0 0 3 0 0 0 61 20 8 374 533 434
23 17 7 8 20 7 8 11 18 22 0 5 3 6 0 0 0 0 0 0 2 4 12 13 50 55 83 30 21 34 49 0 25 17 14 0 0 8 11 30 62 132 444 432 404
15 17 6 2 0 5 5 8 26 13 0 2 2 0 0 0 0 0 0 0 3 1 5 0 3 66 37 9 19 18 0 0 2 0 4 0 0 0 9 0 41 183 311 322 368
20 14 3 19 12 3 13 13 13 3 0 0 0 0 0 0 0 0 0 0 0 2 6 2 2 29 8 1 0 0 0 0 0 0 1 0 0 9 15 25 70 298 231 412 346
67 14 1 15 66 21 15 15 1 2 0 0 0 0 0 0 0 0 0 0 0 0 0 7 0 0 0 0 26 0 0 0 0 0 0 0 0 0 17 50 83 324 496 467 342
101 23 0 6 38 12 31 35 16 7 0 0 0 0 0 0 0 0 0 0 0 0 18 0 0 24 7 0 0 0 0 0 0 0 0 0 0 0 5 28 90 147 383 436 250
114 53 0 9 6 9 24 23 15 6 0 0 0 0 0 0 0 0 0 0 0 0 0 0 1 0 0 0 0 0 0 0 0 0 0 0 0 0 0 23 19 19 120 273 280
122 81 8 0 19 4 8 2 6 0 0 0 0 0 0 0 0 0 0 0 0 0 0 0 3 0 0 0 12 0 0 0 0 0 0 0 0 0 0 11 20 6 26 53 110
123 110 22 0 10 8 12 0 0 0 0 0 0 0 0 0 0 0 0 0 0 0 0 0 0 0 0 0 5 2 7 22 18 0 0 0 0 0 0 2 11 25 9 27 17
132 91 18 11 45 9 1 0 0 0 0 0 0 0 0 0 0 0 0 0 0 0 0 0 0 0 0 0 0 18 42 33 36 0 0 0 0 0 0 3 15 80 19 17 30
61 45 1 5 19 9 7 0 0 0 0 0 0 0 0 0 0 0 0 0 0 0 0 0 0 0 0 0 29 41 50 0 0 0 0 0 0 0 0 0 5 12 26 0 3
5 13 0 17 40 17 7 0 0 0 0 0 0 0 0 0 0 0 0 0 0 0 0 0 0 0 0 0 0 45 58 0 0 0 0 0 0 0 0 0 2 4 8 4 0
47 18 66 59 1 0 1 0 0 0 0 0 0 0 0 0 0 0 0 0 0 0 0 0 0 0 0 13 37 40 99 58 47 10 0 0 0 0 0 0 0 0 4 21 6
48 5 27 4 0 0 0 0 0 0 0 0 0 0 0 0 0 0 0 0 0 0 0 0 0 0 0 5 37 34 17 72 82 0 0 0 0 0 0 0 0 0 0 0 0
74 6 3 1 1 0 0 0 0 0 0 0 0 0 0 0 0 0 0 0 0 0 0 0 0 0 0 0 0 9 9 14 0 10 11 0 0 0 0 0 0 0 0 0 0
83 1 0 0 0 0 0 0 0 0 0 0 0 0 0 0 0 0 0 0 0 0 0 0 0 0 0 0 13 28 0 0 0 0 7 8 0 0 0 0 0 0 0 0 0
0 0 0 0 0 0 0 0 0 0 0 0 0 0 0 0 0 0 0 0 0 0 0 0 0 0 0 0 0 0 0 0 0 0 43 5 10 3 0 0 0 0 0 0 0
0 0 0 0 0 0 0 0 0 0 0 0 0 0 0 0 0 0 0 0 0 0 0 0 0 0 0 0 0 0 0 0 0 0 0 17 3 16 1 0 0 0 0 0 0
0 0 0 0 0 0 0 0 0 0 0 0 0 0 0 0 0 0 0 0 0 0 0 0 0 0 0 0 0 0 0 0 0 0 0 0 0 0 0 0 0 0 0 0 0
0 0 0 0 0 0 0 0 0 0 0 0 0 0 0 0 0 0 0 0 0 0 0 0 0 0 0 0 0 0 0 0 0 0 0 0 0 0 0 3 3 1 0 0 0
0 0 0 0 0 0 0 0 0 0 0 0 0 0 0 0 0 0 0 0 0 0 0 0 0 0 0 0 0 0 0 0 0 0 0 0 1 0 0 0 0 0 0 1 0

GFSSW_con_mucape_114.txt.gz
CAPE
12 34 43 67 67 20 10 0 0 0 0 0 8 7 5 5 3 0 0 0 0 0 26 1 4 1 41 30 42 55 0 0 0 0 0 0 88 12 16 4 54 49 8 25 251
14 33 8 46 50 34 6 7 2 0 0 0 0 3 4 10 3 0 0 0 0 25 11 0 6 30 24 27 48 37 8 0 0 0 16 128 99 18 9 3 35 22 15 0 94
15 21 15 4 39 77 40 28 4 2 2 0 0 2 1 9 0 0 0 0 0 10 1 2 32 34 11 25 15 20 0 0 9 40 103 114 49 31 0 0 8 32 25 14 58
15 14 21 33 37 80 77 49 7 5 1 1 0 1 0 0 0 0 0 0 0 0 0 4 29 10 0 3 38 2 10 2 26 37 100 37 4 0 0 0 0 0 0 0 36
28 17 22 16 36 34 57 26 27 6 6 0 1 2 0 0 0 0 0 0 0 0 0 34 38 23 20 28 59 24 1 15 21 20 48 10 0 0 0 0 0 0 0 0 0
24 24 19 8 7 3 24 10 20 18 17 0 0 2 0 0 0 0 0 0 0 0 1 16 23 23 11 46 55 49 43 26 32 12 5 0 0 0 0 0 0 0 0 0 0
34 19 15 10 2 8 48 35 11 25 17 0 3 4 0 0 0 0 0 0 0 0 0 23 23 7 13 21 19 32 41 42 34 27 0 0 0 0 0 0 2 4 67 30 0
64 23 9 8 3 5 16 75 12 20 25 1 4 11 0 0 0 0 0 0 0 1 6 14 16 0 2 33 15 4 13 0 4 1 0 0 0 0 13 0 38 9 29 26 95
102 64 16 2 4 34 25 37 17 46 29 4 0 0 0 0 0 0 0 0 0 0 9 3 0 10 27 21 0 0 0 0 0 0 0 0 0 0 0 6 2 0 3 34 71
109 105 58 0 8 75 45 41 22 24 3 0 0 0 0 0 0 0 0 0 0 1 10 3 2 18 6 0 3 0 0 0 0 0 0 0 0 0 0 0 2 1 3 177 286
117 120 92 1 12 67 24 3 1 0 0 0 0 0 0 0 0 0 0 0 0 0 0 18 0 0 2 0 0 0 0 0 0 0 0 0 0 0 0 5 0 0 104 262 161
138 139 95 13 7 29 10 6 7 0 0 2 0 0 0 0 0 0 0 0 10 0 25 0 0 8 8 9 0 0 0 0 0 1 0 0 0 0 0 6 9 18 107 244 185
138 143 127 40 0 27 9 15 21 8 1 0 0 0 0 0 0 0 0 0 0 0 0 0 0 22 6 0 0 0 0 0 0 5 0 0 0 0 0 0 30 45 203 221 244
206 210 107 28 0 7 19 2 7 1 2 0 0 0 0 0 0 0 0 0 0 0 0 0 1 0 0 0 7 0 0 0 0 0 0 0 0 0 0 4 24 29 288 393 315
168 95 62 27 0 4 8 8 3 11 0 0 0 0 0 0 0 0 0 0 0 0 0 0 0 0 0 0 4 0 0 0 0 0 0 0 0 2 0 0 24 14 42 255 279
56 42 42 9 19 2 1 25 1 0 0 0 0 0 0 0 0 0 0 0 0 0 0 0 0 0 0 0 0 0 1 0 8 17 0 0 0 0 0 4 13 35 17 50 124
34 13 9 15 28 11 4 0 0 0 0 0 0 0 0 0 0 0 0 0 0 0 0 0 0 0 0 0 1 18 16 0 0 0 0 0 0 0 0 5 3 26 41 23 50
45 28 15 0 15 1 1 0 0 0 0 0 0 0 0 0 0 0 0 0 0 0 0 0 0 0 0 0 0 0 19 0 0 0 0 0 0 0 0 0 5 13 28 21 5
102 20 57 47 26 0 0 0 0 0 0 0 0 0 0 0 0 0 0 0 0 0 0 0 0 0 0 0 10 6 20 0 0 2 0 3 0 0 0 0 0 0 17 2 2
18 17 4 7 0 0 0 0 0 0 0 0 0 0 0 0 0 0 0 0 0 0 0 0 0 0 0 1 25 21 7 0 0 0 0 0 0 0 0 0 0 0 0 0 10
67 0 0 0 0 0 0 0 0 0 0 0 0 0 0 0 0 0 0 0 0 0 0 0 0 0 0 0 0 0 0 0 0 0 0 0 0 1 0 0 0 0 0 0 0
39 0 0 0 0 0 0 0 0 0 0 0 0 0 0 0 0 0 0 0 0 0 0 0 0 0 0 0 0 0 0 0 0 0 0 0 0 0 0 0 0 0 0 0 0
0 0 0 0 0 0 0 0 0 0 0 0 0 0 0 0 0 0 0 0 0 0 0 0 0 0 0 0 0 0 0 0 0 0 0 0 3 1 0 0 0 0 0 0 0
0 0 0 0 0 0 0 0 0 0 0 0 0 0 0 0 0 0 0 0 0 0 0 0 0 0 0 0 0 0 0 0 0 0 0 0 6 0 0 0 0 0 0 0 0
0 0 0 0 0 0 0 0 0 0 0 0 0 0 0 0 0 0 0 0 0 0 0 0 0 0 0 0 0 0 0 0 0 0 0 0 0 0 0 0 0 0 0 0 0
0 0 0 0 0 0 0 0 0 0 0 0 0 0 0 0 0 0 0 0 0 0 0 0 0 0 0 0 0 0 0 0 0 0 0 0 0 3 0 0 0 0 0 0 0
0 0 0 0 0 0 0 0 0 0 0 0 0 0 0 0 0 0 0 0 0 0 0 0 0 0 0 0 0 0 0 0 0 0 0 0 0 0 0 0 0 0 0 0 0

GFSSW_con_mucape_117.txt.gz
CAPE
15 11 25 12 1 53 73 10 6 21 4 0 0 0 13 16 12 1 0 0 0 1 16 0 1 27 50 25 29 35 0 0 0 0 0 0 0 0 0 10 0 1 1 0 8
17 34 25 23 16 48 46 61 40 22 6 0 0 0 10 9 7 1 0 0 0 0 0 16 2 32 18 19 17 0 0 0 0 0 0 0 0 8 18 24 0 0 2 4 7
30 20 32 18 14 40 44 103 74 42 12 0 0 0 7 0 0 0 0 0 0 0 0 6 14 26 18 9 0 0 0 0 0 0 0 7 0 13 59 28 0 0 19 37 19
27 32 21 16 7 9 28 78 24 8 19 11 0 0 2 1 0 0 0 0 0 0 0 0 17 30 1 0 0 0 0 0 0 0 0 0 3 1 2 0 0 0 0 39 15
50 33 22 11 6 2 3 7 26 22 5 13 1 0 0 0 0 0 0 0 0 0 0 9 32 32 13 1 7 0 0 0 0 1 0 8 0 0 0 1 1 0 1 11 31
75 54 31 12 6 0 3 4 18 10 3 14 3 0 0 0 0 0 0 0 0 0 0 20 29 28 14 2 6 0 4 0 0 0 8 31 0 8 0 0 0 0 0 8 0
63 82 46 25 9 1 6 8 60 18 7 17 0 0 0 0 0 0 0 0 0 0 0 23 12 7 18 0 0 0 0 0 0 0 5 58 0 0 0 0 0 0 5 0 0
68 77 103 49 18 0 24 41 30 17 23 9 7 3 0 0 0 0 0 0 0 1 10 3 5 8 3 2 0 0 0 1 0 16 14 12 0 0 3 61 8 42 48 56 26
93 92 101 87 23 7 77 74 29 32 25 0 0 0 0 0 0 0 0 0 1 4 0 0 0 0 23 12 0 0 0 0 0 1 6 1 0 0 0 6 17 7 19 0 41
107 105 98 85 14 9 70 56 51 18 4 6 0 0 0 0 0 0 0 0 0 7 0 0 3 0 3 0 0 0 0 0 0 0 0 0 0 0 0 0 0 0 2 0 192
138 164 137 93 36 30 19 8 3 1 11 0 0 0 0 0 0 0 0 0 0 0 0 0 0 0 0 0 0 0 0 0 0 0 0 0 0 0 0 0 0 0 24 92 215
155 221 201 72 95 0 25 4 1 0 0 2 2 0 0 0 0 0 0 0 1 0 0 0 0 0 16 5 0 0 0 0 0 0 1 0 0 0 0 0 1 3 7 164 132
221 269 152 39 74 12 47 30 20 0 1 1 2 0 0 0 0 0 0 0 0 0 0 0 0 14 4 0 0 0 0 0 0 0 0 0 0 0 0 0 0 9 33 144 105
125 150 76 62 6 15 19 16 5 1 0 0 0 0 0 0 0 0 0 0 0 0 0 0 3 0 0 0 8 0 7 0 0 0 0 0 0 0 0 15 18 18 137 125 61
68 63 39 36 2 9 54 22 1 0 0 0 0 0 0 0 0 0 0 0 0 0 0 0 0 0 0 0 6 0 4 0 0 0 0 0 8 0 0 30 7 17 68 116 126
57 34 41 37 20 2 17 0 0 0 0 0 0 0 0 0 0 0 0 0 0 0 0 0 0 0 0 0 10 7 0 0 0 4 0 0 7 0 0 1 6 23 12 91 170
74 50 4 4 31 0 4 0 0 0 0 0 0 0 0 0 0 0 0 0 0 0 0 0 0 0 0 0 9 8 2 0 0 0 0 0 0 0 0 0 5 18 16 18 58
99 21 38 7 0 0 0 0 0 0 0 0 0 0 0 0 0 0 0 0 0 0 0 0 0 0 0 0 2 7 0 0 0 0 0 0 0 0 0 0 0 23 22 5 8
46 13 15 23 1 0 0 0 0 0 0 0 0 0 0 0 0 0 0 0 0 0 0 0 0 0 0 18 11 0 0 0 9 0 0 0 0 0 0 0 0 0 6 18 22
0 0 0 0 0 1 0 0 0 0 0 0 0 0 0 0 0 0 0 0 0 0 0 0 0 0 0 0 0 0 0 0 0 0 0 0 0 0 0 0 0 0 0 0 9
0 0 0 0 0 0 0 0 0 0 0 0 0 0 0 0 0 0 0 0 0 0 0 0 0 0 0 0 0 0 0 0 0 0 0 0 0 0 0 0 0 0 0 0 0
0 0 0 0 0 0 0 0 0 0 0 0 0 0 0 0 0 0 0 0 0 0 0 0 0 0 0 0 0 0 0 0 0 0 0 0 0 0 0 0 0 0 0 0 0
0 0 0 0 0 0 0 0 0 0 0 0 0 0 0 0 0 0 0 0 0 0 0 0 0 0 0 0 0 0 0 0 0 0 0 0 0 0 0 0 0 0 0 0 0
0 0 0 0 0 0 0 0 0 0 0 0 0 0 0 0 0 0 0 0 0 0 0 0 0 0 0 0 0 0 0 0 0 0 0 0 0 0 0 0 0 0 0 0 0
0 0 0 0 0 0 0 0 0 0 0 0 0 0 0 0 0 0 0 0 0 0 0 0 0 0 0 0 0 0 0 0 0 0 0 0 0 0 0 0 0 0 0 0 0
0 0 0 0 0 0 0 0 0 0 0 0 0 0 0 0 0 0 0 0 0 0 0 0 0 0 0 0 0 0 0 0 0 0 0 0 0 0 0 0 0 0 0 0 0
0 0 0 0 0 0 0 0 0 0 0 0 0 0 0 0 0 0 0 0 0 0 0 0 0 0 0 0 0 0 0 0 0 0 0 0 0 0 0 0 0 0 0 0 0